Wetterdaten: Mittwoch, 09.11.2016
Datum Zeit Temp. A. Temp. A. max Feuchte A. Luftdruck Regen Wind Richtung Richtung Sonnenschein ET UV Solar Taupunkt Windböen
09.11.2016 00:00 -1,4 °C -1,4 °C 93 % 1012,8 hPa 0,0 mm 0,1 km/h (0 Bft) S-SW 212 ° 0 min 0,000 mm 0,0 UV-I 0 W/m² -2,4 °C 1,6 km/h (1 Bft)
09.11.2016 00:01 -1,4 °C -1,4 °C 93 % 1012,9 hPa 0,0 mm 1,9 km/h (1 Bft) W-SW 249 ° 0 min 0,000 mm 0,0 UV-I 0 W/m² -2,4 °C 4,8 km/h (1 Bft)
09.11.2016 00:02 -1,4 °C -1,4 °C 93 % 1012,9 hPa 0,0 mm 1,1 km/h (1 Bft) W-SW 249 ° 0 min 0,000 mm 0,0 UV-I 0 W/m² -2,4 °C 3,2 km/h (1 Bft)
09.11.2016 00:03 -1,4 °C -1,4 °C 93 % 1012,9 hPa 0,0 mm 1,6 km/h (1 Bft) W-SW 249 ° 0 min 0,000 mm 0,0 UV-I 0 W/m² -2,4 °C 3,2 km/h (1 Bft)
09.11.2016 00:04 -1,4 °C -1,4 °C 93 % 1012,9 hPa 0,0 mm 2,0 km/h (1 Bft) W-SW 249 ° 0 min 0,000 mm 0,0 UV-I 0 W/m² -2,4 °C 3,2 km/h (1 Bft)
09.11.2016 00:05 -1,4 °C -1,4 °C 93 % 1012,9 hPa 0,0 mm 1,3 km/h (1 Bft) W-SW 249 ° 0 min 0,000 mm 0,0 UV-I 0 W/m² -2,4 °C 3,2 km/h (1 Bft)
09.11.2016 00:06 -1,4 °C -1,4 °C 93 % 1012,8 hPa 0,0 mm 1,3 km/h (1 Bft) W-SW 249 ° 0 min 0,000 mm 0,0 UV-I 0 W/m² -2,4 °C 3,2 km/h (1 Bft)
09.11.2016 00:07 -1,4 °C -1,4 °C 93 % 1012,8 hPa 0,0 mm 0,1 km/h (0 Bft) W-SW 249 ° 0 min 0,000 mm 0,0 UV-I 0 W/m² -2,4 °C 1,6 km/h (1 Bft)
09.11.2016 00:08 -1,4 °C -1,4 °C 93 % 1012,7 hPa 0,0 mm 0,1 km/h (0 Bft) W-SW 249 ° 0 min 0,000 mm 0,0 UV-I 0 W/m² -2,4 °C 1,6 km/h (1 Bft)
09.11.2016 00:09 -1,4 °C -1,4 °C 93 % 1012,7 hPa 0,0 mm 1,0 km/h (0 Bft) W-SW 249 ° 0 min 0,000 mm 0,0 UV-I 0 W/m² -2,4 °C 1,6 km/h (1 Bft)
09.11.2016 00:10 -1,4 °C -1,4 °C 93 % 1012,7 hPa 0,0 mm 0,6 km/h (0 Bft) W-SW 249 ° 0 min 0,000 mm 0,0 UV-I 0 W/m² -2,4 °C 1,6 km/h (1 Bft)
09.11.2016 00:11 -1,4 °C -1,4 °C 93 % 1012,7 hPa 0,0 mm 0,4 km/h (0 Bft) W-SW 249 ° 0 min 0,000 mm 0,0 UV-I 0 W/m² -2,4 °C 1,6 km/h (1 Bft)
09.11.2016 00:12 -1,4 °C -1,4 °C 93 % 1012,7 hPa 0,0 mm 0,2 km/h (0 Bft) W-SW 249 ° 0 min 0,000 mm 0,0 UV-I 0 W/m² -2,4 °C 1,6 km/h (1 Bft)
09.11.2016 00:13 -1,4 °C -1,4 °C 93 % 1012,7 hPa 0,0 mm 0,0 km/h (0 Bft) W-SW 249 ° 0 min 0,000 mm 0,0 UV-I 0 W/m² -2,4 °C 0,0 km/h (0 Bft)
09.11.2016 00:14 -1,4 °C -1,4 °C 93 % 1012,7 hPa 0,0 mm 1,1 km/h (1 Bft) W-SW 249 ° 0 min 0,000 mm 0,0 UV-I 0 W/m² -2,4 °C 1,6 km/h (1 Bft)
09.11.2016 00:15 -1,4 °C -1,4 °C 94 % 1012,7 hPa 0,0 mm 1,4 km/h (1 Bft) W-SW 249 ° 0 min 0,000 mm 0,0 UV-I 0 W/m² -2,2 °C 1,6 km/h (1 Bft)
09.11.2016 00:16 -1,4 °C -1,4 °C 94 % 1012,6 hPa 0,0 mm 2,3 km/h (1 Bft) W-SW 249 ° 0 min 0,000 mm 0,0 UV-I 0 W/m² -2,2 °C 3,2 km/h (1 Bft)
09.11.2016 00:17 -1,4 °C -1,4 °C 94 % 1012,6 hPa 0,0 mm 2,1 km/h (1 Bft) W-SW 249 ° 0 min 0,000 mm 0,0 UV-I 0 W/m² -2,2 °C 3,2 km/h (1 Bft)
09.11.2016 00:18 -1,4 °C -1,4 °C 94 % 1012,6 hPa 0,0 mm 2,6 km/h (1 Bft) W-SW 249 ° 0 min 0,000 mm 0,0 UV-I 0 W/m² -2,2 °C 4,8 km/h (1 Bft)
09.11.2016 00:19 -1,4 °C -1,4 °C 94 % 1012,6 hPa 0,0 mm 2,0 km/h (1 Bft) W-SW 249 ° 0 min 0,000 mm 0,0 UV-I 0 W/m² -2,2 °C 3,2 km/h (1 Bft)
09.11.2016 00:20 -1,4 °C -1,4 °C 94 % 1012,6 hPa 0,0 mm 1,8 km/h (1 Bft) W-SW 249 ° 0 min 0,000 mm 0,0 UV-I 0 W/m² -2,2 °C 3,2 km/h (1 Bft)
09.11.2016 00:21 -1,3 °C -1,3 °C 94 % 1012,7 hPa 0,0 mm 2,5 km/h (1 Bft) W-SW 249 ° 0 min 0,000 mm 0,0 UV-I 0 W/m² -2,1 °C 3,2 km/h (1 Bft)
09.11.2016 00:22 -1,4 °C -1,3 °C 94 % 1012,7 hPa 0,0 mm 1,7 km/h (1 Bft) W-SW 249 ° 0 min 0,000 mm 0,0 UV-I 0 W/m² -2,2 °C 3,2 km/h (1 Bft)
09.11.2016 00:23 -1,3 °C -1,3 °C 94 % 1012,6 hPa 0,0 mm 2,5 km/h (1 Bft) W-SW 249 ° 0 min 0,000 mm 0,0 UV-I 0 W/m² -2,1 °C 4,8 km/h (1 Bft)
09.11.2016 00:24 -1,3 °C -1,3 °C 94 % 1012,7 hPa 0,0 mm 1,3 km/h (1 Bft) W-SW 249 ° 0 min 0,000 mm 0,0 UV-I 0 W/m² -2,1 °C 3,2 km/h (1 Bft)
09.11.2016 00:25 -1,3 °C -1,3 °C 94 % 1012,7 hPa 0,0 mm 1,1 km/h (1 Bft) W-SW 249 ° 0 min 0,000 mm 0,0 UV-I 0 W/m² -2,1 °C 1,6 km/h (1 Bft)
09.11.2016 00:26 -1,3 °C -1,3 °C 94 % 1012,7 hPa 0,0 mm 0,9 km/h (0 Bft) W-SW 249 ° 0 min 0,000 mm 0,0 UV-I 0 W/m² -2,1 °C 1,6 km/h (1 Bft)
09.11.2016 00:27 -1,3 °C -1,3 °C 94 % 1012,7 hPa 0,0 mm 2,0 km/h (1 Bft) W-SW 249 ° 0 min 0,000 mm 0,0 UV-I 0 W/m² -2,1 °C 3,2 km/h (1 Bft)
09.11.2016 00:28 -1,3 °C -1,3 °C 94 % 1012,6 hPa 0,0 mm 2,7 km/h (1 Bft) W-SW 249 ° 0 min 0,000 mm 0,0 UV-I 0 W/m² -2,1 °C 3,2 km/h (1 Bft)
09.11.2016 00:29 -1,3 °C -1,3 °C 94 % 1012,6 hPa 0,0 mm 1,3 km/h (1 Bft) W-SW 249 ° 0 min 0,000 mm 0,0 UV-I 0 W/m² -2,1 °C 1,6 km/h (1 Bft)
09.11.2016 00:30 -1,3 °C -1,3 °C 94 % 1012,6 hPa 0,0 mm 3,1 km/h (1 Bft) W-SW 249 ° 0 min 0,000 mm 0,0 UV-I 0 W/m² -2,1 °C 4,8 km/h (1 Bft)
09.11.2016 00:31 -1,3 °C -1,2 °C 94 % 1012,6 hPa 0,0 mm 2,5 km/h (1 Bft) W-SW 249 ° 0 min 0,000 mm 0,0 UV-I 0 W/m² -2,1 °C 3,2 km/h (1 Bft)
09.11.2016 00:32 -1,3 °C -1,2 °C 94 % 1012,6 hPa 0,0 mm 1,2 km/h (1 Bft) W-SW 249 ° 0 min 0,000 mm 0,0 UV-I 0 W/m² -2,1 °C 3,2 km/h (1 Bft)
09.11.2016 00:33 -1,2 °C -1,2 °C 94 % 1012,6 hPa 0,0 mm 1,7 km/h (1 Bft) W-SW 249 ° 0 min 0,000 mm 0,0 UV-I 0 W/m² -2,0 °C 3,2 km/h (1 Bft)
09.11.2016 00:34 -1,2 °C -1,2 °C 94 % 1012,6 hPa 0,0 mm 1,7 km/h (1 Bft) W-SW 248 ° 0 min 0,000 mm 0,0 UV-I 0 W/m² -2,0 °C 4,8 km/h (1 Bft)
09.11.2016 00:35 -1,2 °C -1,2 °C 94 % 1012,6 hPa 0,0 mm 3,4 km/h (1 Bft) W-SW 242 ° 0 min 0,000 mm 0,0 UV-I 0 W/m² -2,0 °C 4,8 km/h (1 Bft)
09.11.2016 00:36 -1,2 °C -1,2 °C 94 % 1012,6 hPa 0,0 mm 1,6 km/h (1 Bft) W-SW 242 ° 0 min 0,000 mm 0,0 UV-I 0 W/m² -2,0 °C 3,2 km/h (1 Bft)
09.11.2016 00:37 -1,2 °C -1,2 °C 94 % 1012,6 hPa 0,0 mm 2,9 km/h (1 Bft) W-SW 246 ° 0 min 0,000 mm 0,0 UV-I 0 W/m² -2,0 °C 3,2 km/h (1 Bft)
09.11.2016 00:38 -1,2 °C -1,2 °C 94 % 1012,6 hPa 0,0 mm 0,7 km/h (0 Bft) W-SW 246 ° 0 min 0,000 mm 0,0 UV-I 0 W/m² -2,0 °C 1,6 km/h (1 Bft)
09.11.2016 00:39 -1,2 °C -1,2 °C 94 % 1012,6 hPa 0,0 mm 0,2 km/h (0 Bft) W-SW 246 ° 0 min 0,000 mm 0,0 UV-I 0 W/m² -2,0 °C 1,6 km/h (1 Bft)
09.11.2016 00:40 -1,2 °C -1,2 °C 94 % 1012,6 hPa 0,0 mm 4,2 km/h (1 Bft) W-SW 254 ° 0 min 0,000 mm 0,0 UV-I 0 W/m² -2,0 °C 6,4 km/h (2 Bft)
09.11.2016 00:41 -1,2 °C -1,2 °C 94 % 1012,6 hPa 0,0 mm 3,6 km/h (1 Bft) W-SW 247 ° 0 min 0,000 mm 0,0 UV-I 0 W/m² -2,0 °C 6,4 km/h (2 Bft)
09.11.2016 00:42 -1,2 °C -1,2 °C 94 % 1012,6 hPa 0,0 mm 4,1 km/h (1 Bft) W-SW 258 ° 0 min 0,000 mm 0,0 UV-I 0 W/m² -2,0 °C 6,4 km/h (2 Bft)
09.11.2016 00:43 -1,2 °C -1,2 °C 94 % 1012,6 hPa 0,0 mm 2,3 km/h (1 Bft) W-SW 257 ° 0 min 0,000 mm 0,0 UV-I 0 W/m² -2,0 °C 3,2 km/h (1 Bft)
09.11.2016 00:44 -1,1 °C -1,1 °C 94 % 1012,6 hPa 0,0 mm 3,1 km/h (1 Bft) W-SW 248 ° 0 min 0,000 mm 0,0 UV-I 0 W/m² -1,9 °C 4,8 km/h (1 Bft)
09.11.2016 00:45 -1,2 °C -1,1 °C 94 % 1012,6 hPa 0,0 mm 3,8 km/h (1 Bft) SW 217 ° 0 min 0,000 mm 0,0 UV-I 0 W/m² -2,0 °C 6,4 km/h (2 Bft)
09.11.2016 00:46 -1,2 °C -1,1 °C 94 % 1012,6 hPa 0,0 mm 3,2 km/h (1 Bft) S-SW 207 ° 0 min 0,000 mm 0,0 UV-I 0 W/m² -2,0 °C 4,8 km/h (1 Bft)
09.11.2016 00:47 -1,2 °C -1,1 °C 94 % 1012,6 hPa 0,0 mm 3,7 km/h (1 Bft) SW 230 ° 0 min 0,000 mm 0,0 UV-I 0 W/m² -2,0 °C 6,4 km/h (2 Bft)
09.11.2016 00:48 -1,2 °C -1,1 °C 94 % 1012,6 hPa 0,0 mm 5,8 km/h (2 Bft) SW 225 ° 0 min 0,000 mm 0,0 UV-I 0 W/m² -2,0 °C 9,7 km/h (2 Bft)
09.11.2016 00:49 -1,1 °C -1,1 °C 94 % 1012,6 hPa 0,0 mm 5,0 km/h (1 Bft) SW 217 ° 0 min 0,000 mm 0,0 UV-I 0 W/m² -1,9 °C 9,7 km/h (2 Bft)
09.11.2016 00:50 -1,2 °C -1,1 °C 94 % 1012,6 hPa 0,0 mm 4,1 km/h (1 Bft) S-SW 208 ° 0 min 0,000 mm 0,0 UV-I 0 W/m² -2,0 °C 4,8 km/h (1 Bft)
09.11.2016 00:51 -1,1 °C -1,1 °C 94 % 1012,6 hPa 0,0 mm 2,4 km/h (1 Bft) S-SW 208 ° 0 min 0,000 mm 0,0 UV-I 0 W/m² -1,9 °C 3,2 km/h (1 Bft)
09.11.2016 00:52 -1,2 °C -1,1 °C 94 % 1012,5 hPa 0,0 mm 1,9 km/h (1 Bft) S-SW 208 ° 0 min 0,000 mm 0,0 UV-I 0 W/m² -2,0 °C 3,2 km/h (1 Bft)
09.11.2016 00:53 -1,2 °C -1,1 °C 93 % 1012,5 hPa 0,0 mm 2,1 km/h (1 Bft) S-SW 208 ° 0 min 0,000 mm 0,0 UV-I 0 W/m² -2,2 °C 4,8 km/h (1 Bft)
09.11.2016 00:54 -1,2 °C -1,1 °C 93 % 1012,5 hPa 0,0 mm 1,7 km/h (1 Bft) S-SW 208 ° 0 min 0,000 mm 0,0 UV-I 0 W/m² -2,2 °C 4,8 km/h (1 Bft)
09.11.2016 00:55 -1,2 °C -1,2 °C 93 % 1012,5 hPa 0,0 mm 3,1 km/h (1 Bft) SW 223 ° 0 min 0,000 mm 0,0 UV-I 0 W/m² -2,2 °C 4,8 km/h (1 Bft)
09.11.2016 00:56 -1,2 °C -1,2 °C 93 % 1012,5 hPa 0,0 mm 2,4 km/h (1 Bft) SW 229 ° 0 min 0,000 mm 0,0 UV-I 0 W/m² -2,2 °C 3,2 km/h (1 Bft)
09.11.2016 00:57 -1,2 °C -1,2 °C 93 % 1012,5 hPa 0,0 mm 4,0 km/h (1 Bft) SW 214 ° 0 min 0,000 mm 0,0 UV-I 0 W/m² -2,2 °C 6,4 km/h (2 Bft)
09.11.2016 00:58 -1,2 °C -1,2 °C 93 % 1012,5 hPa 0,0 mm 2,8 km/h (1 Bft) SW 214 ° 0 min 0,000 mm 0,0 UV-I 0 W/m² -2,2 °C 3,2 km/h (1 Bft)
09.11.2016 00:59 -1,2 °C -1,2 °C 93 % 1012,4 hPa 0,0 mm 1,5 km/h (1 Bft) SW 214 ° 0 min 0,000 mm 0,0 UV-I 0 W/m² -2,2 °C 3,2 km/h (1 Bft)
09.11.2016 01:00 -1,2 °C -1,2 °C 93 % 1012,5 hPa 0,0 mm 1,7 km/h (1 Bft) SW 214 ° 0 min 0,000 mm 0,0 UV-I 0 W/m² -2,2 °C 3,2 km/h (1 Bft)
09.11.2016 01:01 -1,2 °C -1,2 °C 93 % 1012,4 hPa 0,0 mm 1,8 km/h (1 Bft) SW 214 ° 0 min 0,000 mm 0,0 UV-I 0 W/m² -2,2 °C 3,2 km/h (1 Bft)
09.11.2016 01:02 -1,2 °C -1,2 °C 93 % 1012,4 hPa 0,0 mm 3,1 km/h (1 Bft) W 274 ° 0 min 0,000 mm 0,0 UV-I 0 W/m² -2,2 °C 6,4 km/h (2 Bft)
09.11.2016 01:03 -1,2 °C -1,2 °C 93 % 1012,4 hPa 0,0 mm 4,1 km/h (1 Bft) W 261 ° 0 min 0,000 mm 0,0 UV-I 0 W/m² -2,2 °C 6,4 km/h (2 Bft)
09.11.2016 01:04 -1,2 °C -1,2 °C 93 % 1012,4 hPa 0,0 mm 3,6 km/h (1 Bft) W-NW 283 ° 0 min 0,000 mm 0,0 UV-I 0 W/m² -2,2 °C 4,8 km/h (1 Bft)
09.11.2016 01:05 -1,2 °C -1,2 °C 93 % 1012,4 hPa 0,0 mm 3,6 km/h (1 Bft) W 277 ° 0 min 0,000 mm 0,0 UV-I 0 W/m² -2,2 °C 6,4 km/h (2 Bft)
09.11.2016 01:06 -1,2 °C -1,2 °C 93 % 1012,4 hPa 0,0 mm 3,0 km/h (1 Bft) W 281 ° 0 min 0,000 mm 0,0 UV-I 0 W/m² -2,2 °C 4,8 km/h (1 Bft)
09.11.2016 01:07 -1,2 °C -1,2 °C 93 % 1012,4 hPa 0,0 mm 3,0 km/h (1 Bft) W 269 ° 0 min 0,000 mm 0,0 UV-I 0 W/m² -2,2 °C 4,8 km/h (1 Bft)
09.11.2016 01:08 -1,2 °C -1,2 °C 93 % 1012,4 hPa 0,0 mm 5,8 km/h (2 Bft) W-SW 250 ° 0 min 0,000 mm 0,0 UV-I 0 W/m² -2,2 °C 9,7 km/h (2 Bft)
09.11.2016 01:09 -1,2 °C -1,2 °C 93 % 1012,4 hPa 0,0 mm 3,8 km/h (1 Bft) SW 231 ° 0 min 0,000 mm 0,0 UV-I 0 W/m² -2,2 °C 6,4 km/h (2 Bft)
09.11.2016 01:10 -1,2 °C -1,2 °C 93 % 1012,4 hPa 0,0 mm 6,2 km/h (2 Bft) W-SW 258 ° 0 min 0,000 mm 0,0 UV-I 0 W/m² -2,2 °C 11,3 km/h (2 Bft)
09.11.2016 01:11 -1,2 °C -1,2 °C 93 % 1012,3 hPa 0,0 mm 3,3 km/h (1 Bft) SW 234 ° 0 min 0,000 mm 0,0 UV-I 0 W/m² -2,2 °C 6,4 km/h (2 Bft)
09.11.2016 01:12 -1,2 °C -1,2 °C 93 % 1012,3 hPa 0,0 mm 3,2 km/h (1 Bft) W-SW 242 ° 0 min 0,000 mm 0,0 UV-I 0 W/m² -2,2 °C 4,8 km/h (1 Bft)
09.11.2016 01:13 -1,2 °C -1,2 °C 93 % 1012,4 hPa 0,0 mm 3,8 km/h (1 Bft) W-SW 257 ° 0 min 0,000 mm 0,0 UV-I 0 W/m² -2,2 °C 4,8 km/h (1 Bft)
09.11.2016 01:14 -1,2 °C -1,2 °C 93 % 1012,3 hPa 0,0 mm 3,3 km/h (1 Bft) W-SW 257 ° 0 min 0,000 mm 0,0 UV-I 0 W/m² -2,2 °C 4,8 km/h (1 Bft)
09.11.2016 01:15 -1,2 °C -1,2 °C 93 % 1012,3 hPa 0,0 mm 2,3 km/h (1 Bft) W-SW 257 ° 0 min 0,000 mm 0,0 UV-I 0 W/m² -2,2 °C 3,2 km/h (1 Bft)
09.11.2016 01:16 -1,2 °C -1,2 °C 93 % 1012,3 hPa 0,0 mm 3,4 km/h (1 Bft) W-SW 254 ° 0 min 0,000 mm 0,0 UV-I 0 W/m² -2,2 °C 4,8 km/h (1 Bft)
09.11.2016 01:17 -1,3 °C -1,2 °C 93 % 1012,3 hPa 0,0 mm 2,3 km/h (1 Bft) W-SW 254 ° 0 min 0,000 mm 0,0 UV-I 0 W/m² -2,3 °C 3,2 km/h (1 Bft)
09.11.2016 01:18 -1,3 °C -1,2 °C 93 % 1012,3 hPa 0,0 mm 2,5 km/h (1 Bft) W-SW 251 ° 0 min 0,000 mm 0,0 UV-I 0 W/m² -2,3 °C 3,2 km/h (1 Bft)
09.11.2016 01:19 -1,3 °C -1,3 °C 93 % 1012,3 hPa 0,0 mm 3,0 km/h (1 Bft) W-SW 250 ° 0 min 0,000 mm 0,0 UV-I 0 W/m² -2,3 °C 4,8 km/h (1 Bft)
09.11.2016 01:20 -1,3 °C -1,3 °C 93 % 1012,3 hPa 0,0 mm 4,3 km/h (1 Bft) W-SW 245 ° 0 min 0,000 mm 0,0 UV-I 0 W/m² -2,3 °C 8,0 km/h (2 Bft)
09.11.2016 01:21 -1,3 °C -1,3 °C 93 % 1012,3 hPa 0,0 mm 2,7 km/h (1 Bft) W-SW 244 ° 0 min 0,000 mm 0,0 UV-I 0 W/m² -2,3 °C 3,2 km/h (1 Bft)
09.11.2016 01:22 -1,3 °C -1,3 °C 93 % 1012,2 hPa 0,0 mm 3,0 km/h (1 Bft) W-SW 251 ° 0 min 0,000 mm 0,0 UV-I 0 W/m² -2,3 °C 4,8 km/h (1 Bft)
09.11.2016 01:23 -1,3 °C -1,3 °C 93 % 1012,3 hPa 0,0 mm 8,6 km/h (2 Bft) SW 223 ° 0 min 0,000 mm 0,0 UV-I 0 W/m² -2,3 °C 12,9 km/h (3 Bft)
09.11.2016 01:24 -1,3 °C -1,3 °C 93 % 1012,2 hPa 0,0 mm 4,9 km/h (1 Bft) W-SW 244 ° 0 min 0,000 mm 0,0 UV-I 0 W/m² -2,3 °C 6,4 km/h (2 Bft)
09.11.2016 01:25 -1,4 °C -1,3 °C 93 % 1012,3 hPa 0,0 mm 5,4 km/h (1 Bft) W-SW 255 ° 0 min 0,000 mm 0,0 UV-I 0 W/m² -2,4 °C 8,0 km/h (2 Bft)
09.11.2016 01:26 -1,4 °C -1,4 °C 93 % 1012,3 hPa 0,0 mm 4,7 km/h (1 Bft) W-SW 248 ° 0 min 0,000 mm 0,0 UV-I 0 W/m² -2,4 °C 6,4 km/h (2 Bft)
09.11.2016 01:27 -1,4 °C -1,4 °C 93 % 1012,3 hPa 0,0 mm 3,8 km/h (1 Bft) W-SW 249 ° 0 min 0,000 mm 0,0 UV-I 0 W/m² -2,4 °C 4,8 km/h (1 Bft)
09.11.2016 01:28 -1,4 °C -1,4 °C 93 % 1012,3 hPa 0,0 mm 5,7 km/h (1 Bft) W 275 ° 0 min 0,000 mm 0,0 UV-I 0 W/m² -2,4 °C 11,3 km/h (2 Bft)
09.11.2016 01:29 -1,4 °C -1,4 °C 93 % 1012,3 hPa 0,0 mm 9,2 km/h (2 Bft) SW 232 ° 0 min 0,000 mm 0,0 UV-I 0 W/m² -2,4 °C 12,9 km/h (3 Bft)
09.11.2016 01:30 -1,4 °C -1,4 °C 93 % 1012,3 hPa 0,0 mm 5,2 km/h (1 Bft) W-SW 244 ° 0 min 0,000 mm 0,0 UV-I 0 W/m² -2,4 °C 6,4 km/h (2 Bft)
09.11.2016 01:31 -1,4 °C -1,4 °C 93 % 1012,3 hPa 0,0 mm 3,6 km/h (1 Bft) W 259 ° 0 min 0,000 mm 0,0 UV-I 0 W/m² -2,4 °C 6,4 km/h (2 Bft)
09.11.2016 01:32 -1,4 °C -1,4 °C 93 % 1012,3 hPa 0,0 mm 6,4 km/h (2 Bft) NW 309 ° 0 min 0,000 mm 0,0 UV-I 0 W/m² -2,4 °C 11,3 km/h (2 Bft)
09.11.2016 01:33 -1,4 °C -1,4 °C 93 % 1012,3 hPa 0,0 mm 5,5 km/h (1 Bft) W-SW 238 ° 0 min 0,000 mm 0,0 UV-I 0 W/m² -2,4 °C 11,3 km/h (2 Bft)
09.11.2016 01:34 -1,4 °C -1,4 °C 93 % 1012,3 hPa 0,0 mm 4,4 km/h (1 Bft) W-SW 244 ° 0 min 0,000 mm 0,0 UV-I 0 W/m² -2,4 °C 6,4 km/h (2 Bft)
09.11.2016 01:35 -1,4 °C -1,4 °C 93 % 1012,3 hPa 0,0 mm 7,0 km/h (2 Bft) SW 230 ° 0 min 0,000 mm 0,0 UV-I 0 W/m² -2,4 °C 11,3 km/h (2 Bft)
09.11.2016 01:36 -1,4 °C -1,4 °C 93 % 1012,3 hPa 0,0 mm 4,5 km/h (1 Bft) W-SW 238 ° 0 min 0,000 mm 0,0 UV-I 0 W/m² -2,4 °C 6,4 km/h (2 Bft)
09.11.2016 01:37 -1,4 °C -1,4 °C 93 % 1012,3 hPa 0,0 mm 3,7 km/h (1 Bft) S-SW 208 ° 0 min 0,000 mm 0,0 UV-I 0 W/m² -2,4 °C 6,4 km/h (2 Bft)
09.11.2016 01:38 -1,4 °C -1,4 °C 93 % 1012,3 hPa 0,0 mm 3,6 km/h (1 Bft) W-SW 237 ° 0 min 0,000 mm 0,0 UV-I 0 W/m² -2,4 °C 4,8 km/h (1 Bft)
09.11.2016 01:39 -1,4 °C -1,4 °C 93 % 1012,3 hPa 0,0 mm 3,1 km/h (1 Bft) W 261 ° 0 min 0,000 mm 0,0 UV-I 0 W/m² -2,4 °C 4,8 km/h (1 Bft)
09.11.2016 01:40 -1,4 °C -1,4 °C 93 % 1012,3 hPa 0,0 mm 4,0 km/h (1 Bft) S-SW 203 ° 0 min 0,000 mm 0,0 UV-I 0 W/m² -2,4 °C 4,8 km/h (1 Bft)
09.11.2016 01:41 -1,4 °C -1,4 °C 93 % 1012,3 hPa 0,0 mm 3,3 km/h (1 Bft) S-SW 207 ° 0 min 0,000 mm 0,0 UV-I 0 W/m² -2,4 °C 4,8 km/h (1 Bft)
09.11.2016 01:42 -1,4 °C -1,4 °C 93 % 1012,3 hPa 0,0 mm 2,8 km/h (1 Bft) SW 226 ° 0 min 0,000 mm 0,0 UV-I 0 W/m² -2,4 °C 4,8 km/h (1 Bft)
09.11.2016 01:43 -1,4 °C -1,4 °C 93 % 1012,2 hPa 0,0 mm 2,7 km/h (1 Bft) SW 221 ° 0 min 0,000 mm 0,0 UV-I 0 W/m² -2,4 °C 4,8 km/h (1 Bft)
09.11.2016 01:44 -1,4 °C -1,4 °C 93 % 1012,2 hPa 0,0 mm 3,8 km/h (1 Bft) W 260 ° 0 min 0,000 mm 0,0 UV-I 0 W/m² -2,4 °C 9,7 km/h (2 Bft)
09.11.2016 01:45 -1,4 °C -1,4 °C 93 % 1012,3 hPa 0,0 mm 5,0 km/h (1 Bft) SW 236 ° 0 min 0,000 mm 0,0 UV-I 0 W/m² -2,4 °C 9,7 km/h (2 Bft)
09.11.2016 01:46 -1,4 °C -1,4 °C 93 % 1012,2 hPa 0,0 mm 5,6 km/h (1 Bft) W 265 ° 0 min 0,000 mm 0,0 UV-I 0 W/m² -2,4 °C 6,4 km/h (2 Bft)
09.11.2016 01:47 -1,4 °C -1,4 °C 93 % 1012,3 hPa 0,0 mm 3,0 km/h (1 Bft) W-SW 255 ° 0 min 0,000 mm 0,0 UV-I 0 W/m² -2,4 °C 4,8 km/h (1 Bft)
09.11.2016 01:48 -1,4 °C -1,4 °C 92 % 1012,2 hPa 0,0 mm 3,3 km/h (1 Bft) W 267 ° 0 min 0,000 mm 0,0 UV-I 0 W/m² -2,5 °C 6,4 km/h (2 Bft)
09.11.2016 01:49 -1,4 °C -1,4 °C 93 % 1012,2 hPa 0,0 mm 3,3 km/h (1 Bft) SW 214 ° 0 min 0,000 mm 0,0 UV-I 0 W/m² -2,4 °C 4,8 km/h (1 Bft)
09.11.2016 01:50 -1,4 °C -1,4 °C 93 % 1012,2 hPa 0,0 mm 3,4 km/h (1 Bft) SW 229 ° 0 min 0,000 mm 0,0 UV-I 0 W/m² -2,4 °C 4,8 km/h (1 Bft)
09.11.2016 01:51 -1,4 °C -1,4 °C 93 % 1012,2 hPa 0,0 mm 4,8 km/h (1 Bft) W-SW 252 ° 0 min 0,000 mm 0,0 UV-I 0 W/m² -2,4 °C 9,7 km/h (2 Bft)
09.11.2016 01:52 -1,4 °C -1,4 °C 92 % 1012,2 hPa 0,0 mm 8,5 km/h (2 Bft) SW 234 ° 0 min 0,000 mm 0,0 UV-I 0 W/m² -2,5 °C 12,9 km/h (3 Bft)
09.11.2016 01:53 -1,4 °C -1,4 °C 92 % 1012,2 hPa 0,0 mm 5,2 km/h (1 Bft) W 263 ° 0 min 0,000 mm 0,0 UV-I 0 W/m² -2,5 °C 8,0 km/h (2 Bft)
09.11.2016 01:54 -1,4 °C -1,4 °C 92 % 1012,2 hPa 0,0 mm 3,5 km/h (1 Bft) W-SW 248 ° 0 min 0,000 mm 0,0 UV-I 0 W/m² -2,5 °C 4,8 km/h (1 Bft)
09.11.2016 01:55 -1,4 °C -1,4 °C 92 % 1012,2 hPa 0,0 mm 3,5 km/h (1 Bft) S-SW 205 ° 0 min 0,000 mm 0,0 UV-I 0 W/m² -2,5 °C 4,8 km/h (1 Bft)
09.11.2016 01:56 -1,4 °C -1,4 °C 92 % 1012,2 hPa 0,0 mm 2,5 km/h (1 Bft) SW 236 ° 0 min 0,000 mm 0,0 UV-I 0 W/m² -2,5 °C 4,8 km/h (1 Bft)
09.11.2016 01:57 -1,4 °C -1,4 °C 92 % 1012,2 hPa 0,0 mm 2,7 km/h (1 Bft) SW 236 ° 0 min 0,000 mm 0,0 UV-I 0 W/m² -2,5 °C 4,8 km/h (1 Bft)
09.11.2016 01:58 -1,4 °C -1,4 °C 92 % 1012,2 hPa 0,0 mm 8,0 km/h (2 Bft) W-SW 246 ° 0 min 0,000 mm 0,0 UV-I 0 W/m² -2,5 °C 12,9 km/h (3 Bft)
09.11.2016 01:59 -1,4 °C -1,4 °C 92 % 1012,2 hPa 0,0 mm 8,6 km/h (2 Bft) S-SW 197 ° 0 min 0,000 mm 0,0 UV-I 0 W/m² -2,5 °C 12,9 km/h (3 Bft)
09.11.2016 02:00 -1,4 °C -1,4 °C 92 % 1012,2 hPa 0,0 mm 4,0 km/h (1 Bft) S 189 ° 0 min 0,000 mm 0,0 UV-I 0 W/m² -2,5 °C 6,4 km/h (2 Bft)
09.11.2016 02:01 -1,4 °C -1,4 °C 92 % 1012,2 hPa 0,0 mm 4,0 km/h (1 Bft) S 184 ° 0 min 0,000 mm 0,0 UV-I 0 W/m² -2,5 °C 6,4 km/h (2 Bft)
09.11.2016 02:02 -1,4 °C -1,4 °C 92 % 1012,2 hPa 0,0 mm 2,9 km/h (1 Bft) S-SW 212 ° 0 min 0,000 mm 0,0 UV-I 0 W/m² -2,5 °C 4,8 km/h (1 Bft)
09.11.2016 02:03 -1,4 °C -1,4 °C 92 % 1012,2 hPa 0,0 mm 5,7 km/h (1 Bft) S-SW 193 ° 0 min 0,000 mm 0,0 UV-I 0 W/m² -2,5 °C 8,0 km/h (2 Bft)
09.11.2016 02:04 -1,4 °C -1,4 °C 92 % 1012,2 hPa 0,0 mm 6,6 km/h (2 Bft) S-SW 194 ° 0 min 0,000 mm 0,0 UV-I 0 W/m² -2,5 °C 9,7 km/h (2 Bft)
09.11.2016 02:05 -1,4 °C -1,4 °C 92 % 1012,2 hPa 0,0 mm 4,4 km/h (1 Bft) S-SW 197 ° 0 min 0,000 mm 0,0 UV-I 0 W/m² -2,5 °C 6,4 km/h (2 Bft)
09.11.2016 02:06 -1,4 °C -1,4 °C 92 % 1012,2 hPa 0,0 mm 4,1 km/h (1 Bft) S-SW 204 ° 0 min 0,000 mm 0,0 UV-I 0 W/m² -2,5 °C 8,0 km/h (2 Bft)
09.11.2016 02:07 -1,4 °C -1,3 °C 92 % 1012,2 hPa 0,0 mm 5,0 km/h (1 Bft) SW 229 ° 0 min 0,000 mm 0,0 UV-I 0 W/m² -2,5 °C 8,0 km/h (2 Bft)
09.11.2016 02:08 -1,4 °C -1,4 °C 92 % 1012,2 hPa 0,0 mm 3,4 km/h (1 Bft) SW 231 ° 0 min 0,000 mm 0,0 UV-I 0 W/m² -2,5 °C 4,8 km/h (1 Bft)
09.11.2016 02:09 -1,4 °C -1,4 °C 92 % 1012,2 hPa 0,0 mm 5,8 km/h (2 Bft) S-SW 204 ° 0 min 0,000 mm 0,0 UV-I 0 W/m² -2,5 °C 9,7 km/h (2 Bft)
09.11.2016 02:10 -1,3 °C -1,3 °C 92 % 1012,2 hPa 0,0 mm 3,8 km/h (1 Bft) S-SW 203 ° 0 min 0,000 mm 0,0 UV-I 0 W/m² -2,4 °C 8,0 km/h (2 Bft)
09.11.2016 02:11 -1,3 °C -1,3 °C 92 % 1012,2 hPa 0,0 mm 2,6 km/h (1 Bft) S-SW 202 ° 0 min 0,000 mm 0,0 UV-I 0 W/m² -2,4 °C 4,8 km/h (1 Bft)
09.11.2016 02:12 -1,4 °C -1,3 °C 92 % 1012,2 hPa 0,0 mm 3,6 km/h (1 Bft) SW 222 ° 0 min 0,000 mm 0,0 UV-I 0 W/m² -2,5 °C 4,8 km/h (1 Bft)
09.11.2016 02:13 -1,3 °C -1,3 °C 92 % 1012,1 hPa 0,0 mm 4,1 km/h (1 Bft) S-SW 204 ° 0 min 0,000 mm 0,0 UV-I 0 W/m² -2,4 °C 8,0 km/h (2 Bft)
09.11.2016 02:14 -1,3 °C -1,3 °C 92 % 1012,2 hPa 0,0 mm 4,4 km/h (1 Bft) W-SW 247 ° 0 min 0,000 mm 0,0 UV-I 0 W/m² -2,4 °C 6,4 km/h (2 Bft)
09.11.2016 02:15 -1,4 °C -1,3 °C 91 % 1012,1 hPa 0,0 mm 2,2 km/h (1 Bft) W-SW 247 ° 0 min 0,000 mm 0,0 UV-I 0 W/m² -2,7 °C 3,2 km/h (1 Bft)
09.11.2016 02:16 -1,4 °C -1,3 °C 91 % 1012,1 hPa 0,0 mm 2,4 km/h (1 Bft) SW 234 ° 0 min 0,000 mm 0,0 UV-I 0 W/m² -2,7 °C 4,8 km/h (1 Bft)
09.11.2016 02:17 -1,4 °C -1,4 °C 91 % 1012,2 hPa 0,0 mm 4,3 km/h (1 Bft) SW 223 ° 0 min 0,000 mm 0,0 UV-I 0 W/m² -2,7 °C 6,4 km/h (2 Bft)
09.11.2016 02:18 -1,4 °C -1,4 °C 91 % 1012,1 hPa 0,0 mm 3,3 km/h (1 Bft) S-SW 197 ° 0 min 0,000 mm 0,0 UV-I 0 W/m² -2,7 °C 6,4 km/h (2 Bft)
09.11.2016 02:19 -1,4 °C -1,4 °C 91 % 1012,1 hPa 0,0 mm 2,7 km/h (1 Bft) S-SW 201 ° 0 min 0,000 mm 0,0 UV-I 0 W/m² -2,7 °C 4,8 km/h (1 Bft)
09.11.2016 02:20 -1,4 °C -1,4 °C 91 % 1012,1 hPa 0,0 mm 5,7 km/h (1 Bft) W-SW 254 ° 0 min 0,000 mm 0,0 UV-I 0 W/m² -2,7 °C 9,7 km/h (2 Bft)
09.11.2016 02:21 -1,4 °C -1,4 °C 91 % 1012,1 hPa 0,0 mm 4,6 km/h (1 Bft) W-SW 254 ° 0 min 0,000 mm 0,0 UV-I 0 W/m² -2,7 °C 6,4 km/h (2 Bft)
09.11.2016 02:22 -1,4 °C -1,4 °C 91 % 1012,1 hPa 0,0 mm 4,9 km/h (1 Bft) W-SW 242 ° 0 min 0,000 mm 0,0 UV-I 0 W/m² -2,7 °C 6,4 km/h (2 Bft)
09.11.2016 02:23 -1,4 °C -1,4 °C 91 % 1012,1 hPa 0,0 mm 3,6 km/h (1 Bft) SW 214 ° 0 min 0,000 mm 0,0 UV-I 0 W/m² -2,7 °C 6,4 km/h (2 Bft)
09.11.2016 02:24 -1,4 °C -1,4 °C 91 % 1012,1 hPa 0,0 mm 1,9 km/h (1 Bft) SW 222 ° 0 min 0,000 mm 0,0 UV-I 0 W/m² -2,7 °C 3,2 km/h (1 Bft)
09.11.2016 02:25 -1,4 °C -1,4 °C 91 % 1012,1 hPa 0,0 mm 2,5 km/h (1 Bft) SW 222 ° 0 min 0,000 mm 0,0 UV-I 0 W/m² -2,7 °C 4,8 km/h (1 Bft)
09.11.2016 02:26 -1,4 °C -1,4 °C 91 % 1012,1 hPa 0,0 mm 2,9 km/h (1 Bft) W-SW 244 ° 0 min 0,000 mm 0,0 UV-I 0 W/m² -2,7 °C 4,8 km/h (1 Bft)
09.11.2016 02:27 -1,4 °C -1,4 °C 91 % 1012,1 hPa 0,0 mm 4,2 km/h (1 Bft) S 191 ° 0 min 0,000 mm 0,0 UV-I 0 W/m² -2,7 °C 8,0 km/h (2 Bft)
09.11.2016 02:28 -1,4 °C -1,4 °C 91 % 1012,1 hPa 0,0 mm 4,6 km/h (1 Bft) S-SW 205 ° 0 min 0,000 mm 0,0 UV-I 0 W/m² -2,7 °C 8,0 km/h (2 Bft)
09.11.2016 02:29 -1,5 °C -1,4 °C 91 % 1012,1 hPa 0,0 mm 3,8 km/h (1 Bft) S-SW 192 ° 0 min 0,000 mm 0,0 UV-I 0 W/m² -2,8 °C 6,4 km/h (2 Bft)
09.11.2016 02:30 -1,4 °C -1,4 °C 91 % 1012,1 hPa 0,0 mm 4,2 km/h (1 Bft) SW 234 ° 0 min 0,000 mm 0,0 UV-I 0 W/m² -2,7 °C 4,8 km/h (1 Bft)
09.11.2016 02:31 -1,4 °C -1,4 °C 90 % 1012,1 hPa 0,0 mm 4,0 km/h (1 Bft) S-SW 209 ° 0 min 0,000 mm 0,0 UV-I 0 W/m² -2,8 °C 6,4 km/h (2 Bft)
09.11.2016 02:32 -1,5 °C -1,4 °C 90 % 1012,1 hPa 0,0 mm 3,4 km/h (1 Bft) S 190 ° 0 min 0,000 mm 0,0 UV-I 0 W/m² -2,9 °C 4,8 km/h (1 Bft)
09.11.2016 02:33 -1,4 °C -1,4 °C 90 % 1012,1 hPa 0,0 mm 3,0 km/h (1 Bft) S-SW 206 ° 0 min 0,000 mm 0,0 UV-I 0 W/m² -2,8 °C 4,8 km/h (1 Bft)
09.11.2016 02:34 -1,5 °C -1,4 °C 90 % 1012,1 hPa 0,0 mm 2,1 km/h (1 Bft) S-SW 194 ° 0 min 0,000 mm 0,0 UV-I 0 W/m² -2,9 °C 3,2 km/h (1 Bft)
09.11.2016 02:35 -1,5 °C -1,5 °C 90 % 1012,0 hPa 0,0 mm 3,3 km/h (1 Bft) S-SW 199 ° 0 min 0,000 mm 0,0 UV-I 0 W/m² -2,9 °C 4,8 km/h (1 Bft)
09.11.2016 02:36 -1,5 °C -1,5 °C 90 % 1012,1 hPa 0,0 mm 3,4 km/h (1 Bft) S-SW 196 ° 0 min 0,000 mm 0,0 UV-I 0 W/m² -2,9 °C 4,8 km/h (1 Bft)
09.11.2016 02:37 -1,5 °C -1,5 °C 90 % 1012,0 hPa 0,0 mm 3,4 km/h (1 Bft) S-SW 196 ° 0 min 0,000 mm 0,0 UV-I 0 W/m² -2,9 °C 4,8 km/h (1 Bft)
09.11.2016 02:38 -1,5 °C -1,5 °C 90 % 1012,0 hPa 0,0 mm 3,9 km/h (1 Bft) S-SW 193 ° 0 min 0,000 mm 0,0 UV-I 0 W/m² -2,9 °C 4,8 km/h (1 Bft)
09.11.2016 02:39 -1,5 °C -1,5 °C 90 % 1012,0 hPa 0,0 mm 3,2 km/h (1 Bft) S-SW 207 ° 0 min 0,000 mm 0,0 UV-I 0 W/m² -2,9 °C 4,8 km/h (1 Bft)
09.11.2016 02:40 -1,5 °C -1,5 °C 90 % 1012,0 hPa 0,0 mm 2,7 km/h (1 Bft) S-SW 208 ° 0 min 0,000 mm 0,0 UV-I 0 W/m² -2,9 °C 3,2 km/h (1 Bft)
09.11.2016 02:41 -1,6 °C -1,5 °C 90 % 1012,0 hPa 0,0 mm 2,7 km/h (1 Bft) S-SW 208 ° 0 min 0,000 mm 0,0 UV-I 0 W/m² -3,0 °C 4,8 km/h (1 Bft)
09.11.2016 02:42 -1,5 °C -1,5 °C 90 % 1012,1 hPa 0,0 mm 2,0 km/h (1 Bft) S-SW 208 ° 0 min 0,000 mm 0,0 UV-I 0 W/m² -2,9 °C 3,2 km/h (1 Bft)
09.11.2016 02:43 -1,6 °C -1,5 °C 90 % 1012,1 hPa 0,0 mm 2,9 km/h (1 Bft) S-SW 209 ° 0 min 0,000 mm 0,0 UV-I 0 W/m² -3,0 °C 4,8 km/h (1 Bft)
09.11.2016 02:44 -1,6 °C -1,6 °C 90 % 1012,0 hPa 0,0 mm 1,9 km/h (1 Bft) S-SW 195 ° 0 min 0,000 mm 0,0 UV-I 0 W/m² -3,0 °C 4,8 km/h (1 Bft)
09.11.2016 02:45 -1,6 °C -1,6 °C 90 % 1012,0 hPa 0,0 mm 1,5 km/h (1 Bft) S-SW 195 ° 0 min 0,000 mm 0,0 UV-I 0 W/m² -3,0 °C 3,2 km/h (1 Bft)
09.11.2016 02:46 -1,6 °C -1,6 °C 90 % 1012,0 hPa 0,0 mm 1,6 km/h (1 Bft) S-SW 195 ° 0 min 0,000 mm 0,0 UV-I 0 W/m² -3,0 °C 1,6 km/h (1 Bft)
09.11.2016 02:47 -1,6 °C -1,6 °C 90 % 1012,0 hPa 0,0 mm 2,7 km/h (1 Bft) S 189 ° 0 min 0,000 mm 0,0 UV-I 0 W/m² -3,0 °C 4,8 km/h (1 Bft)
09.11.2016 02:48 -1,6 °C -1,6 °C 90 % 1012,0 hPa 0,0 mm 3,2 km/h (1 Bft) S 185 ° 0 min 0,000 mm 0,0 UV-I 0 W/m² -3,0 °C 6,4 km/h (2 Bft)
09.11.2016 02:49 -1,6 °C -1,6 °C 90 % 1012,0 hPa 0,0 mm 4,4 km/h (1 Bft) S 189 ° 0 min 0,000 mm 0,0 UV-I 0 W/m² -3,0 °C 6,4 km/h (2 Bft)
09.11.2016 02:50 -1,6 °C -1,6 °C 90 % 1012,0 hPa 0,0 mm 4,4 km/h (1 Bft) S 189 ° 0 min 0,000 mm 0,0 UV-I 0 W/m² -3,0 °C 6,4 km/h (2 Bft)
09.11.2016 02:51 -1,6 °C -1,6 °C 90 % 1012,1 hPa 0,0 mm 3,2 km/h (1 Bft) S 187 ° 0 min 0,000 mm 0,0 UV-I 0 W/m² -3,0 °C 4,8 km/h (1 Bft)
09.11.2016 02:52 -1,6 °C -1,6 °C 90 % 1012,0 hPa 0,0 mm 2,5 km/h (1 Bft) S 187 ° 0 min 0,000 mm 0,0 UV-I 0 W/m² -3,0 °C 3,2 km/h (1 Bft)
09.11.2016 02:53 -1,6 °C -1,6 °C 90 % 1012,0 hPa 0,0 mm 3,1 km/h (1 Bft) S 187 ° 0 min 0,000 mm 0,0 UV-I 0 W/m² -3,0 °C 4,8 km/h (1 Bft)
09.11.2016 02:54 -1,6 °C -1,6 °C 90 % 1012,0 hPa 0,0 mm 1,2 km/h (1 Bft) S 187 ° 0 min 0,000 mm 0,0 UV-I 0 W/m² -3,0 °C 3,2 km/h (1 Bft)
09.11.2016 02:55 -1,6 °C -1,6 °C 90 % 1011,9 hPa 0,0 mm 1,9 km/h (1 Bft) S 186 ° 0 min 0,000 mm 0,0 UV-I 0 W/m² -3,0 °C 3,2 km/h (1 Bft)
09.11.2016 02:56 -1,6 °C -1,6 °C 90 % 1011,9 hPa 0,0 mm 4,9 km/h (1 Bft) W-SW 238 ° 0 min 0,000 mm 0,0 UV-I 0 W/m² -3,0 °C 6,4 km/h (2 Bft)
09.11.2016 02:57 -1,6 °C -1,6 °C 90 % 1011,9 hPa 0,0 mm 5,1 km/h (1 Bft) SW 220 ° 0 min 0,000 mm 0,0 UV-I 0 W/m² -3,0 °C 8,0 km/h (2 Bft)
09.11.2016 02:58 -1,6 °C -1,6 °C 90 % 1011,9 hPa 0,0 mm 3,0 km/h (1 Bft) S-SW 211 ° 0 min 0,000 mm 0,0 UV-I 0 W/m² -3,0 °C 4,8 km/h (1 Bft)
09.11.2016 02:59 -1,6 °C -1,6 °C 90 % 1011,9 hPa 0,0 mm 2,5 km/h (1 Bft) S-SW 211 ° 0 min 0,000 mm 0,0 UV-I 0 W/m² -3,0 °C 3,2 km/h (1 Bft)
09.11.2016 03:00 -1,6 °C -1,6 °C 90 % 1011,8 hPa 0,0 mm 3,5 km/h (1 Bft) SW 221 ° 0 min 0,000 mm 0,0 UV-I 0 W/m² -3,0 °C 4,8 km/h (1 Bft)
09.11.2016 03:01 -1,7 °C -1,6 °C 90 % 1011,8 hPa 0,0 mm 2,7 km/h (1 Bft) SW 220 ° 0 min 0,000 mm 0,0 UV-I 0 W/m² -3,1 °C 3,2 km/h (1 Bft)
09.11.2016 03:02 -1,6 °C -1,6 °C 90 % 1011,8 hPa 0,0 mm 3,7 km/h (1 Bft) SW 221 ° 0 min 0,000 mm 0,0 UV-I 0 W/m² -3,0 °C 6,4 km/h (2 Bft)
09.11.2016 03:03 -1,6 °C -1,6 °C 90 % 1011,8 hPa 0,0 mm 2,6 km/h (1 Bft) SW 219 ° 0 min 0,000 mm 0,0 UV-I 0 W/m² -3,0 °C 4,8 km/h (1 Bft)
09.11.2016 03:04 -1,6 °C -1,6 °C 90 % 1011,8 hPa 0,0 mm 3,0 km/h (1 Bft) S-SW 205 ° 0 min 0,000 mm 0,0 UV-I 0 W/m² -3,0 °C 4,8 km/h (1 Bft)
09.11.2016 03:05 -1,6 °C -1,6 °C 90 % 1011,8 hPa 0,0 mm 2,8 km/h (1 Bft) S 188 ° 0 min 0,000 mm 0,0 UV-I 0 W/m² -3,0 °C 6,4 km/h (2 Bft)
09.11.2016 03:06 -1,6 °C -1,6 °C 90 % 1011,7 hPa 0,0 mm 3,8 km/h (1 Bft) S 189 ° 0 min 0,000 mm 0,0 UV-I 0 W/m² -3,0 °C 4,8 km/h (1 Bft)
09.11.2016 03:07 -1,6 °C -1,6 °C 90 % 1011,8 hPa 0,0 mm 3,9 km/h (1 Bft) S 169 ° 0 min 0,000 mm 0,0 UV-I 0 W/m² -3,0 °C 6,4 km/h (2 Bft)
09.11.2016 03:08 -1,6 °C -1,6 °C 90 % 1011,8 hPa 0,0 mm 1,5 km/h (1 Bft) S 180 ° 0 min 0,000 mm 0,0 UV-I 0 W/m² -3,0 °C 3,2 km/h (1 Bft)
09.11.2016 03:09 -1,6 °C -1,6 °C 90 % 1011,7 hPa 0,0 mm 1,7 km/h (1 Bft) S 180 ° 0 min 0,000 mm 0,0 UV-I 0 W/m² -3,0 °C 3,2 km/h (1 Bft)
09.11.2016 03:10 -1,6 °C -1,6 °C 90 % 1011,7 hPa 0,0 mm 0,5 km/h (0 Bft) S 180 ° 0 min 0,000 mm 0,0 UV-I 0 W/m² -3,0 °C 1,6 km/h (1 Bft)
09.11.2016 03:11 -1,6 °C -1,6 °C 90 % 1011,7 hPa 0,0 mm 2,1 km/h (1 Bft) S 180 ° 0 min 0,000 mm 0,0 UV-I 0 W/m² -3,0 °C 4,8 km/h (1 Bft)
09.11.2016 03:12 -1,6 °C -1,6 °C 90 % 1011,8 hPa 0,0 mm 2,2 km/h (1 Bft) S 180 ° 0 min 0,000 mm 0,0 UV-I 0 W/m² -3,0 °C 3,2 km/h (1 Bft)
09.11.2016 03:13 -1,6 °C -1,6 °C 90 % 1011,7 hPa 0,0 mm 2,9 km/h (1 Bft) S 180 ° 0 min 0,000 mm 0,0 UV-I 0 W/m² -3,0 °C 4,8 km/h (1 Bft)
09.11.2016 03:14 -1,6 °C -1,6 °C 90 % 1011,6 hPa 0,0 mm 2,8 km/h (1 Bft) S-SW 210 ° 0 min 0,000 mm 0,0 UV-I 0 W/m² -3,0 °C 4,8 km/h (1 Bft)
09.11.2016 03:15 -1,6 °C -1,6 °C 90 % 1011,6 hPa 0,0 mm 2,5 km/h (1 Bft) S-SW 212 ° 0 min 0,000 mm 0,0 UV-I 0 W/m² -3,0 °C 4,8 km/h (1 Bft)
09.11.2016 03:16 -1,6 °C -1,6 °C 90 % 1011,6 hPa 0,0 mm 3,5 km/h (1 Bft) S 179 ° 0 min 0,000 mm 0,0 UV-I 0 W/m² -3,0 °C 4,8 km/h (1 Bft)
09.11.2016 03:17 -1,6 °C -1,6 °C 90 % 1011,6 hPa 0,0 mm 3,8 km/h (1 Bft) W-SW 250 ° 0 min 0,000 mm 0,0 UV-I 0 W/m² -3,0 °C 6,4 km/h (2 Bft)
09.11.2016 03:18 -1,6 °C -1,6 °C 90 % 1011,6 hPa 0,0 mm 1,5 km/h (1 Bft) W-SW 250 ° 0 min 0,000 mm 0,0 UV-I 0 W/m² -3,0 °C 3,2 km/h (1 Bft)
09.11.2016 03:19 -1,6 °C -1,6 °C 90 % 1011,6 hPa 0,0 mm 5,7 km/h (1 Bft) W-SW 244 ° 0 min 0,000 mm 0,0 UV-I 0 W/m² -3,0 °C 8,0 km/h (2 Bft)
09.11.2016 03:20 -1,6 °C -1,6 °C 90 % 1011,5 hPa 0,0 mm 2,5 km/h (1 Bft) W-SW 244 ° 0 min 0,000 mm 0,0 UV-I 0 W/m² -3,0 °C 4,8 km/h (1 Bft)
09.11.2016 03:21 -1,6 °C -1,6 °C 90 % 1011,5 hPa 0,0 mm 3,2 km/h (1 Bft) S-SW 199 ° 0 min 0,000 mm 0,0 UV-I 0 W/m² -3,0 °C 4,8 km/h (1 Bft)
09.11.2016 03:22 -1,6 °C -1,6 °C 90 % 1011,5 hPa 0,0 mm 0,9 km/h (0 Bft) S-SW 202 ° 0 min 0,000 mm 0,0 UV-I 0 W/m² -3,0 °C 1,6 km/h (1 Bft)
09.11.2016 03:23 -1,6 °C -1,6 °C 90 % 1011,5 hPa 0,0 mm 1,5 km/h (1 Bft) S-SW 205 ° 0 min 0,000 mm 0,0 UV-I 0 W/m² -3,0 °C 3,2 km/h (1 Bft)
09.11.2016 03:24 -1,6 °C -1,6 °C 90 % 1011,5 hPa 0,0 mm 3,2 km/h (1 Bft) SW 235 ° 0 min 0,000 mm 0,0 UV-I 0 W/m² -3,0 °C 4,8 km/h (1 Bft)
09.11.2016 03:25 -1,6 °C -1,6 °C 90 % 1011,5 hPa 0,0 mm 2,1 km/h (1 Bft) W-SW 252 ° 0 min 0,000 mm 0,0 UV-I 0 W/m² -3,0 °C 4,8 km/h (1 Bft)
09.11.2016 03:26 -1,6 °C -1,6 °C 90 % 1011,5 hPa 0,0 mm 3,6 km/h (1 Bft) S-SW 199 ° 0 min 0,000 mm 0,0 UV-I 0 W/m² -3,0 °C 4,8 km/h (1 Bft)
09.11.2016 03:27 -1,6 °C -1,6 °C 90 % 1011,5 hPa 0,0 mm 3,2 km/h (1 Bft) SW 225 ° 0 min 0,000 mm 0,0 UV-I 0 W/m² -3,0 °C 8,0 km/h (2 Bft)
09.11.2016 03:28 -1,6 °C -1,6 °C 90 % 1011,4 hPa 0,0 mm 5,3 km/h (1 Bft) SW 221 ° 0 min 0,000 mm 0,0 UV-I 0 W/m² -3,0 °C 9,7 km/h (2 Bft)
09.11.2016 03:29 -1,6 °C -1,6 °C 90 % 1011,4 hPa 0,0 mm 2,9 km/h (1 Bft) S-SW 201 ° 0 min 0,000 mm 0,0 UV-I 0 W/m² -3,0 °C 4,8 km/h (1 Bft)
09.11.2016 03:30 -1,6 °C -1,6 °C 90 % 1011,5 hPa 0,0 mm 5,5 km/h (1 Bft) W-SW 250 ° 0 min 0,000 mm 0,0 UV-I 0 W/m² -3,0 °C 8,0 km/h (2 Bft)
09.11.2016 03:31 -1,6 °C -1,6 °C 90 % 1011,4 hPa 0,0 mm 3,8 km/h (1 Bft) SW 235 ° 0 min 0,000 mm 0,0 UV-I 0 W/m² -3,0 °C 6,4 km/h (2 Bft)
09.11.2016 03:32 -1,6 °C -1,5 °C 90 % 1011,4 hPa 0,0 mm 3,5 km/h (1 Bft) W-SW 238 ° 0 min 0,000 mm 0,0 UV-I 0 W/m² -3,0 °C 6,4 km/h (2 Bft)
09.11.2016 03:33 -1,6 °C -1,5 °C 90 % 1011,4 hPa 0,0 mm 1,8 km/h (1 Bft) W-SW 239 ° 0 min 0,000 mm 0,0 UV-I 0 W/m² -3,0 °C 3,2 km/h (1 Bft)
09.11.2016 03:34 -1,5 °C -1,5 °C 90 % 1011,5 hPa 0,0 mm 0,8 km/h (0 Bft) W-SW 239 ° 0 min 0,000 mm 0,0 UV-I 0 W/m² -2,9 °C 3,2 km/h (1 Bft)
09.11.2016 03:35 -1,5 °C -1,5 °C 90 % 1011,5 hPa 0,0 mm 3,1 km/h (1 Bft) SW 229 ° 0 min 0,000 mm 0,0 UV-I 0 W/m² -2,9 °C 4,8 km/h (1 Bft)
09.11.2016 03:36 -1,5 °C -1,5 °C 89 % 1011,4 hPa 0,0 mm 3,4 km/h (1 Bft) SW 229 ° 0 min 0,000 mm 0,0 UV-I 0 W/m² -3,1 °C 4,8 km/h (1 Bft)
09.11.2016 03:37 -1,5 °C -1,4 °C 89 % 1011,4 hPa 0,0 mm 3,0 km/h (1 Bft) S-SW 212 ° 0 min 0,000 mm 0,0 UV-I 0 W/m² -3,1 °C 6,4 km/h (2 Bft)
09.11.2016 03:38 -1,4 °C -1,4 °C 89 % 1011,4 hPa 0,0 mm 2,0 km/h (1 Bft) S-SW 194 ° 0 min 0,000 mm 0,0 UV-I 0 W/m² -3,0 °C 3,2 km/h (1 Bft)
09.11.2016 03:39 -1,5 °C -1,4 °C 90 % 1011,4 hPa 0,0 mm 4,0 km/h (1 Bft) S-SW 205 ° 0 min 0,000 mm 0,0 UV-I 0 W/m² -2,9 °C 6,4 km/h (2 Bft)
09.11.2016 03:40 -1,4 °C -1,4 °C 89 % 1011,4 hPa 0,0 mm 2,1 km/h (1 Bft) S-SW 205 ° 0 min 0,000 mm 0,0 UV-I 0 W/m² -3,0 °C 3,2 km/h (1 Bft)
09.11.2016 03:41 -1,4 °C -1,4 °C 90 % 1011,4 hPa 0,0 mm 3,4 km/h (1 Bft) S-SW 212 ° 0 min 0,000 mm 0,0 UV-I 0 W/m² -2,8 °C 4,8 km/h (1 Bft)
09.11.2016 03:42 -1,4 °C -1,4 °C 90 % 1011,3 hPa 0,0 mm 3,1 km/h (1 Bft) S-SW 212 ° 0 min 0,000 mm 0,0 UV-I 0 W/m² -2,8 °C 4,8 km/h (1 Bft)
09.11.2016 03:43 -1,4 °C -1,4 °C 90 % 1011,4 hPa 0,0 mm 1,1 km/h (1 Bft) S-SW 212 ° 0 min 0,000 mm 0,0 UV-I 0 W/m² -2,8 °C 3,2 km/h (1 Bft)
09.11.2016 03:44 -1,4 °C -1,4 °C 89 % 1011,4 hPa 0,0 mm 0,6 km/h (0 Bft) S-SW 212 ° 0 min 0,000 mm 0,0 UV-I 0 W/m² -3,0 °C 1,6 km/h (1 Bft)
09.11.2016 03:45 -1,4 °C -1,4 °C 89 % 1011,4 hPa 0,0 mm 1,7 km/h (1 Bft) S-SW 213 ° 0 min 0,000 mm 0,0 UV-I 0 W/m² -3,0 °C 3,2 km/h (1 Bft)
09.11.2016 03:46 -1,4 °C -1,4 °C 89 % 1011,4 hPa 0,0 mm 3,0 km/h (1 Bft) SW 235 ° 0 min 0,000 mm 0,0 UV-I 0 W/m² -3,0 °C 4,8 km/h (1 Bft)
09.11.2016 03:47 -1,4 °C -1,4 °C 89 % 1011,4 hPa 0,0 mm 1,7 km/h (1 Bft) SW 235 ° 0 min 0,000 mm 0,0 UV-I 0 W/m² -3,0 °C 3,2 km/h (1 Bft)
09.11.2016 03:48 -1,4 °C -1,4 °C 89 % 1011,4 hPa 0,0 mm 2,2 km/h (1 Bft) SW 234 ° 0 min 0,000 mm 0,0 UV-I 0 W/m² -3,0 °C 4,8 km/h (1 Bft)
09.11.2016 03:49 -1,4 °C -1,4 °C 89 % 1011,4 hPa 0,0 mm 2,3 km/h (1 Bft) SW 234 ° 0 min 0,000 mm 0,0 UV-I 0 W/m² -3,0 °C 3,2 km/h (1 Bft)
09.11.2016 03:50 -1,4 °C -1,4 °C 89 % 1011,4 hPa 0,0 mm 1,9 km/h (1 Bft) SW 233 ° 0 min 0,000 mm 0,0 UV-I 0 W/m² -3,0 °C 3,2 km/h (1 Bft)
09.11.2016 03:51 -1,4 °C -1,4 °C 89 % 1011,4 hPa 0,0 mm 3,0 km/h (1 Bft) SW 233 ° 0 min 0,000 mm 0,0 UV-I 0 W/m² -3,0 °C 4,8 km/h (1 Bft)
09.11.2016 03:52 -1,4 °C -1,4 °C 89 % 1011,4 hPa 0,0 mm 1,4 km/h (1 Bft) SW 221 ° 0 min 0,000 mm 0,0 UV-I 0 W/m² -3,0 °C 3,2 km/h (1 Bft)
09.11.2016 03:53 -1,4 °C -1,4 °C 89 % 1011,3 hPa 0,0 mm 3,4 km/h (1 Bft) SW 214 ° 0 min 0,000 mm 0,0 UV-I 0 W/m² -3,0 °C 6,4 km/h (2 Bft)
09.11.2016 03:54 -1,4 °C -1,4 °C 89 % 1011,3 hPa 0,0 mm 2,8 km/h (1 Bft) S 188 ° 0 min 0,000 mm 0,0 UV-I 0 W/m² -3,0 °C 3,2 km/h (1 Bft)
09.11.2016 03:55 -1,4 °C -1,4 °C 89 % 1011,3 hPa 0,0 mm 4,8 km/h (1 Bft) S-SW 196 ° 0 min 0,000 mm 0,0 UV-I 0 W/m² -3,0 °C 6,4 km/h (2 Bft)
09.11.2016 03:56 -1,4 °C -1,4 °C 89 % 1011,3 hPa 0,0 mm 3,6 km/h (1 Bft) S 188 ° 0 min 0,000 mm 0,0 UV-I 0 W/m² -3,0 °C 6,4 km/h (2 Bft)
09.11.2016 03:57 -1,4 °C -1,4 °C 90 % 1011,3 hPa 0,0 mm 1,9 km/h (1 Bft) S 188 ° 0 min 0,000 mm 0,0 UV-I 0 W/m² -2,8 °C 3,2 km/h (1 Bft)
09.11.2016 03:58 -1,4 °C -1,4 °C 90 % 1011,3 hPa 0,0 mm 2,7 km/h (1 Bft) S 188 ° 0 min 0,000 mm 0,0 UV-I 0 W/m² -2,8 °C 4,8 km/h (1 Bft)
09.11.2016 03:59 -1,4 °C -1,4 °C 90 % 1011,2 hPa 0,0 mm 1,7 km/h (1 Bft) S 188 ° 0 min 0,000 mm 0,0 UV-I 0 W/m² -2,8 °C 3,2 km/h (1 Bft)
09.11.2016 04:00 -1,4 °C -1,4 °C 90 % 1011,2 hPa 0,0 mm 1,8 km/h (1 Bft) S 188 ° 0 min 0,000 mm 0,0 UV-I 0 W/m² -2,8 °C 3,2 km/h (1 Bft)
09.11.2016 04:01 -1,4 °C -1,4 °C 90 % 1011,2 hPa 0,0 mm 2,1 km/h (1 Bft) S 188 ° 0 min 0,000 mm 0,0 UV-I 0 W/m² -2,8 °C 6,4 km/h (2 Bft)
09.11.2016 04:02 -1,4 °C -1,4 °C 90 % 1011,2 hPa 0,0 mm 4,0 km/h (1 Bft) S 188 ° 0 min 0,000 mm 0,0 UV-I 0 W/m² -2,8 °C 6,4 km/h (2 Bft)
09.11.2016 04:03 -1,4 °C -1,4 °C 90 % 1011,2 hPa 0,0 mm 4,3 km/h (1 Bft) S-SW 192 ° 0 min 0,000 mm 0,0 UV-I 0 W/m² -2,8 °C 6,4 km/h (2 Bft)
09.11.2016 04:04 -1,4 °C -1,4 °C 90 % 1011,2 hPa 0,0 mm 3,4 km/h (1 Bft) S-SW 194 ° 0 min 0,000 mm 0,0 UV-I 0 W/m² -2,8 °C 4,8 km/h (1 Bft)
09.11.2016 04:05 -1,4 °C -1,4 °C 90 % 1011,1 hPa 0,0 mm 1,3 km/h (1 Bft) S-SW 194 ° 0 min 0,000 mm 0,0 UV-I 0 W/m² -2,8 °C 3,2 km/h (1 Bft)
09.11.2016 04:06 -1,4 °C -1,4 °C 90 % 1011,1 hPa 0,0 mm 2,0 km/h (1 Bft) S-SW 195 ° 0 min 0,000 mm 0,0 UV-I 0 W/m² -2,8 °C 3,2 km/h (1 Bft)
09.11.2016 04:07 -1,4 °C -1,4 °C 90 % 1011,2 hPa 0,0 mm 1,5 km/h (1 Bft) S-SW 195 ° 0 min 0,000 mm 0,0 UV-I 0 W/m² -2,8 °C 3,2 km/h (1 Bft)
09.11.2016 04:08 -1,4 °C -1,4 °C 90 % 1011,1 hPa 0,0 mm 0,7 km/h (0 Bft) S-SW 195 ° 0 min 0,000 mm 0,0 UV-I 0 W/m² -2,8 °C 1,6 km/h (1 Bft)
09.11.2016 04:09 -1,4 °C -1,4 °C 90 % 1011,1 hPa 0,0 mm 0,9 km/h (0 Bft) S-SW 195 ° 0 min 0,000 mm 0,0 UV-I 0 W/m² -2,8 °C 3,2 km/h (1 Bft)
09.11.2016 04:10 -1,4 °C -1,4 °C 90 % 1011,1 hPa 0,0 mm 1,8 km/h (1 Bft) S-SW 194 ° 0 min 0,000 mm 0,0 UV-I 0 W/m² -2,8 °C 3,2 km/h (1 Bft)
09.11.2016 04:11 -1,4 °C -1,4 °C 90 % 1011,0 hPa 0,0 mm 0,7 km/h (0 Bft) S-SW 195 ° 0 min 0,000 mm 0,0 UV-I 0 W/m² -2,8 °C 1,6 km/h (1 Bft)
09.11.2016 04:12 -1,4 °C -1,4 °C 90 % 1011,0 hPa 0,0 mm 0,1 km/h (0 Bft) S-SW 195 ° 0 min 0,000 mm 0,0 UV-I 0 W/m² -2,8 °C 1,6 km/h (1 Bft)
09.11.2016 04:13 -1,4 °C -1,4 °C 90 % 1011,1 hPa 0,0 mm 1,8 km/h (1 Bft) S-SW 194 ° 0 min 0,000 mm 0,0 UV-I 0 W/m² -2,8 °C 3,2 km/h (1 Bft)
09.11.2016 04:14 -1,5 °C -1,4 °C 90 % 1011,0 hPa 0,0 mm 0,6 km/h (0 Bft) S-SW 194 ° 0 min 0,000 mm 0,0 UV-I 0 W/m² -2,9 °C 1,6 km/h (1 Bft)
09.11.2016 04:15 -1,4 °C -1,4 °C 90 % 1011,0 hPa 0,0 mm 0,8 km/h (0 Bft) S-SW 194 ° 0 min 0,000 mm 0,0 UV-I 0 W/m² -2,8 °C 3,2 km/h (1 Bft)
09.11.2016 04:16 -1,5 °C -1,4 °C 90 % 1011,0 hPa 0,0 mm 0,6 km/h (0 Bft) S-SW 194 ° 0 min 0,000 mm 0,0 UV-I 0 W/m² -2,9 °C 1,6 km/h (1 Bft)
09.11.2016 04:17 -1,5 °C -1,4 °C 90 % 1011,0 hPa 0,0 mm 0,6 km/h (0 Bft) S-SW 194 ° 0 min 0,000 mm 0,0 UV-I 0 W/m² -2,9 °C 1,6 km/h (1 Bft)
09.11.2016 04:18 -1,5 °C -1,5 °C 90 % 1011,0 hPa 0,0 mm 0,4 km/h (0 Bft) S-SW 194 ° 0 min 0,000 mm 0,0 UV-I 0 W/m² -2,9 °C 1,6 km/h (1 Bft)
09.11.2016 04:19 -1,5 °C -1,5 °C 90 % 1011,0 hPa 0,0 mm 0,9 km/h (0 Bft) S-SW 194 ° 0 min 0,000 mm 0,0 UV-I 0 W/m² -2,9 °C 1,6 km/h (1 Bft)
09.11.2016 04:20 -1,5 °C -1,5 °C 90 % 1011,0 hPa 0,0 mm 2,7 km/h (1 Bft) S-SW 195 ° 0 min 0,000 mm 0,0 UV-I 0 W/m² -2,9 °C 4,8 km/h (1 Bft)
09.11.2016 04:21 -1,5 °C -1,5 °C 90 % 1011,0 hPa 0,0 mm 1,9 km/h (1 Bft) S-SW 195 ° 0 min 0,000 mm 0,0 UV-I 0 W/m² -2,9 °C 3,2 km/h (1 Bft)
09.11.2016 04:22 -1,5 °C -1,5 °C 90 % 1011,0 hPa 0,0 mm 1,7 km/h (1 Bft) S-SW 195 ° 0 min 0,000 mm 0,0 UV-I 0 W/m² -2,9 °C 3,2 km/h (1 Bft)
09.11.2016 04:23 -1,6 °C -1,5 °C 91 % 1011,0 hPa 0,0 mm 0,7 km/h (0 Bft) S-SW 194 ° 0 min 0,000 mm 0,0 UV-I 0 W/m² -2,9 °C 1,6 km/h (1 Bft)
09.11.2016 04:24 -1,6 °C -1,5 °C 91 % 1011,0 hPa 0,0 mm 0,1 km/h (0 Bft) S-SW 195 ° 0 min 0,000 mm 0,0 UV-I 0 W/m² -2,9 °C 1,6 km/h (1 Bft)
09.11.2016 04:25 -1,6 °C -1,5 °C 91 % 1011,0 hPa 0,0 mm 0,7 km/h (0 Bft) S-SW 195 ° 0 min 0,000 mm 0,0 UV-I 0 W/m² -2,9 °C 1,6 km/h (1 Bft)
09.11.2016 04:26 -1,6 °C -1,5 °C 91 % 1010,9 hPa 0,0 mm 0,3 km/h (0 Bft) S-SW 195 ° 0 min 0,000 mm 0,0 UV-I 0 W/m² -2,9 °C 1,6 km/h (1 Bft)
09.11.2016 04:27 -1,6 °C -1,6 °C 91 % 1010,9 hPa 0,0 mm 0,8 km/h (0 Bft) S-SW 194 ° 0 min 0,000 mm 0,0 UV-I 0 W/m² -2,9 °C 1,6 km/h (1 Bft)
09.11.2016 04:28 -1,6 °C -1,6 °C 91 % 1010,9 hPa 0,0 mm 1,0 km/h (0 Bft) S-SW 195 ° 0 min 0,000 mm 0,0 UV-I 0 W/m² -2,9 °C 1,6 km/h (1 Bft)
09.11.2016 04:29 -1,6 °C -1,6 °C 91 % 1010,9 hPa 0,0 mm 1,3 km/h (1 Bft) S-SW 195 ° 0 min 0,000 mm 0,0 UV-I 0 W/m² -2,9 °C 3,2 km/h (1 Bft)
09.11.2016 04:30 -1,6 °C -1,6 °C 91 % 1010,9 hPa 0,0 mm 1,2 km/h (1 Bft) S-SW 194 ° 0 min 0,000 mm 0,0 UV-I 0 W/m² -2,9 °C 3,2 km/h (1 Bft)
09.11.2016 04:31 -1,6 °C -1,6 °C 91 % 1010,8 hPa 0,0 mm 1,2 km/h (1 Bft) S-SW 194 ° 0 min 0,000 mm 0,0 UV-I 0 W/m² -2,9 °C 3,2 km/h (1 Bft)
09.11.2016 04:32 -1,6 °C -1,6 °C 91 % 1010,8 hPa 0,0 mm 2,5 km/h (1 Bft) S 174 ° 0 min 0,000 mm 0,0 UV-I 0 W/m² -2,9 °C 3,2 km/h (1 Bft)
09.11.2016 04:33 -1,6 °C -1,6 °C 91 % 1010,8 hPa 0,0 mm 0,5 km/h (0 Bft) S 174 ° 0 min 0,000 mm 0,0 UV-I 0 W/m² -2,9 °C 1,6 km/h (1 Bft)
09.11.2016 04:34 -1,6 °C -1,6 °C 91 % 1010,8 hPa 0,0 mm 2,7 km/h (1 Bft) S 188 ° 0 min 0,000 mm 0,0 UV-I 0 W/m² -2,9 °C 4,8 km/h (1 Bft)
09.11.2016 04:35 -1,6 °C -1,6 °C 91 % 1010,8 hPa 0,0 mm 3,6 km/h (1 Bft) S-SW 211 ° 0 min 0,000 mm 0,0 UV-I 0 W/m² -2,9 °C 6,4 km/h (2 Bft)
09.11.2016 04:36 -1,6 °C -1,6 °C 91 % 1010,8 hPa 0,0 mm 0,4 km/h (0 Bft) S-SW 211 ° 0 min 0,000 mm 0,0 UV-I 0 W/m² -2,9 °C 1,6 km/h (1 Bft)
09.11.2016 04:37 -1,6 °C -1,6 °C 91 % 1010,8 hPa 0,0 mm 3,6 km/h (1 Bft) S 184 ° 0 min 0,000 mm 0,0 UV-I 0 W/m² -2,9 °C 6,4 km/h (2 Bft)
09.11.2016 04:38 -1,6 °C -1,6 °C 91 % 1010,8 hPa 0,0 mm 2,9 km/h (1 Bft) SW 215 ° 0 min 0,000 mm 0,0 UV-I 0 W/m² -2,9 °C 4,8 km/h (1 Bft)
09.11.2016 04:39 -1,7 °C -1,6 °C 91 % 1010,8 hPa 0,0 mm 0,5 km/h (0 Bft) SW 215 ° 0 min 0,000 mm 0,0 UV-I 0 W/m² -3,0 °C 1,6 km/h (1 Bft)
09.11.2016 04:40 -1,7 °C -1,6 °C 91 % 1010,8 hPa 0,0 mm 2,7 km/h (1 Bft) SW 214 ° 0 min 0,000 mm 0,0 UV-I 0 W/m² -3,0 °C 4,8 km/h (1 Bft)
09.11.2016 04:41 -1,7 °C -1,7 °C 91 % 1010,7 hPa 0,0 mm 4,0 km/h (1 Bft) S-SW 202 ° 0 min 0,000 mm 0,0 UV-I 0 W/m² -3,0 °C 6,4 km/h (2 Bft)
09.11.2016 04:42 -1,7 °C -1,7 °C 91 % 1010,7 hPa 0,0 mm 1,7 km/h (1 Bft) S-SW 202 ° 0 min 0,000 mm 0,0 UV-I 0 W/m² -3,0 °C 4,8 km/h (1 Bft)
09.11.2016 04:43 -1,7 °C -1,7 °C 91 % 1010,7 hPa 0,0 mm 1,5 km/h (1 Bft) S-SW 202 ° 0 min 0,000 mm 0,0 UV-I 0 W/m² -3,0 °C 3,2 km/h (1 Bft)
09.11.2016 04:44 -1,7 °C -1,7 °C 91 % 1010,7 hPa 0,0 mm 0,5 km/h (0 Bft) S-SW 202 ° 0 min 0,000 mm 0,0 UV-I 0 W/m² -3,0 °C 1,6 km/h (1 Bft)
09.11.2016 04:45 -1,7 °C -1,7 °C 91 % 1010,7 hPa 0,0 mm 1,2 km/h (1 Bft) S-SW 202 ° 0 min 0,000 mm 0,0 UV-I 0 W/m² -3,0 °C 3,2 km/h (1 Bft)
09.11.2016 04:46 -1,8 °C -1,7 °C 90 % 1010,7 hPa 0,0 mm 1,2 km/h (1 Bft) S-SW 202 ° 0 min 0,000 mm 0,0 UV-I 0 W/m² -3,2 °C 1,6 km/h (1 Bft)
09.11.2016 04:47 -1,8 °C -1,8 °C 90 % 1010,7 hPa 0,0 mm 1,0 km/h (0 Bft) S-SW 202 ° 0 min 0,000 mm 0,0 UV-I 0 W/m² -3,2 °C 1,6 km/h (1 Bft)
09.11.2016 04:48 -1,8 °C -1,8 °C 90 % 1010,6 hPa 0,0 mm 1,5 km/h (1 Bft) S-SW 202 ° 0 min 0,000 mm 0,0 UV-I 0 W/m² -3,2 °C 3,2 km/h (1 Bft)
09.11.2016 04:49 -1,8 °C -1,8 °C 90 % 1010,6 hPa 0,0 mm 0,9 km/h (0 Bft) S-SW 202 ° 0 min 0,000 mm 0,0 UV-I 0 W/m² -3,2 °C 1,6 km/h (1 Bft)
09.11.2016 04:50 -1,8 °C -1,8 °C 90 % 1010,7 hPa 0,0 mm 0,2 km/h (0 Bft) S-SW 202 ° 0 min 0,000 mm 0,0 UV-I 0 W/m² -3,2 °C 1,6 km/h (1 Bft)
09.11.2016 04:51 -1,8 °C -1,8 °C 90 % 1010,6 hPa 0,0 mm 1,1 km/h (1 Bft) S-SW 202 ° 0 min 0,000 mm 0,0 UV-I 0 W/m² -3,2 °C 3,2 km/h (1 Bft)
09.11.2016 04:52 -1,8 °C -1,8 °C 90 % 1010,6 hPa 0,0 mm 0,9 km/h (0 Bft) S-SW 202 ° 0 min 0,000 mm 0,0 UV-I 0 W/m² -3,2 °C 1,6 km/h (1 Bft)
09.11.2016 04:53 -1,9 °C -1,8 °C 90 % 1010,6 hPa 0,0 mm 0,9 km/h (0 Bft) S-SW 202 ° 0 min 0,000 mm 0,0 UV-I 0 W/m² -3,3 °C 1,6 km/h (1 Bft)
09.11.2016 04:54 -1,8 °C -1,8 °C 90 % 1010,6 hPa 0,0 mm 0,1 km/h (0 Bft) S-SW 202 ° 0 min 0,000 mm 0,0 UV-I 0 W/m² -3,2 °C 1,6 km/h (1 Bft)
09.11.2016 04:55 -1,9 °C -1,8 °C 90 % 1010,6 hPa 0,0 mm 0,0 km/h (0 Bft) S-SW 202 ° 0 min 0,000 mm 0,0 UV-I 0 W/m² -3,3 °C 0,0 km/h (0 Bft)
09.11.2016 04:56 -1,9 °C -1,9 °C 90 % 1010,6 hPa 0,0 mm 0,0 km/h (0 Bft) S-SW 202 ° 0 min 0,000 mm 0,0 UV-I 0 W/m² -3,3 °C 0,0 km/h (0 Bft)
09.11.2016 04:57 -1,9 °C -1,9 °C 90 % 1010,6 hPa 0,0 mm 0,5 km/h (0 Bft) S-SW 202 ° 0 min 0,000 mm 0,0 UV-I 0 W/m² -3,3 °C 1,6 km/h (1 Bft)
09.11.2016 04:58 -1,9 °C -1,9 °C 90 % 1010,6 hPa 0,0 mm 0,6 km/h (0 Bft) S-SW 202 ° 0 min 0,000 mm 0,0 UV-I 0 W/m² -3,3 °C 1,6 km/h (1 Bft)
09.11.2016 04:59 -2,0 °C -1,9 °C 90 % 1010,6 hPa 0,0 mm 0,1 km/h (0 Bft) S-SW 202 ° 0 min 0,000 mm 0,0 UV-I 0 W/m² -3,4 °C 1,6 km/h (1 Bft)
09.11.2016 05:00 -2,0 °C -1,9 °C 90 % 1010,6 hPa 0,0 mm 0,2 km/h (0 Bft) S-SW 202 ° 0 min 0,000 mm 0,0 UV-I 0 W/m² -3,4 °C 1,6 km/h (1 Bft)
09.11.2016 05:01 -2,1 °C -2,0 °C 90 % 1010,6 hPa 0,0 mm 0,0 km/h (0 Bft) S-SW 202 ° 0 min 0,000 mm 0,0 UV-I 0 W/m² -3,5 °C 0,0 km/h (0 Bft)
09.11.2016 05:02 -2,1 °C -2,1 °C 90 % 1010,6 hPa 0,0 mm 0,0 km/h (0 Bft) S-SW 202 ° 0 min 0,000 mm 0,0 UV-I 0 W/m² -3,5 °C 0,0 km/h (0 Bft)
09.11.2016 05:03 -2,1 °C -2,1 °C 90 % 1010,6 hPa 0,0 mm 0,1 km/h (0 Bft) S-SW 202 ° 0 min 0,000 mm 0,0 UV-I 0 W/m² -3,5 °C 1,6 km/h (1 Bft)
09.11.2016 05:04 -2,1 °C -2,1 °C 90 % 1010,6 hPa 0,0 mm 0,0 km/h (0 Bft) S-SW 202 ° 0 min 0,000 mm 0,0 UV-I 0 W/m² -3,5 °C 0,0 km/h (0 Bft)
09.11.2016 05:05 -2,2 °C -2,1 °C 90 % 1010,7 hPa 0,0 mm 0,0 km/h (0 Bft) S-SW 202 ° 0 min 0,000 mm 0,0 UV-I 0 W/m² -3,6 °C 0,0 km/h (0 Bft)
09.11.2016 05:06 -2,2 °C -2,2 °C 90 % 1010,6 hPa 0,0 mm 0,0 km/h (0 Bft) S-SW 202 ° 0 min 0,000 mm 0,0 UV-I 0 W/m² -3,6 °C 0,0 km/h (0 Bft)
09.11.2016 05:07 -2,2 °C -2,2 °C 90 % 1010,6 hPa 0,0 mm 0,0 km/h (0 Bft) S-SW 202 ° 0 min 0,000 mm 0,0 UV-I 0 W/m² -3,6 °C 0,0 km/h (0 Bft)
09.11.2016 05:08 -2,2 °C -2,2 °C 90 % 1010,6 hPa 0,0 mm 0,0 km/h (0 Bft) S-SW 202 ° 0 min 0,000 mm 0,0 UV-I 0 W/m² -3,6 °C 0,0 km/h (0 Bft)
09.11.2016 05:09 -2,3 °C -2,2 °C 90 % 1010,6 hPa 0,0 mm 0,0 km/h (0 Bft) S-SW 202 ° 0 min 0,000 mm 0,0 UV-I 0 W/m² -3,7 °C 0,0 km/h (0 Bft)
09.11.2016 05:10 -2,3 °C -2,3 °C 90 % 1010,6 hPa 0,0 mm 0,0 km/h (0 Bft) S-SW 202 ° 0 min 0,000 mm 0,0 UV-I 0 W/m² -3,7 °C 0,0 km/h (0 Bft)
09.11.2016 05:11 -2,3 °C -2,3 °C 90 % 1010,6 hPa 0,0 mm 0,0 km/h (0 Bft) S-SW 202 ° 0 min 0,000 mm 0,0 UV-I 0 W/m² -3,7 °C 0,0 km/h (0 Bft)
09.11.2016 05:12 -2,3 °C -2,3 °C 89 % 1010,6 hPa 0,0 mm 0,0 km/h (0 Bft) S-SW 202 ° 0 min 0,000 mm 0,0 UV-I 0 W/m² -3,9 °C 0,0 km/h (0 Bft)
09.11.2016 05:13 -2,4 °C -2,3 °C 89 % 1010,6 hPa 0,0 mm 0,0 km/h (0 Bft) S-SW 202 ° 0 min 0,000 mm 0,0 UV-I 0 W/m² -4,0 °C 0,0 km/h (0 Bft)
09.11.2016 05:14 -2,4 °C -2,4 °C 89 % 1010,6 hPa 0,0 mm 0,0 km/h (0 Bft) S-SW 202 ° 0 min 0,000 mm 0,0 UV-I 0 W/m² -4,0 °C 0,0 km/h (0 Bft)
09.11.2016 05:15 -2,4 °C -2,4 °C 89 % 1010,6 hPa 0,0 mm 0,0 km/h (0 Bft) S-SW 202 ° 0 min 0,000 mm 0,0 UV-I 0 W/m² -4,0 °C 0,0 km/h (0 Bft)
09.11.2016 05:16 -2,5 °C -2,4 °C 89 % 1010,6 hPa 0,0 mm 0,3 km/h (0 Bft) S-SW 202 ° 0 min 0,000 mm 0,0 UV-I 0 W/m² -4,1 °C 1,6 km/h (1 Bft)
09.11.2016 05:17 -2,5 °C -2,5 °C 89 % 1010,6 hPa 0,0 mm 0,2 km/h (0 Bft) S-SW 202 ° 0 min 0,000 mm 0,0 UV-I 0 W/m² -4,1 °C 1,6 km/h (1 Bft)
09.11.2016 05:18 -2,6 °C -2,5 °C 89 % 1010,6 hPa 0,0 mm 0,9 km/h (0 Bft) S-SW 202 ° 0 min 0,000 mm 0,0 UV-I 0 W/m² -4,2 °C 1,6 km/h (1 Bft)
09.11.2016 05:19 -2,6 °C -2,6 °C 89 % 1010,6 hPa 0,0 mm 0,0 km/h (0 Bft) S-SW 202 ° 0 min 0,000 mm 0,0 UV-I 0 W/m² -4,2 °C 0,0 km/h (0 Bft)
09.11.2016 05:20 -2,6 °C -2,6 °C 89 % 1010,5 hPa 0,0 mm 0,0 km/h (0 Bft) S-SW 202 ° 0 min 0,000 mm 0,0 UV-I 0 W/m² -4,2 °C 0,0 km/h (0 Bft)
09.11.2016 05:21 -2,7 °C -2,6 °C 89 % 1010,5 hPa 0,0 mm 0,1 km/h (0 Bft) S-SW 202 ° 0 min 0,000 mm 0,0 UV-I 0 W/m² -4,3 °C 1,6 km/h (1 Bft)
09.11.2016 05:22 -2,7 °C -2,7 °C 89 % 1010,6 hPa 0,0 mm 0,0 km/h (0 Bft) S-SW 202 ° 0 min 0,000 mm 0,0 UV-I 0 W/m² -4,3 °C 0,0 km/h (0 Bft)
09.11.2016 05:23 -2,7 °C -2,7 °C 89 % 1010,5 hPa 0,0 mm 0,0 km/h (0 Bft) S-SW 202 ° 0 min 0,000 mm 0,0 UV-I 0 W/m² -4,3 °C 0,0 km/h (0 Bft)
09.11.2016 05:24 -2,7 °C -2,7 °C 89 % 1010,6 hPa 0,0 mm 0,0 km/h (0 Bft) S-SW 202 ° 0 min 0,000 mm 0,0 UV-I 0 W/m² -4,3 °C 0,0 km/h (0 Bft)
09.11.2016 05:25 -2,8 °C -2,7 °C 89 % 1010,5 hPa 0,0 mm 0,2 km/h (0 Bft) S-SW 202 ° 0 min 0,000 mm 0,0 UV-I 0 W/m² -4,4 °C 1,6 km/h (1 Bft)
09.11.2016 05:26 -2,8 °C -2,8 °C 89 % 1010,5 hPa 0,0 mm 1,4 km/h (1 Bft) S-SW 202 ° 0 min 0,000 mm 0,0 UV-I 0 W/m² -4,4 °C 3,2 km/h (1 Bft)
09.11.2016 05:27 -2,9 °C -2,8 °C 90 % 1010,5 hPa 0,0 mm 0,2 km/h (0 Bft) S-SW 202 ° 0 min 0,000 mm 0,0 UV-I 0 W/m² -4,3 °C 1,6 km/h (1 Bft)
09.11.2016 05:28 -2,9 °C -2,9 °C 89 % 1010,5 hPa 0,0 mm 0,0 km/h (0 Bft) S-SW 202 ° 0 min 0,000 mm 0,0 UV-I 0 W/m² -4,5 °C 0,0 km/h (0 Bft)
09.11.2016 05:29 -2,9 °C -2,9 °C 89 % 1010,5 hPa 0,0 mm 0,6 km/h (0 Bft) S-SW 202 ° 0 min 0,000 mm 0,0 UV-I 0 W/m² -4,5 °C 1,6 km/h (1 Bft)
09.11.2016 05:30 -3,0 °C -2,9 °C 89 % 1010,5 hPa 0,0 mm 2,8 km/h (1 Bft) SW 225 ° 0 min 0,000 mm 0,0 UV-I 0 W/m² -4,6 °C 4,8 km/h (1 Bft)
09.11.2016 05:31 -3,0 °C -2,9 °C 90 % 1010,5 hPa 0,0 mm 2,4 km/h (1 Bft) SW 225 ° 0 min 0,000 mm 0,0 UV-I 0 W/m² -4,4 °C 3,2 km/h (1 Bft)
09.11.2016 05:32 -3,1 °C -3,0 °C 90 % 1010,5 hPa 0,0 mm 0,9 km/h (0 Bft) SW 225 ° 0 min 0,000 mm 0,0 UV-I 0 W/m² -4,5 °C 1,6 km/h (1 Bft)
09.11.2016 05:33 -3,1 °C -3,1 °C 90 % 1010,5 hPa 0,0 mm 0,8 km/h (0 Bft) SW 225 ° 0 min 0,000 mm 0,0 UV-I 0 W/m² -4,5 °C 1,6 km/h (1 Bft)
09.11.2016 05:34 -3,2 °C -3,1 °C 90 % 1010,4 hPa 0,0 mm 0,0 km/h (0 Bft) SW 225 ° 0 min 0,000 mm 0,0 UV-I 0 W/m² -4,6 °C 0,0 km/h (0 Bft)
09.11.2016 05:35 -3,2 °C -3,2 °C 90 % 1010,4 hPa 0,0 mm 0,7 km/h (0 Bft) SW 225 ° 0 min 0,000 mm 0,0 UV-I 0 W/m² -4,6 °C 1,6 km/h (1 Bft)
09.11.2016 05:36 -3,2 °C -3,2 °C 91 % 1010,4 hPa 0,0 mm 2,0 km/h (1 Bft) SW 225 ° 0 min 0,000 mm 0,0 UV-I 0 W/m² -4,5 °C 3,2 km/h (1 Bft)
09.11.2016 05:37 -3,2 °C -3,2 °C 91 % 1010,4 hPa 0,0 mm 0,8 km/h (0 Bft) SW 225 ° 0 min 0,000 mm 0,0 UV-I 0 W/m² -4,5 °C 1,6 km/h (1 Bft)
09.11.2016 05:38 -3,2 °C -3,2 °C 91 % 1010,4 hPa 0,0 mm 0,0 km/h (0 Bft) SW 225 ° 0 min 0,000 mm 0,0 UV-I 0 W/m² -4,5 °C 0,0 km/h (0 Bft)
09.11.2016 05:39 -3,2 °C -3,2 °C 91 % 1010,4 hPa 0,0 mm 0,0 km/h (0 Bft) SW 225 ° 0 min 0,000 mm 0,0 UV-I 0 W/m² -4,5 °C 0,0 km/h (0 Bft)
09.11.2016 05:40 -3,2 °C -3,2 °C 91 % 1010,3 hPa 0,0 mm 0,0 km/h (0 Bft) SW 225 ° 0 min 0,000 mm 0,0 UV-I 0 W/m² -4,5 °C 0,0 km/h (0 Bft)
09.11.2016 05:41 -3,3 °C -3,2 °C 91 % 1010,3 hPa 0,0 mm 0,0 km/h (0 Bft) SW 225 ° 0 min 0,000 mm 0,0 UV-I 0 W/m² -4,6 °C 0,0 km/h (0 Bft)
09.11.2016 05:42 -3,3 °C -3,3 °C 92 % 1010,3 hPa 0,0 mm 0,0 km/h (0 Bft) SW 225 ° 0 min 0,000 mm 0,0 UV-I 0 W/m² -4,4 °C 0,0 km/h (0 Bft)
09.11.2016 05:43 -3,3 °C -3,3 °C 92 % 1010,3 hPa 0,0 mm 0,0 km/h (0 Bft) SW 225 ° 0 min 0,000 mm 0,0 UV-I 0 W/m² -4,4 °C 0,0 km/h (0 Bft)
09.11.2016 05:44 -3,4 °C -3,3 °C 92 % 1010,3 hPa 0,0 mm 1,3 km/h (1 Bft) SW 225 ° 0 min 0,000 mm 0,0 UV-I 0 W/m² -4,5 °C 3,2 km/h (1 Bft)
09.11.2016 05:45 -3,3 °C -3,3 °C 92 % 1010,3 hPa 0,0 mm 1,5 km/h (1 Bft) SW 225 ° 0 min 0,000 mm 0,0 UV-I 0 W/m² -4,4 °C 3,2 km/h (1 Bft)
09.11.2016 05:46 -3,4 °C -3,3 °C 92 % 1010,4 hPa 0,0 mm 1,4 km/h (1 Bft) SW 225 ° 0 min 0,000 mm 0,0 UV-I 0 W/m² -4,5 °C 1,6 km/h (1 Bft)
09.11.2016 05:47 -3,4 °C -3,4 °C 92 % 1010,4 hPa 0,0 mm 1,1 km/h (1 Bft) SW 225 ° 0 min 0,000 mm 0,0 UV-I 0 W/m² -4,5 °C 3,2 km/h (1 Bft)
09.11.2016 05:48 -3,4 °C -3,4 °C 92 % 1010,4 hPa 0,0 mm 1,3 km/h (1 Bft) SW 225 ° 0 min 0,000 mm 0,0 UV-I 0 W/m² -4,5 °C 1,6 km/h (1 Bft)
09.11.2016 05:49 -3,4 °C -3,4 °C 92 % 1010,4 hPa 0,0 mm 0,4 km/h (0 Bft) SW 225 ° 0 min 0,000 mm 0,0 UV-I 0 W/m² -4,5 °C 1,6 km/h (1 Bft)
09.11.2016 05:50 -3,4 °C -3,4 °C 92 % 1010,3 hPa 0,0 mm 0,5 km/h (0 Bft) SW 225 ° 0 min 0,000 mm 0,0 UV-I 0 W/m² -4,5 °C 1,6 km/h (1 Bft)
09.11.2016 05:51 -3,5 °C -3,4 °C 92 % 1010,3 hPa 0,0 mm 0,8 km/h (0 Bft) SW 225 ° 0 min 0,000 mm 0,0 UV-I 0 W/m² -4,6 °C 1,6 km/h (1 Bft)
09.11.2016 05:52 -3,5 °C -3,4 °C 92 % 1010,3 hPa 0,0 mm 0,4 km/h (0 Bft) SW 225 ° 0 min 0,000 mm 0,0 UV-I 0 W/m² -4,6 °C 1,6 km/h (1 Bft)
09.11.2016 05:53 -3,5 °C -3,4 °C 92 % 1010,4 hPa 0,0 mm 0,7 km/h (0 Bft) SW 225 ° 0 min 0,000 mm 0,0 UV-I 0 W/m² -4,6 °C 1,6 km/h (1 Bft)
09.11.2016 05:54 -3,5 °C -3,5 °C 92 % 1010,3 hPa 0,0 mm 0,9 km/h (0 Bft) SW 225 ° 0 min 0,000 mm 0,0 UV-I 0 W/m² -4,6 °C 1,6 km/h (1 Bft)
09.11.2016 05:55 -3,5 °C -3,5 °C 92 % 1010,3 hPa 0,0 mm 1,5 km/h (1 Bft) SW 225 ° 0 min 0,000 mm 0,0 UV-I 0 W/m² -4,6 °C 3,2 km/h (1 Bft)
09.11.2016 05:56 -3,5 °C -3,5 °C 92 % 1010,3 hPa 0,0 mm 1,7 km/h (1 Bft) SW 225 ° 0 min 0,000 mm 0,0 UV-I 0 W/m² -4,6 °C 3,2 km/h (1 Bft)
09.11.2016 05:57 -3,5 °C -3,5 °C 92 % 1010,3 hPa 0,0 mm 1,1 km/h (1 Bft) SW 225 ° 0 min 0,000 mm 0,0 UV-I 0 W/m² -4,6 °C 1,6 km/h (1 Bft)
09.11.2016 05:58 -3,6 °C -3,5 °C 92 % 1010,3 hPa 0,0 mm 0,7 km/h (0 Bft) SW 225 ° 0 min 0,000 mm 0,0 UV-I 0 W/m² -4,7 °C 1,6 km/h (1 Bft)
09.11.2016 05:59 -3,6 °C -3,6 °C 92 % 1010,2 hPa 0,0 mm 0,0 km/h (0 Bft) SW 225 ° 0 min 0,000 mm 0,0 UV-I 0 W/m² -4,7 °C 0,0 km/h (0 Bft)
09.11.2016 06:00 -3,6 °C -3,6 °C 92 % 1010,2 hPa 0,0 mm 0,1 km/h (0 Bft) SW 225 ° 0 min 0,000 mm 0,0 UV-I 0 W/m² -4,7 °C 1,6 km/h (1 Bft)
09.11.2016 06:01 -3,6 °C -3,6 °C 92 % 1010,2 hPa 0,0 mm 0,1 km/h (0 Bft) SW 225 ° 0 min 0,000 mm 0,0 UV-I 0 W/m² -4,7 °C 1,6 km/h (1 Bft)
09.11.2016 06:02 -3,6 °C -3,6 °C 92 % 1010,2 hPa 0,0 mm 0,5 km/h (0 Bft) SW 225 ° 0 min 0,000 mm 0,0 UV-I 0 W/m² -4,7 °C 1,6 km/h (1 Bft)
09.11.2016 06:03 -3,6 °C -3,6 °C 92 % 1010,2 hPa 0,0 mm 0,1 km/h (0 Bft) SW 225 ° 0 min 0,000 mm 0,0 UV-I 0 W/m² -4,7 °C 1,6 km/h (1 Bft)
09.11.2016 06:04 -3,6 °C -3,6 °C 92 % 1010,2 hPa 0,0 mm 1,0 km/h (0 Bft) SW 225 ° 0 min 0,000 mm 0,0 UV-I 0 W/m² -4,7 °C 1,6 km/h (1 Bft)
09.11.2016 06:05 -3,6 °C -3,6 °C 92 % 1010,1 hPa 0,0 mm 0,1 km/h (0 Bft) SW 225 ° 0 min 0,000 mm 0,0 UV-I 0 W/m² -4,7 °C 1,6 km/h (1 Bft)
09.11.2016 06:06 -3,6 °C -3,6 °C 92 % 1010,1 hPa 0,0 mm 0,0 km/h (0 Bft) SW 225 ° 0 min 0,000 mm 0,0 UV-I 0 W/m² -4,7 °C 0,0 km/h (0 Bft)
09.11.2016 06:07 -3,6 °C -3,6 °C 92 % 1010,1 hPa 0,0 mm 0,0 km/h (0 Bft) SW 225 ° 0 min 0,000 mm 0,0 UV-I 0 W/m² -4,7 °C 0,0 km/h (0 Bft)
09.11.2016 06:08 -3,7 °C -3,6 °C 92 % 1010,1 hPa 0,0 mm 0,2 km/h (0 Bft) SW 225 ° 0 min 0,000 mm 0,0 UV-I 0 W/m² -4,8 °C 1,6 km/h (1 Bft)
09.11.2016 06:09 -3,7 °C -3,7 °C 92 % 1010,0 hPa 0,0 mm 0,1 km/h (0 Bft) SW 225 ° 0 min 0,000 mm 0,0 UV-I 0 W/m² -4,8 °C 1,6 km/h (1 Bft)
09.11.2016 06:10 -3,7 °C -3,7 °C 92 % 1010,0 hPa 0,0 mm 0,0 km/h (0 Bft) SW 225 ° 0 min 0,000 mm 0,0 UV-I 0 W/m² -4,8 °C 0,0 km/h (0 Bft)
09.11.2016 06:11 -3,7 °C -3,7 °C 92 % 1010,0 hPa 0,0 mm 0,1 km/h (0 Bft) SW 225 ° 0 min 0,000 mm 0,0 UV-I 0 W/m² -4,8 °C 1,6 km/h (1 Bft)
09.11.2016 06:12 -3,7 °C -3,7 °C 92 % 1010,0 hPa 0,0 mm 0,0 km/h (0 Bft) SW 225 ° 0 min 0,000 mm 0,0 UV-I 0 W/m² -4,8 °C 0,0 km/h (0 Bft)
09.11.2016 06:13 -3,8 °C -3,7 °C 92 % 1010,0 hPa 0,0 mm 0,7 km/h (0 Bft) SW 225 ° 0 min 0,000 mm 0,0 UV-I 0 W/m² -4,9 °C 1,6 km/h (1 Bft)
09.11.2016 06:14 -3,8 °C -3,8 °C 92 % 1009,9 hPa 0,0 mm 0,0 km/h (0 Bft) SW 225 ° 0 min 0,000 mm 0,0 UV-I 0 W/m² -4,9 °C 0,0 km/h (0 Bft)
09.11.2016 06:15 -3,8 °C -3,8 °C 92 % 1009,9 hPa 0,0 mm 0,0 km/h (0 Bft) SW 225 ° 0 min 0,000 mm 0,0 UV-I 0 W/m² -4,9 °C 0,0 km/h (0 Bft)
09.11.2016 06:16 -3,8 °C -3,8 °C 92 % 1009,9 hPa 0,0 mm 0,3 km/h (0 Bft) SW 225 ° 0 min 0,000 mm 0,0 UV-I 0 W/m² -4,9 °C 1,6 km/h (1 Bft)
09.11.2016 06:17 -3,8 °C -3,8 °C 91 % 1009,9 hPa 0,0 mm 0,1 km/h (0 Bft) SW 225 ° 0 min 0,000 mm 0,0 UV-I 0 W/m² -5,0 °C 1,6 km/h (1 Bft)
09.11.2016 06:18 -3,8 °C -3,8 °C 91 % 1009,9 hPa 0,0 mm 0,0 km/h (0 Bft) SW 225 ° 0 min 0,000 mm 0,0 UV-I 0 W/m² -5,0 °C 0,0 km/h (0 Bft)
09.11.2016 06:19 -3,9 °C -3,8 °C 91 % 1009,9 hPa 0,0 mm 0,1 km/h (0 Bft) SW 225 ° 0 min 0,000 mm 0,0 UV-I 0 W/m² -5,1 °C 1,6 km/h (1 Bft)
09.11.2016 06:20 -3,9 °C -3,9 °C 91 % 1009,9 hPa 0,0 mm 1,3 km/h (1 Bft) SW 225 ° 0 min 0,000 mm 0,0 UV-I 0 W/m² -5,1 °C 1,6 km/h (1 Bft)
09.11.2016 06:21 -3,9 °C -3,9 °C 91 % 1009,9 hPa 0,0 mm 0,7 km/h (0 Bft) SW 225 ° 0 min 0,000 mm 0,0 UV-I 0 W/m² -5,1 °C 1,6 km/h (1 Bft)
09.11.2016 06:22 -4,0 °C -3,9 °C 91 % 1009,9 hPa 0,0 mm 1,4 km/h (1 Bft) SW 225 ° 0 min 0,000 mm 0,0 UV-I 0 W/m² -5,2 °C 1,6 km/h (1 Bft)
09.11.2016 06:23 -4,0 °C -4,0 °C 91 % 1009,9 hPa 0,0 mm 0,2 km/h (0 Bft) SW 225 ° 0 min 0,000 mm 0,0 UV-I 0 W/m² -5,2 °C 1,6 km/h (1 Bft)
09.11.2016 06:24 -4,1 °C -4,0 °C 91 % 1009,9 hPa 0,0 mm 0,4 km/h (0 Bft) SW 225 ° 0 min 0,000 mm 0,0 UV-I 0 W/m² -5,3 °C 1,6 km/h (1 Bft)
09.11.2016 06:25 -4,1 °C -4,1 °C 91 % 1009,8 hPa 0,0 mm 0,3 km/h (0 Bft) SW 225 ° 0 min 0,000 mm 0,0 UV-I 0 W/m² -5,3 °C 1,6 km/h (1 Bft)
09.11.2016 06:26 -4,1 °C -4,1 °C 92 % 1009,9 hPa 0,0 mm 0,0 km/h (0 Bft) SW 225 ° 0 min 0,000 mm 0,0 UV-I 0 W/m² -5,2 °C 0,0 km/h (0 Bft)
09.11.2016 06:27 -4,1 °C -4,1 °C 91 % 1009,9 hPa 0,0 mm 0,4 km/h (0 Bft) SW 225 ° 0 min 0,000 mm 0,0 UV-I 0 W/m² -5,3 °C 1,6 km/h (1 Bft)
09.11.2016 06:28 -4,1 °C -4,1 °C 92 % 1009,9 hPa 0,0 mm 0,2 km/h (0 Bft) SW 225 ° 0 min 0,000 mm 0,0 UV-I 0 W/m² -5,2 °C 1,6 km/h (1 Bft)
09.11.2016 06:29 -4,1 °C -4,1 °C 92 % 1009,9 hPa 0,0 mm 1,8 km/h (1 Bft) SW 225 ° 0 min 0,000 mm 0,0 UV-I 0 W/m² -5,2 °C 3,2 km/h (1 Bft)
09.11.2016 06:30 -4,2 °C -4,1 °C 92 % 1009,9 hPa 0,0 mm 1,2 km/h (1 Bft) SW 225 ° 0 min 0,000 mm 0,0 UV-I 0 W/m² -5,3 °C 1,6 km/h (1 Bft)
09.11.2016 06:31 -4,2 °C -4,1 °C 92 % 1009,9 hPa 0,0 mm 0,7 km/h (0 Bft) SW 225 ° 0 min 0,000 mm 0,0 UV-I 0 W/m² -5,3 °C 1,6 km/h (1 Bft)
09.11.2016 06:32 -4,2 °C -4,2 °C 92 % 1009,9 hPa 0,0 mm 0,1 km/h (0 Bft) SW 225 ° 0 min 0,000 mm 0,0 UV-I 0 W/m² -5,3 °C 1,6 km/h (1 Bft)
09.11.2016 06:33 -4,2 °C -4,2 °C 92 % 1009,9 hPa 0,0 mm 0,0 km/h (0 Bft) SW 225 ° 0 min 0,000 mm 0,0 UV-I 0 W/m² -5,3 °C 0,0 km/h (0 Bft)
09.11.2016 06:34 -4,2 °C -4,2 °C 92 % 1009,9 hPa 0,0 mm 0,0 km/h (0 Bft) SW 225 ° 0 min 0,000 mm 0,0 UV-I 0 W/m² -5,3 °C 0,0 km/h (0 Bft)
09.11.2016 06:35 -4,2 °C -4,2 °C 92 % 1009,9 hPa 0,0 mm 0,0 km/h (0 Bft) SW 225 ° 0 min 0,000 mm 0,0 UV-I 0 W/m² -5,3 °C 0,0 km/h (0 Bft)
09.11.2016 06:36 -4,2 °C -4,2 °C 92 % 1009,8 hPa 0,0 mm 1,0 km/h (0 Bft) SW 225 ° 0 min 0,000 mm 0,0 UV-I 0 W/m² -5,3 °C 1,6 km/h (1 Bft)
09.11.2016 06:37 -4,2 °C -4,2 °C 92 % 1009,8 hPa 0,0 mm 1,5 km/h (1 Bft) SW 225 ° 0 min 0,000 mm 0,0 UV-I 0 W/m² -5,3 °C 1,6 km/h (1 Bft)
09.11.2016 06:38 -4,3 °C -4,2 °C 92 % 1009,8 hPa 0,0 mm 0,7 km/h (0 Bft) SW 225 ° 0 min 0,000 mm 0,0 UV-I 0 W/m² -5,4 °C 1,6 km/h (1 Bft)
09.11.2016 06:39 -4,2 °C -4,2 °C 92 % 1009,8 hPa 0,0 mm 0,1 km/h (0 Bft) SW 225 ° 0 min 0,000 mm 0,0 UV-I 0 W/m² -5,3 °C 1,6 km/h (1 Bft)
09.11.2016 06:40 -4,3 °C -4,2 °C 92 % 1009,8 hPa 0,0 mm 0,1 km/h (0 Bft) SW 225 ° 0 min 0,000 mm 0,0 UV-I 0 W/m² -5,4 °C 1,6 km/h (1 Bft)
09.11.2016 06:41 -4,3 °C -4,2 °C 92 % 1009,8 hPa 0,0 mm 0,0 km/h (0 Bft) SW 225 ° 0 min 0,000 mm 0,0 UV-I 0 W/m² -5,4 °C 0,0 km/h (0 Bft)
09.11.2016 06:42 -4,3 °C -4,3 °C 92 % 1009,8 hPa 0,0 mm 0,0 km/h (0 Bft) SW 225 ° 0 min 0,000 mm 0,0 UV-I 0 W/m² -5,4 °C 0,0 km/h (0 Bft)
09.11.2016 06:43 -4,3 °C -4,3 °C 92 % 1009,7 hPa 0,0 mm 0,0 km/h (0 Bft) SW 225 ° 0 min 0,000 mm 0,0 UV-I 0 W/m² -5,4 °C 0,0 km/h (0 Bft)
09.11.2016 06:44 -4,3 °C -4,3 °C 92 % 1009,7 hPa 0,0 mm 0,0 km/h (0 Bft) SW 225 ° 0 min 0,000 mm 0,0 UV-I 0 W/m² -5,4 °C 0,0 km/h (0 Bft)
09.11.2016 06:45 -4,3 °C -4,3 °C 92 % 1009,7 hPa 0,0 mm 0,0 km/h (0 Bft) SW 225 ° 0 min 0,000 mm 0,0 UV-I 0 W/m² -5,4 °C 0,0 km/h (0 Bft)
09.11.2016 06:46 -4,3 °C -4,3 °C 93 % 1009,7 hPa 0,0 mm 0,0 km/h (0 Bft) SW 225 ° 0 min 0,000 mm 0,0 UV-I 0 W/m² -5,3 °C 0,0 km/h (0 Bft)
09.11.2016 06:47 -4,3 °C -4,3 °C 93 % 1009,7 hPa 0,0 mm 0,0 km/h (0 Bft) SW 225 ° 0 min 0,000 mm 0,0 UV-I 0 W/m² -5,3 °C 0,0 km/h (0 Bft)
09.11.2016 06:48 -4,3 °C -4,3 °C 92 % 1009,7 hPa 0,0 mm 0,0 km/h (0 Bft) SW 225 ° 0 min 0,000 mm 0,0 UV-I 0 W/m² -5,4 °C 0,0 km/h (0 Bft)
09.11.2016 06:49 -4,4 °C -4,3 °C 92 % 1009,7 hPa 0,0 mm 0,0 km/h (0 Bft) SW 225 ° 0 min 0,000 mm 0,0 UV-I 0 W/m² -5,5 °C 0,0 km/h (0 Bft)
09.11.2016 06:50 -4,4 °C -4,3 °C 92 % 1009,7 hPa 0,0 mm 0,0 km/h (0 Bft) SW 225 ° 0 min 0,000 mm 0,0 UV-I 0 W/m² -5,5 °C 0,0 km/h (0 Bft)
09.11.2016 06:51 -4,4 °C -4,4 °C 92 % 1009,7 hPa 0,0 mm 0,0 km/h (0 Bft) SW 225 ° 0 min 0,000 mm 0,0 UV-I 0 W/m² -5,5 °C 0,0 km/h (0 Bft)
09.11.2016 06:52 -4,4 °C -4,4 °C 93 % 1009,7 hPa 0,0 mm 0,0 km/h (0 Bft) SW 225 ° 0 min 0,000 mm 0,0 UV-I 0 W/m² -5,4 °C 0,0 km/h (0 Bft)
09.11.2016 06:53 -4,4 °C -4,4 °C 93 % 1009,6 hPa 0,0 mm 0,0 km/h (0 Bft) SW 225 ° 0 min 0,000 mm 0,0 UV-I 0 W/m² -5,4 °C 0,0 km/h (0 Bft)
09.11.2016 06:54 -4,4 °C -4,4 °C 92 % 1009,7 hPa 0,0 mm 0,0 km/h (0 Bft) SW 225 ° 0 min 0,000 mm 0,0 UV-I 0 W/m² -5,5 °C 0,0 km/h (0 Bft)
09.11.2016 06:55 -4,4 °C -4,4 °C 92 % 1009,7 hPa 0,0 mm 0,0 km/h (0 Bft) SW 225 ° 0 min 0,000 mm 0,0 UV-I 0 W/m² -5,5 °C 0,0 km/h (0 Bft)
09.11.2016 06:56 -4,5 °C -4,4 °C 92 % 1009,7 hPa 0,0 mm 0,0 km/h (0 Bft) SW 225 ° 0 min 0,000 mm 0,0 UV-I 0 W/m² -5,6 °C 0,0 km/h (0 Bft)
09.11.2016 06:57 -4,5 °C -4,4 °C 92 % 1009,7 hPa 0,0 mm 0,0 km/h (0 Bft) SW 225 ° 0 min 0,000 mm 0,0 UV-I 0 W/m² -5,6 °C 0,0 km/h (0 Bft)
09.11.2016 06:58 -4,5 °C -4,5 °C 92 % 1009,7 hPa 0,0 mm 0,0 km/h (0 Bft) SW 225 ° 0 min 0,000 mm 0,0 UV-I 0 W/m² -5,6 °C 0,0 km/h (0 Bft)
09.11.2016 06:59 -4,5 °C -4,5 °C 92 % 1009,7 hPa 0,0 mm 0,0 km/h (0 Bft) SW 225 ° 0 min 0,000 mm 0,0 UV-I 0 W/m² -5,6 °C 0,0 km/h (0 Bft)
09.11.2016 07:00 -4,6 °C -4,5 °C 92 % 1009,7 hPa 0,0 mm 0,0 km/h (0 Bft) SW 225 ° 0 min 0,000 mm 0,0 UV-I 0 W/m² -5,7 °C 0,0 km/h (0 Bft)
09.11.2016 07:01 -4,6 °C -4,5 °C 92 % 1009,7 hPa 0,0 mm 0,0 km/h (0 Bft) SW 225 ° 0 min 0,000 mm 0,0 UV-I 0 W/m² -5,7 °C 0,0 km/h (0 Bft)
09.11.2016 07:02 -4,6 °C -4,6 °C 92 % 1009,7 hPa 0,0 mm 0,0 km/h (0 Bft) SW 225 ° 0 min 0,000 mm 0,0 UV-I 0 W/m² -5,7 °C 0,0 km/h (0 Bft)
09.11.2016 07:03 -4,6 °C -4,6 °C 92 % 1009,7 hPa 0,0 mm 0,0 km/h (0 Bft) SW 225 ° 0 min 0,000 mm 0,0 UV-I 0 W/m² -5,7 °C 0,0 km/h (0 Bft)
09.11.2016 07:04 -4,6 °C -4,6 °C 92 % 1009,7 hPa 0,0 mm 0,0 km/h (0 Bft) SW 225 ° 0 min 0,000 mm 0,0 UV-I 0 W/m² -5,7 °C 0,0 km/h (0 Bft)
09.11.2016 07:05 -4,6 °C -4,6 °C 92 % 1009,7 hPa 0,0 mm 0,0 km/h (0 Bft) SW 225 ° 0 min 0,000 mm 0,0 UV-I 0 W/m² -5,7 °C 0,0 km/h (0 Bft)
09.11.2016 07:06 -4,7 °C -4,6 °C 92 % 1009,7 hPa 0,0 mm 0,0 km/h (0 Bft) SW 225 ° 0 min 0,000 mm 0,0 UV-I 0 W/m² -5,8 °C 0,0 km/h (0 Bft)
09.11.2016 07:07 -4,7 °C -4,6 °C 92 % 1009,7 hPa 0,0 mm 0,0 km/h (0 Bft) SW 225 ° 0 min 0,000 mm 0,0 UV-I 0 W/m² -5,8 °C 0,0 km/h (0 Bft)
09.11.2016 07:08 -4,7 °C -4,6 °C 92 % 1009,7 hPa 0,0 mm 0,0 km/h (0 Bft) SW 225 ° 0 min 0,000 mm 0,0 UV-I 0 W/m² -5,8 °C 0,0 km/h (0 Bft)
09.11.2016 07:09 -4,7 °C -4,7 °C 92 % 1009,7 hPa 0,0 mm 0,0 km/h (0 Bft) SW 225 ° 0 min 0,000 mm 0,0 UV-I 0 W/m² -5,8 °C 0,0 km/h (0 Bft)
09.11.2016 07:10 -4,7 °C -4,7 °C 92 % 1009,7 hPa 0,0 mm 0,0 km/h (0 Bft) SW 225 ° 0 min 0,000 mm 0,0 UV-I 0 W/m² -5,8 °C 0,0 km/h (0 Bft)
09.11.2016 07:11 -4,7 °C -4,7 °C 92 % 1009,6 hPa 0,0 mm 0,0 km/h (0 Bft) SW 225 ° 0 min 0,000 mm 0,0 UV-I 0 W/m² -5,8 °C 0,0 km/h (0 Bft)
09.11.2016 07:12 -4,7 °C -4,7 °C 92 % 1009,6 hPa 0,0 mm 0,0 km/h (0 Bft) SW 225 ° 0 min 0,000 mm 0,0 UV-I 0 W/m² -5,8 °C 0,0 km/h (0 Bft)
09.11.2016 07:13 -4,7 °C -4,7 °C 92 % 1009,5 hPa 0,0 mm 0,0 km/h (0 Bft) SW 225 ° 0 min 0,000 mm 0,0 UV-I 0 W/m² -5,8 °C 0,0 km/h (0 Bft)
09.11.2016 07:14 -4,7 °C -4,7 °C 92 % 1009,5 hPa 0,0 mm 0,0 km/h (0 Bft) SW 225 ° 0 min 0,000 mm 0,0 UV-I 0 W/m² -5,8 °C 0,0 km/h (0 Bft)
09.11.2016 07:15 -4,8 °C -4,7 °C 92 % 1009,5 hPa 0,0 mm 0,0 km/h (0 Bft) SW 225 ° 0 min 0,000 mm 0,0 UV-I 0 W/m² -5,9 °C 0,0 km/h (0 Bft)
09.11.2016 07:16 -4,8 °C -4,8 °C 92 % 1009,5 hPa 0,0 mm 0,0 km/h (0 Bft) SW 225 ° 0 min 0,000 mm 0,0 UV-I 0 W/m² -5,9 °C 0,0 km/h (0 Bft)
09.11.2016 07:17 -4,8 °C -4,8 °C 92 % 1009,5 hPa 0,0 mm 0,0 km/h (0 Bft) SW 225 ° 0 min 0,000 mm 0,0 UV-I 0 W/m² -5,9 °C 0,0 km/h (0 Bft)
09.11.2016 07:18 -4,8 °C -4,8 °C 92 % 1009,5 hPa 0,0 mm 0,0 km/h (0 Bft) SW 225 ° 0 min 0,000 mm 0,0 UV-I 0 W/m² -5,9 °C 0,0 km/h (0 Bft)
09.11.2016 07:19 -4,8 °C -4,8 °C 92 % 1009,4 hPa 0,0 mm 0,0 km/h (0 Bft) SW 225 ° 0 min 0,000 mm 0,0 UV-I 0 W/m² -5,9 °C 0,0 km/h (0 Bft)
09.11.2016 07:20 -4,8 °C -4,8 °C 92 % 1009,4 hPa 0,0 mm 0,0 km/h (0 Bft) SW 225 ° 0 min 0,000 mm 0,0 UV-I 0 W/m² -5,9 °C 0,0 km/h (0 Bft)
09.11.2016 07:21 -4,8 °C -4,8 °C 92 % 1009,4 hPa 0,0 mm 0,0 km/h (0 Bft) SW 225 ° 0 min 0,000 mm 0,0 UV-I 5 W/m² -5,9 °C 0,0 km/h (0 Bft)
09.11.2016 07:22 -4,9 °C -4,8 °C 92 % 1009,4 hPa 0,0 mm 0,0 km/h (0 Bft) SW 225 ° 0 min 0,000 mm 0,0 UV-I 5 W/m² -6,0 °C 0,0 km/h (0 Bft)
09.11.2016 07:23 -4,9 °C -4,9 °C 92 % 1009,4 hPa 0,0 mm 0,0 km/h (0 Bft) SW 225 ° 0 min 0,000 mm 0,0 UV-I 5 W/m² -6,0 °C 0,0 km/h (0 Bft)
09.11.2016 07:24 -4,9 °C -4,9 °C 92 % 1009,4 hPa 0,0 mm 0,0 km/h (0 Bft) SW 225 ° 0 min 0,000 mm 0,0 UV-I 5 W/m² -6,0 °C 0,0 km/h (0 Bft)
09.11.2016 07:25 -4,9 °C -4,9 °C 92 % 1009,3 hPa 0,0 mm 0,0 km/h (0 Bft) SW 225 ° 0 min 0,000 mm 0,0 UV-I 5 W/m² -6,0 °C 0,0 km/h (0 Bft)
09.11.2016 07:26 -4,9 °C -4,9 °C 93 % 1009,3 hPa 0,0 mm 0,0 km/h (0 Bft) SW 225 ° 0 min 0,000 mm 0,0 UV-I 5 W/m² -5,9 °C 0,0 km/h (0 Bft)
09.11.2016 07:27 -4,9 °C -4,9 °C 93 % 1009,3 hPa 0,0 mm 0,0 km/h (0 Bft) SW 225 ° 0 min 0,000 mm 0,0 UV-I 5 W/m² -5,9 °C 0,0 km/h (0 Bft)
09.11.2016 07:28 -4,9 °C -4,9 °C 93 % 1009,3 hPa 0,0 mm 0,0 km/h (0 Bft) SW 225 ° 0 min 0,000 mm 0,0 UV-I 5 W/m² -5,9 °C 0,0 km/h (0 Bft)
09.11.2016 07:29 -4,9 °C -4,9 °C 93 % 1009,3 hPa 0,0 mm 0,0 km/h (0 Bft) SW 225 ° 0 min 0,000 mm 0,0 UV-I 5 W/m² -5,9 °C 0,0 km/h (0 Bft)
09.11.2016 07:30 -4,9 °C -4,9 °C 93 % 1009,3 hPa 0,0 mm 0,0 km/h (0 Bft) SW 225 ° 0 min 0,000 mm 0,0 UV-I 5 W/m² -5,9 °C 0,0 km/h (0 Bft)
09.11.2016 07:31 -4,9 °C -4,9 °C 93 % 1009,3 hPa 0,0 mm 1,0 km/h (0 Bft) SW 225 ° 0 min 0,000 mm 0,0 UV-I 7 W/m² -5,9 °C 1,6 km/h (1 Bft)
09.11.2016 07:32 -5,0 °C -4,9 °C 93 % 1009,2 hPa 0,0 mm 0,3 km/h (0 Bft) SW 225 ° 0 min 0,000 mm 0,0 UV-I 7 W/m² -6,0 °C 1,6 km/h (1 Bft)
09.11.2016 07:33 -5,0 °C -4,9 °C 93 % 1009,2 hPa 0,0 mm 0,8 km/h (0 Bft) SW 225 ° 0 min 0,000 mm 0,0 UV-I 7 W/m² -6,0 °C 1,6 km/h (1 Bft)
09.11.2016 07:34 -5,0 °C -5,0 °C 92 % 1009,2 hPa 0,0 mm 0,3 km/h (0 Bft) SW 225 ° 0 min 0,000 mm 0,0 UV-I 7 W/m² -6,1 °C 1,6 km/h (1 Bft)
09.11.2016 07:35 -5,1 °C -5,0 °C 92 % 1009,3 hPa 0,0 mm 0,8 km/h (0 Bft) SW 225 ° 0 min 0,000 mm 0,0 UV-I 7 W/m² -6,2 °C 1,6 km/h (1 Bft)
09.11.2016 07:36 -5,1 °C -5,0 °C 92 % 1009,3 hPa 0,0 mm 0,6 km/h (0 Bft) SW 225 ° 0 min 0,000 mm 0,0 UV-I 7 W/m² -6,2 °C 1,6 km/h (1 Bft)
09.11.2016 07:37 -5,1 °C -5,0 °C 92 % 1009,2 hPa 0,0 mm 0,3 km/h (0 Bft) SW 225 ° 0 min 0,000 mm 0,0 UV-I 7 W/m² -6,2 °C 1,6 km/h (1 Bft)
09.11.2016 07:38 -5,1 °C -5,1 °C 92 % 1009,3 hPa 0,0 mm 0,0 km/h (0 Bft) SW 225 ° 0 min 0,000 mm 0,0 UV-I 7 W/m² -6,2 °C 0,0 km/h (0 Bft)
09.11.2016 07:39 -5,1 °C -5,1 °C 92 % 1009,3 hPa 0,0 mm 0,1 km/h (0 Bft) SW 225 ° 0 min 0,000 mm 0,0 UV-I 7 W/m² -6,2 °C 1,6 km/h (1 Bft)
09.11.2016 07:40 -5,1 °C -5,1 °C 92 % 1009,3 hPa 0,0 mm 0,9 km/h (0 Bft) SW 225 ° 0 min 0,000 mm 0,0 UV-I 9 W/m² -6,2 °C 1,6 km/h (1 Bft)
09.11.2016 07:41 -5,1 °C -5,1 °C 92 % 1009,2 hPa 0,0 mm 0,5 km/h (0 Bft) SW 225 ° 0 min 0,000 mm 0,0 UV-I 9 W/m² -6,2 °C 1,6 km/h (1 Bft)
09.11.2016 07:42 -5,1 °C -5,1 °C 92 % 1009,2 hPa 0,0 mm 0,5 km/h (0 Bft) SW 225 ° 0 min 0,000 mm 0,0 UV-I 9 W/m² -6,2 °C 1,6 km/h (1 Bft)
09.11.2016 07:43 -5,1 °C -5,1 °C 92 % 1009,3 hPa 0,0 mm 0,1 km/h (0 Bft) SW 225 ° 0 min 0,000 mm 0,0 UV-I 9 W/m² -6,2 °C 1,6 km/h (1 Bft)
09.11.2016 07:44 -5,2 °C -5,1 °C 92 % 1009,2 hPa 0,0 mm 1,0 km/h (0 Bft) SW 225 ° 0 min 0,000 mm 0,0 UV-I 9 W/m² -6,3 °C 3,2 km/h (1 Bft)
09.11.2016 07:45 -5,2 °C -5,2 °C 92 % 1009,2 hPa 0,0 mm 0,5 km/h (0 Bft) SW 225 ° 0 min 0,000 mm 0,0 UV-I 9 W/m² -6,3 °C 1,6 km/h (1 Bft)
09.11.2016 07:46 -5,2 °C -5,2 °C 92 % 1009,3 hPa 0,0 mm 0,3 km/h (0 Bft) SW 225 ° 0 min 0,000 mm 0,0 UV-I 9 W/m² -6,3 °C 1,6 km/h (1 Bft)
09.11.2016 07:47 -5,2 °C -5,2 °C 93 % 1009,3 hPa 0,0 mm 0,1 km/h (0 Bft) SW 225 ° 0 min 0,000 mm 0,0 UV-I 9 W/m² -6,1 °C 1,6 km/h (1 Bft)
09.11.2016 07:48 -5,2 °C -5,2 °C 93 % 1009,2 hPa 0,0 mm 0,9 km/h (0 Bft) SW 225 ° 0 min 0,000 mm 0,0 UV-I 9 W/m² -6,1 °C 1,6 km/h (1 Bft)
09.11.2016 07:49 -5,2 °C -5,2 °C 93 % 1009,2 hPa 0,0 mm 0,1 km/h (0 Bft) SW 225 ° 0 min 0,000 mm 0,0 UV-I 9 W/m² -6,1 °C 1,6 km/h (1 Bft)
09.11.2016 07:50 -5,2 °C -5,2 °C 93 % 1009,2 hPa 0,0 mm 1,1 km/h (1 Bft) SW 225 ° 0 min 0,000 mm 0,0 UV-I 9 W/m² -6,1 °C 1,6 km/h (1 Bft)
09.11.2016 07:51 -5,2 °C -5,2 °C 93 % 1009,3 hPa 0,0 mm 0,1 km/h (0 Bft) SW 225 ° 0 min 0,000 mm 0,0 UV-I 11 W/m² -6,1 °C 1,6 km/h (1 Bft)
09.11.2016 07:52 -5,2 °C -5,2 °C 93 % 1009,2 hPa 0,0 mm 1,0 km/h (0 Bft) SW 225 ° 0 min 0,000 mm 0,0 UV-I 11 W/m² -6,1 °C 1,6 km/h (1 Bft)
09.11.2016 07:53 -5,2 °C -5,2 °C 93 % 1009,3 hPa 0,0 mm 0,3 km/h (0 Bft) SW 225 ° 0 min 0,000 mm 0,0 UV-I 11 W/m² -6,1 °C 1,6 km/h (1 Bft)
09.11.2016 07:54 -5,2 °C -5,2 °C 93 % 1009,3 hPa 0,0 mm 0,3 km/h (0 Bft) SW 225 ° 0 min 0,000 mm 0,0 UV-I 11 W/m² -6,1 °C 1,6 km/h (1 Bft)
09.11.2016 07:55 -5,2 °C -5,2 °C 93 % 1009,2 hPa 0,0 mm 1,1 km/h (1 Bft) SW 225 ° 0 min 0,000 mm 0,0 UV-I 11 W/m² -6,1 °C 1,6 km/h (1 Bft)
09.11.2016 07:56 -5,2 °C -5,2 °C 93 % 1009,2 hPa 0,0 mm 0,5 km/h (0 Bft) SW 225 ° 0 min 0,000 mm 0,0 UV-I 11 W/m² -6,1 °C 1,6 km/h (1 Bft)
09.11.2016 07:57 -5,2 °C -5,2 °C 93 % 1009,2 hPa 0,0 mm 0,5 km/h (0 Bft) SW 225 ° 0 min 0,000 mm 0,0 UV-I 11 W/m² -6,1 °C 1,6 km/h (1 Bft)
09.11.2016 07:58 -5,2 °C -5,2 °C 93 % 1009,2 hPa 0,0 mm 0,0 km/h (0 Bft) SW 225 ° 0 min 0,000 mm 0,0 UV-I 11 W/m² -6,1 °C 0,0 km/h (0 Bft)
09.11.2016 07:59 -5,2 °C -5,2 °C 93 % 1009,2 hPa 0,0 mm 0,0 km/h (0 Bft) SW 225 ° 0 min 0,000 mm 0,0 UV-I 11 W/m² -6,1 °C 0,0 km/h (0 Bft)
09.11.2016 08:00 -5,2 °C -5,2 °C 93 % 1009,1 hPa 0,0 mm 0,0 km/h (0 Bft) SW 225 ° 0 min 0,000 mm 0,0 UV-I 11 W/m² -6,1 °C 0,0 km/h (0 Bft)
09.11.2016 08:01 -5,2 °C -5,2 °C 93 % 1009,2 hPa 0,0 mm 0,0 km/h (0 Bft) SW 225 ° 0 min 0,000 mm 0,0 UV-I 11 W/m² -6,1 °C 0,0 km/h (0 Bft)
09.11.2016 08:02 -5,2 °C -5,2 °C 93 % 1009,2 hPa 0,0 mm 0,0 km/h (0 Bft) SW 225 ° 0 min 0,000 mm 0,0 UV-I 11 W/m² -6,1 °C 0,0 km/h (0 Bft)
09.11.2016 08:03 -5,2 °C -5,2 °C 93 % 1009,2 hPa 0,0 mm 0,0 km/h (0 Bft) SW 225 ° 0 min 0,000 mm 0,0 UV-I 11 W/m² -6,1 °C 0,0 km/h (0 Bft)
09.11.2016 08:04 -5,2 °C -5,1 °C 93 % 1009,2 hPa 0,0 mm 0,0 km/h (0 Bft) SW 225 ° 0 min 0,000 mm 0,0 UV-I 11 W/m² -6,1 °C 0,0 km/h (0 Bft)
09.11.2016 08:05 -5,1 °C -5,1 °C 93 % 1009,2 hPa 0,0 mm 0,0 km/h (0 Bft) SW 225 ° 0 min 0,000 mm 0,0 UV-I 11 W/m² -6,1 °C 0,0 km/h (0 Bft)
09.11.2016 08:06 -5,1 °C -5,1 °C 93 % 1009,1 hPa 0,0 mm 0,0 km/h (0 Bft) SW 225 ° 0 min 0,000 mm 0,0 UV-I 11 W/m² -6,1 °C 0,0 km/h (0 Bft)
09.11.2016 08:07 -5,1 °C -5,1 °C 94 % 1009,1 hPa 0,0 mm 0,0 km/h (0 Bft) SW 225 ° 0 min 0,000 mm 0,0 UV-I 11 W/m² -5,9 °C 0,0 km/h (0 Bft)
09.11.2016 08:08 -5,1 °C -5,1 °C 94 % 1009,1 hPa 0,0 mm 0,3 km/h (0 Bft) SW 225 ° 0 min 0,000 mm 0,0 UV-I 12 W/m² -5,9 °C 1,6 km/h (1 Bft)
09.11.2016 08:09 -5,1 °C -5,1 °C 94 % 1009,2 hPa 0,0 mm 1,1 km/h (1 Bft) SW 225 ° 0 min 0,000 mm 0,0 UV-I 12 W/m² -5,9 °C 1,6 km/h (1 Bft)
09.11.2016 08:10 -5,1 °C -5,1 °C 94 % 1009,2 hPa 0,0 mm 1,2 km/h (1 Bft) SW 225 ° 0 min 0,000 mm 0,0 UV-I 12 W/m² -5,9 °C 1,6 km/h (1 Bft)
09.11.2016 08:11 -5,0 °C -5,0 °C 94 % 1009,2 hPa 0,0 mm 0,1 km/h (0 Bft) SW 225 ° 0 min 0,000 mm 0,0 UV-I 12 W/m² -5,8 °C 1,6 km/h (1 Bft)
09.11.2016 08:12 -4,9 °C -4,9 °C 94 % 1009,2 hPa 0,0 mm 0,0 km/h (0 Bft) SW 225 ° 0 min 0,000 mm 0,0 UV-I 12 W/m² -5,7 °C 0,0 km/h (0 Bft)
09.11.2016 08:13 -4,9 °C -4,9 °C 94 % 1009,1 hPa 0,0 mm 0,0 km/h (0 Bft) SW 225 ° 0 min 0,000 mm 0,0 UV-I 12 W/m² -5,7 °C 0,0 km/h (0 Bft)
09.11.2016 08:14 -5,0 °C -4,9 °C 94 % 1009,1 hPa 0,0 mm 0,0 km/h (0 Bft) SW 225 ° 0 min 0,000 mm 0,0 UV-I 12 W/m² -5,8 °C 0,0 km/h (0 Bft)
09.11.2016 08:15 -4,9 °C -4,9 °C 94 % 1009,1 hPa 0,0 mm 0,0 km/h (0 Bft) SW 225 ° 0 min 0,000 mm 0,0 UV-I 12 W/m² -5,7 °C 0,0 km/h (0 Bft)
09.11.2016 08:16 -4,9 °C -4,9 °C 94 % 1009,2 hPa 0,0 mm 0,0 km/h (0 Bft) SW 225 ° 0 min 0,000 mm 0,0 UV-I 12 W/m² -5,7 °C 0,0 km/h (0 Bft)
09.11.2016 08:17 -4,9 °C -4,9 °C 94 % 1009,1 hPa 0,0 mm 0,0 km/h (0 Bft) SW 225 ° 0 min 0,000 mm 0,0 UV-I 12 W/m² -5,7 °C 0,0 km/h (0 Bft)
09.11.2016 08:18 -4,9 °C -4,9 °C 94 % 1009,1 hPa 0,0 mm 0,0 km/h (0 Bft) SW 225 ° 0 min 0,000 mm 0,0 UV-I 12 W/m² -5,7 °C 0,0 km/h (0 Bft)
09.11.2016 08:19 -4,9 °C -4,9 °C 94 % 1009,1 hPa 0,0 mm 0,0 km/h (0 Bft) SW 225 ° 0 min 0,000 mm 0,0 UV-I 12 W/m² -5,7 °C 0,0 km/h (0 Bft)
09.11.2016 08:20 -4,9 °C -4,9 °C 94 % 1009,1 hPa 0,0 mm 0,0 km/h (0 Bft) SW 225 ° 0 min 0,000 mm 0,0 UV-I 12 W/m² -5,7 °C 0,0 km/h (0 Bft)
09.11.2016 08:21 -4,9 °C -4,9 °C 94 % 1009,0 hPa 0,0 mm 0,0 km/h (0 Bft) SW 225 ° 0 min 0,000 mm 0,0 UV-I 12 W/m² -5,7 °C 0,0 km/h (0 Bft)
09.11.2016 08:22 -4,9 °C -4,9 °C 94 % 1009,0 hPa 0,0 mm 0,0 km/h (0 Bft) SW 225 ° 0 min 0,000 mm 0,0 UV-I 12 W/m² -5,7 °C 0,0 km/h (0 Bft)
09.11.2016 08:23 -4,9 °C -4,9 °C 94 % 1009,0 hPa 0,0 mm 0,0 km/h (0 Bft) SW 225 ° 0 min 0,000 mm 0,0 UV-I 14 W/m² -5,7 °C 0,0 km/h (0 Bft)
09.11.2016 08:24 -4,9 °C -4,9 °C 94 % 1009,0 hPa 0,0 mm 0,0 km/h (0 Bft) SW 225 ° 0 min 0,000 mm 0,0 UV-I 14 W/m² -5,7 °C 0,0 km/h (0 Bft)
09.11.2016 08:25 -4,9 °C -4,9 °C 94 % 1009,0 hPa 0,0 mm 0,0 km/h (0 Bft) SW 225 ° 0 min 0,000 mm 0,0 UV-I 14 W/m² -5,7 °C 0,0 km/h (0 Bft)
09.11.2016 08:26 -4,9 °C -4,9 °C 94 % 1009,0 hPa 0,0 mm 0,0 km/h (0 Bft) SW 225 ° 0 min 0,000 mm 0,0 UV-I 14 W/m² -5,7 °C 0,0 km/h (0 Bft)
09.11.2016 08:27 -4,9 °C -4,9 °C 94 % 1009,0 hPa 0,0 mm 0,0 km/h (0 Bft) SW 225 ° 0 min 0,000 mm 0,0 UV-I 14 W/m² -5,7 °C 0,0 km/h (0 Bft)
09.11.2016 08:28 -4,9 °C -4,9 °C 94 % 1009,0 hPa 0,0 mm 0,3 km/h (0 Bft) SW 225 ° 0 min 0,000 mm 0,0 UV-I 14 W/m² -5,7 °C 1,6 km/h (1 Bft)
09.11.2016 08:29 -4,9 °C -4,9 °C 94 % 1009,0 hPa 0,0 mm 1,3 km/h (1 Bft) SW 225 ° 0 min 0,000 mm 0,0 UV-I 14 W/m² -5,7 °C 1,6 km/h (1 Bft)
09.11.2016 08:30 -4,9 °C -4,9 °C 94 % 1009,0 hPa 0,0 mm 1,7 km/h (1 Bft) SW 225 ° 0 min 0,000 mm 0,0 UV-I 14 W/m² -5,7 °C 3,2 km/h (1 Bft)
09.11.2016 08:31 -4,9 °C -4,8 °C 94 % 1009,0 hPa 0,0 mm 1,7 km/h (1 Bft) SW 225 ° 0 min 0,000 mm 0,0 UV-I 14 W/m² -5,7 °C 3,2 km/h (1 Bft)
09.11.2016 08:32 -4,8 °C -4,8 °C 94 % 1008,9 hPa 0,0 mm 0,3 km/h (0 Bft) SW 225 ° 0 min 0,000 mm 0,0 UV-I 14 W/m² -5,6 °C 3,2 km/h (1 Bft)
09.11.2016 08:33 -4,8 °C -4,8 °C 94 % 1008,9 hPa 0,0 mm 0,0 km/h (0 Bft) SW 225 ° 0 min 0,000 mm 0,0 UV-I 14 W/m² -5,6 °C 0,0 km/h (0 Bft)
09.11.2016 08:34 -4,8 °C -4,8 °C 94 % 1008,9 hPa 0,0 mm 0,0 km/h (0 Bft) SW 225 ° 0 min 0,000 mm 0,0 UV-I 14 W/m² -5,6 °C 0,0 km/h (0 Bft)
09.11.2016 08:35 -4,8 °C -4,8 °C 94 % 1008,9 hPa 0,0 mm 0,0 km/h (0 Bft) SW 225 ° 0 min 0,000 mm 0,0 UV-I 14 W/m² -5,6 °C 0,0 km/h (0 Bft)
09.11.2016 08:36 -4,8 °C -4,8 °C 94 % 1009,0 hPa 0,0 mm 0,0 km/h (0 Bft) SW 225 ° 0 min 0,000 mm 0,0 UV-I 14 W/m² -5,6 °C 0,0 km/h (0 Bft)
09.11.2016 08:37 -4,8 °C -4,8 °C 94 % 1008,9 hPa 0,0 mm 0,0 km/h (0 Bft) SW 225 ° 0 min 0,000 mm 0,0 UV-I 14 W/m² -5,6 °C 0,0 km/h (0 Bft)
09.11.2016 08:38 -4,8 °C -4,8 °C 94 % 1009,0 hPa 0,0 mm 0,0 km/h (0 Bft) SW 225 ° 0 min 0,000 mm 0,0 UV-I 14 W/m² -5,6 °C 0,0 km/h (0 Bft)
09.11.2016 08:39 -4,8 °C -4,8 °C 94 % 1009,0 hPa 0,0 mm 1,1 km/h (1 Bft) SW 229 ° 0 min 0,000 mm 0,0 UV-I 14 W/m² -5,6 °C 3,2 km/h (1 Bft)
09.11.2016 08:40 -4,8 °C -4,8 °C 94 % 1009,0 hPa 0,0 mm 1,4 km/h (1 Bft) S-SW 207 ° 0 min 0,000 mm 0,0 UV-I 14 W/m² -5,6 °C 3,2 km/h (1 Bft)
09.11.2016 08:41 -4,8 °C -4,8 °C 94 % 1008,9 hPa 0,0 mm 0,3 km/h (0 Bft) S-SW 207 ° 0 min 0,000 mm 0,0 UV-I 14 W/m² -5,6 °C 1,6 km/h (1 Bft)
09.11.2016 08:42 -4,8 °C -4,8 °C 94 % 1008,9 hPa 0,0 mm 0,8 km/h (0 Bft) S-SW 207 ° 0 min 0,000 mm 0,0 UV-I 14 W/m² -5,6 °C 1,6 km/h (1 Bft)
09.11.2016 08:43 -4,8 °C -4,8 °C 94 % 1008,9 hPa 0,0 mm 0,1 km/h (0 Bft) S-SW 207 ° 0 min 0,000 mm 0,0 UV-I 14 W/m² -5,6 °C 1,6 km/h (1 Bft)
09.11.2016 08:44 -4,8 °C -4,8 °C 94 % 1008,9 hPa 0,0 mm 0,7 km/h (0 Bft) S-SW 207 ° 0 min 0,000 mm 0,0 UV-I 14 W/m² -5,6 °C 1,6 km/h (1 Bft)
09.11.2016 08:45 -4,8 °C -4,8 °C 94 % 1008,9 hPa 0,0 mm 1,1 km/h (1 Bft) S 177 ° 0 min 0,000 mm 0,0 UV-I 14 W/m² -5,6 °C 3,2 km/h (1 Bft)
09.11.2016 08:46 -4,8 °C -4,8 °C 94 % 1008,9 hPa 0,0 mm 0,1 km/h (0 Bft) S 177 ° 0 min 0,000 mm 0,0 UV-I 16 W/m² -5,6 °C 1,6 km/h (1 Bft)
09.11.2016 08:47 -4,7 °C -4,7 °C 94 % 1008,9 hPa 0,0 mm 0,1 km/h (0 Bft) S 177 ° 0 min 0,000 mm 0,0 UV-I 16 W/m² -5,5 °C 1,6 km/h (1 Bft)
09.11.2016 08:48 -4,8 °C -4,7 °C 94 % 1008,8 hPa 0,0 mm 0,1 km/h (0 Bft) S 177 ° 0 min 0,000 mm 0,0 UV-I 14 W/m² -5,6 °C 1,6 km/h (1 Bft)
09.11.2016 08:49 -4,8 °C -4,7 °C 94 % 1008,8 hPa 0,0 mm 0,5 km/h (0 Bft) S 177 ° 0 min 0,000 mm 0,0 UV-I 14 W/m² -5,6 °C 1,6 km/h (1 Bft)
09.11.2016 08:50 -4,7 °C -4,7 °C 94 % 1008,8 hPa 0,0 mm 0,4 km/h (0 Bft) S 177 ° 0 min 0,000 mm 0,0 UV-I 14 W/m² -5,5 °C 1,6 km/h (1 Bft)
09.11.2016 08:51 -4,7 °C -4,7 °C 94 % 1008,8 hPa 0,0 mm 0,0 km/h (0 Bft) S 177 ° 0 min 0,000 mm 0,0 UV-I 14 W/m² -5,5 °C 0,0 km/h (0 Bft)
09.11.2016 08:52 -4,7 °C -4,7 °C 94 % 1008,7 hPa 0,0 mm 0,0 km/h (0 Bft) S 177 ° 0 min 0,000 mm 0,0 UV-I 16 W/m² -5,5 °C 0,0 km/h (0 Bft)
09.11.2016 08:53 -4,7 °C -4,7 °C 94 % 1008,7 hPa 0,0 mm 0,1 km/h (0 Bft) S 177 ° 0 min 0,000 mm 0,0 UV-I 16 W/m² -5,5 °C 1,6 km/h (1 Bft)
09.11.2016 08:54 -4,7 °C -4,7 °C 94 % 1008,7 hPa 0,0 mm 0,0 km/h (0 Bft) S 177 ° 0 min 0,000 mm 0,0 UV-I 16 W/m² -5,5 °C 0,0 km/h (0 Bft)
09.11.2016 08:55 -4,7 °C -4,7 °C 94 % 1008,7 hPa 0,0 mm 0,0 km/h (0 Bft) S 177 ° 0 min 0,000 mm 0,0 UV-I 16 W/m² -5,5 °C 0,0 km/h (0 Bft)
09.11.2016 08:56 -4,7 °C -4,7 °C 94 % 1008,7 hPa 0,0 mm 0,1 km/h (0 Bft) S 177 ° 0 min 0,000 mm 0,0 UV-I 16 W/m² -5,5 °C 1,6 km/h (1 Bft)
09.11.2016 08:57 -4,6 °C -4,6 °C 94 % 1008,7 hPa 0,0 mm 1,7 km/h (1 Bft) S-SO 168 ° 0 min 0,000 mm 0,0 UV-I 16 W/m² -5,4 °C 3,2 km/h (1 Bft)
09.11.2016 08:58 -4,6 °C -4,6 °C 94 % 1008,6 hPa 0,0 mm 1,3 km/h (1 Bft) S-SO 158 ° 0 min 0,000 mm 0,0 UV-I 16 W/m² -5,4 °C 3,2 km/h (1 Bft)
09.11.2016 08:59 -4,6 °C -4,6 °C 94 % 1008,6 hPa 0,0 mm 1,6 km/h (1 Bft) SO 128 ° 0 min 0,000 mm 0,0 UV-I 16 W/m² -5,4 °C 3,2 km/h (1 Bft)
09.11.2016 09:00 -4,6 °C -4,6 °C 94 % 1008,6 hPa 0,0 mm 1,7 km/h (1 Bft) SO 128 ° 0 min 0,000 mm 0,0 UV-I 16 W/m² -5,4 °C 3,2 km/h (1 Bft)
09.11.2016 09:01 -4,6 °C -4,6 °C 94 % 1008,6 hPa 0,0 mm 1,5 km/h (1 Bft) SO 128 ° 0 min 0,000 mm 0,0 UV-I 16 W/m² -5,4 °C 3,2 km/h (1 Bft)
09.11.2016 09:02 -4,6 °C -4,5 °C 94 % 1008,6 hPa 0,0 mm 1,5 km/h (1 Bft) O-SO 117 ° 0 min 0,000 mm 0,0 UV-I 16 W/m² -5,4 °C 3,2 km/h (1 Bft)
09.11.2016 09:03 -4,5 °C -4,5 °C 95 % 1008,6 hPa 0,0 mm 1,3 km/h (1 Bft) O-SO 117 ° 0 min 0,000 mm 0,0 UV-I 16 W/m² -5,2 °C 3,2 km/h (1 Bft)
09.11.2016 09:04 -4,4 °C -4,4 °C 95 % 1008,7 hPa 0,0 mm 1,3 km/h (1 Bft) O-SO 109 ° 0 min 0,000 mm 0,0 UV-I 16 W/m² -5,1 °C 3,2 km/h (1 Bft)
09.11.2016 09:05 -4,4 °C -4,4 °C 95 % 1008,6 hPa 0,0 mm 0,3 km/h (0 Bft) O-SO 109 ° 0 min 0,000 mm 0,0 UV-I 16 W/m² -5,1 °C 1,6 km/h (1 Bft)
09.11.2016 09:06 -4,4 °C -4,4 °C 95 % 1008,6 hPa 0,0 mm 0,1 km/h (0 Bft) O-SO 109 ° 0 min 0,000 mm 0,0 UV-I 16 W/m² -5,1 °C 1,6 km/h (1 Bft)
09.11.2016 09:07 -4,4 °C -4,4 °C 95 % 1008,6 hPa 0,0 mm 1,8 km/h (1 Bft) O 91 ° 0 min 0,000 mm 0,0 UV-I 18 W/m² -5,1 °C 4,8 km/h (1 Bft)
09.11.2016 09:08 -4,3 °C -4,3 °C 95 % 1008,6 hPa 0,0 mm 1,6 km/h (1 Bft) O 91 ° 0 min 0,000 mm 0,0 UV-I 18 W/m² -5,0 °C 3,2 km/h (1 Bft)
09.11.2016 09:09 -4,3 °C -4,3 °C 95 % 1008,5 hPa 0,0 mm 1,9 km/h (1 Bft) O 91 ° 0 min 0,000 mm 0,0 UV-I 18 W/m² -5,0 °C 3,2 km/h (1 Bft)
09.11.2016 09:10 -4,3 °C -4,3 °C 95 % 1008,6 hPa 0,0 mm 0,5 km/h (0 Bft) O 91 ° 0 min 0,000 mm 0,0 UV-I 18 W/m² -5,0 °C 1,6 km/h (1 Bft)
09.11.2016 09:11 -4,3 °C -4,3 °C 95 % 1008,6 hPa 0,0 mm 0,0 km/h (0 Bft) O 91 ° 0 min 0,000 mm 0,0 UV-I 18 W/m² -5,0 °C 0,0 km/h (0 Bft)
09.11.2016 09:12 -4,3 °C -4,2 °C 95 % 1008,6 hPa 0,0 mm 3,2 km/h (1 Bft) O-NO 57 ° 0 min 0,000 mm 0,0 UV-I 18 W/m² -5,0 °C 6,4 km/h (2 Bft)
09.11.2016 09:13 -4,2 °C -4,2 °C 95 % 1008,5 hPa 0,0 mm 2,8 km/h (1 Bft) O-NO 67 ° 0 min 0,000 mm 0,0 UV-I 18 W/m² -4,9 °C 6,4 km/h (2 Bft)
09.11.2016 09:14 -4,2 °C -4,2 °C 95 % 1008,5 hPa 0,0 mm 2,4 km/h (1 Bft) O-NO 69 ° 0 min 0,000 mm 0,0 UV-I 18 W/m² -4,9 °C 3,2 km/h (1 Bft)
09.11.2016 09:15 -4,2 °C -4,2 °C 95 % 1008,5 hPa 0,0 mm 1,1 km/h (1 Bft) O-NO 69 ° 0 min 0,000 mm 0,0 UV-I 19 W/m² -4,9 °C 3,2 km/h (1 Bft)
09.11.2016 09:16 -4,2 °C -4,2 °C 95 % 1008,5 hPa 0,0 mm 0,5 km/h (0 Bft) O-NO 69 ° 0 min 0,000 mm 0,0 UV-I 19 W/m² -4,9 °C 1,6 km/h (1 Bft)
09.11.2016 09:17 -4,1 °C -4,1 °C 95 % 1008,5 hPa 0,0 mm 0,1 km/h (0 Bft) O-NO 69 ° 0 min 0,000 mm 0,0 UV-I 19 W/m² -4,8 °C 1,6 km/h (1 Bft)
09.11.2016 09:18 -4,1 °C -4,1 °C 95 % 1008,5 hPa 0,0 mm 0,1 km/h (0 Bft) O-NO 69 ° 0 min 0,000 mm 0,0 UV-I 21 W/m² -4,8 °C 1,6 km/h (1 Bft)
09.11.2016 09:19 -4,1 °C -4,1 °C 95 % 1008,5 hPa 0,0 mm 0,1 km/h (0 Bft) O-NO 69 ° 0 min 0,000 mm 0,0 UV-I 21 W/m² -4,8 °C 1,6 km/h (1 Bft)
09.11.2016 09:20 -4,1 °C -4,1 °C 95 % 1008,5 hPa 0,0 mm 0,1 km/h (0 Bft) O-NO 69 ° 0 min 0,000 mm 0,0 UV-I 23 W/m² -4,8 °C 1,6 km/h (1 Bft)
09.11.2016 09:21 -4,0 °C -4,0 °C 95 % 1008,5 hPa 0,0 mm 0,7 km/h (0 Bft) O-NO 69 ° 0 min 0,000 mm 0,0 UV-I 25 W/m² -4,7 °C 1,6 km/h (1 Bft)
09.11.2016 09:22 -4,0 °C -4,0 °C 95 % 1008,5 hPa 0,0 mm 0,0 km/h (0 Bft) O-NO 69 ° 0 min 0,000 mm 0,0 UV-I 32 W/m² -4,7 °C 0,0 km/h (0 Bft)
09.11.2016 09:23 -3,9 °C -3,9 °C 95 % 1008,5 hPa 0,0 mm 0,7 km/h (0 Bft) O-NO 69 ° 0 min 0,000 mm 0,0 UV-I 35 W/m² -4,6 °C 3,2 km/h (1 Bft)
09.11.2016 09:24 -3,9 °C -3,9 °C 95 % 1008,5 hPa 0,0 mm 2,2 km/h (1 Bft) O-NO 69 ° 0 min 0,000 mm 0,0 UV-I 40 W/m² -4,6 °C 3,2 km/h (1 Bft)
09.11.2016 09:25 -3,9 °C -3,9 °C 95 % 1008,5 hPa 0,0 mm 0,9 km/h (0 Bft) O-NO 69 ° 0 min 0,000 mm 0,0 UV-I 46 W/m² -4,6 °C 1,6 km/h (1 Bft)
09.11.2016 09:26 -3,9 °C -3,9 °C 95 % 1008,5 hPa 0,0 mm 0,2 km/h (0 Bft) O-NO 69 ° 0 min 0,000 mm 0,0 UV-I 51 W/m² -4,6 °C 1,6 km/h (1 Bft)
09.11.2016 09:27 -3,8 °C -3,8 °C 95 % 1008,5 hPa 0,0 mm 0,8 km/h (0 Bft) O-NO 69 ° 0 min 0,000 mm 0,6 UV-I 58 W/m² -4,5 °C 1,6 km/h (1 Bft)
09.11.2016 09:28 -3,8 °C -3,8 °C 95 % 1008,5 hPa 0,0 mm 0,3 km/h (0 Bft) O-NO 69 ° 0 min 0,000 mm 0,6 UV-I 70 W/m² -4,5 °C 1,6 km/h (1 Bft)
09.11.2016 09:29 -3,7 °C -3,7 °C 95 % 1008,5 hPa 0,0 mm 0,9 km/h (0 Bft) O-NO 69 ° 0 min 0,000 mm 0,6 UV-I 76 W/m² -4,4 °C 3,2 km/h (1 Bft)
09.11.2016 09:30 -3,6 °C -3,6 °C 95 % 1008,5 hPa 0,0 mm 1,3 km/h (1 Bft) O-NO 69 ° 0 min 0,000 mm 0,6 UV-I 79 W/m² -4,3 °C 3,2 km/h (1 Bft)
09.11.2016 09:31 -3,4 °C -3,4 °C 95 % 1008,5 hPa 0,0 mm 1,3 km/h (1 Bft) O-NO 69 ° 0 min 0,000 mm 0,6 UV-I 83 W/m² -4,1 °C 3,2 km/h (1 Bft)
09.11.2016 09:32 -3,2 °C -3,2 °C 95 % 1008,4 hPa 0,0 mm 1,5 km/h (1 Bft) O-NO 69 ° 0 min 0,000 mm 0,6 UV-I 84 W/m² -3,9 °C 3,2 km/h (1 Bft)
09.11.2016 09:33 -3,1 °C -3,1 °C 95 % 1008,5 hPa 0,0 mm 2,5 km/h (1 Bft) O-NO 69 ° 0 min 0,000 mm 0,6 UV-I 86 W/m² -3,8 °C 3,2 km/h (1 Bft)
09.11.2016 09:34 -2,9 °C -2,9 °C 95 % 1008,4 hPa 0,0 mm 1,9 km/h (1 Bft) O-NO 69 ° 0 min 0,000 mm 0,6 UV-I 91 W/m² -3,6 °C 3,2 km/h (1 Bft)
09.11.2016 09:35 -2,8 °C -2,8 °C 95 % 1008,4 hPa 0,0 mm 0,2 km/h (0 Bft) O-NO 69 ° 0 min 0,000 mm 0,6 UV-I 91 W/m² -3,5 °C 1,6 km/h (1 Bft)
09.11.2016 09:36 -2,7 °C -2,7 °C 95 % 1008,3 hPa 0,0 mm 1,3 km/h (1 Bft) O-NO 69 ° 0 min 0,000 mm 0,6 UV-I 91 W/m² -3,4 °C 3,2 km/h (1 Bft)
09.11.2016 09:37 -2,6 °C -2,6 °C 94 % 1008,4 hPa 0,0 mm 1,9 km/h (1 Bft) O-NO 69 ° 0 min 0,000 mm 0,6 UV-I 91 W/m² -3,4 °C 3,2 km/h (1 Bft)
09.11.2016 09:38 -2,4 °C -2,4 °C 94 % 1008,3 hPa 0,0 mm 1,5 km/h (1 Bft) O-NO 69 ° 0 min 0,000 mm 0,6 UV-I 91 W/m² -3,2 °C 3,2 km/h (1 Bft)
09.11.2016 09:39 -2,3 °C -2,3 °C 94 % 1008,3 hPa 0,0 mm 0,7 km/h (0 Bft) O-NO 69 ° 0 min 0,000 mm 0,6 UV-I 93 W/m² -3,1 °C 1,6 km/h (1 Bft)
09.11.2016 09:40 -2,2 °C -2,2 °C 94 % 1008,4 hPa 0,0 mm 0,1 km/h (0 Bft) O-NO 69 ° 0 min 0,000 mm 0,6 UV-I 95 W/m² -3,0 °C 1,6 km/h (1 Bft)
09.11.2016 09:41 -2,1 °C -2,1 °C 93 % 1008,3 hPa 0,0 mm 0,9 km/h (0 Bft) O-NO 69 ° 0 min 0,000 mm 0,6 UV-I 95 W/m² -3,1 °C 4,8 km/h (1 Bft)
09.11.2016 09:42 -2,0 °C -2,0 °C 93 % 1008,4 hPa 0,0 mm 4,1 km/h (1 Bft) O-NO 60 ° 0 min 0,000 mm 0,6 UV-I 97 W/m² -3,0 °C 6,4 km/h (2 Bft)
09.11.2016 09:43 -1,9 °C -1,9 °C 92 % 1008,3 hPa 0,0 mm 4,5 km/h (1 Bft) O-NO 66 ° 0 min 0,000 mm 0,6 UV-I 97 W/m² -3,0 °C 6,4 km/h (2 Bft)
09.11.2016 09:44 -1,8 °C -1,8 °C 91 % 1008,3 hPa 0,0 mm 3,5 km/h (1 Bft) O-NO 65 ° 0 min 0,000 mm 0,6 UV-I 98 W/m² -3,1 °C 4,8 km/h (1 Bft)
09.11.2016 09:45 -1,8 °C -1,8 °C 91 % 1008,3 hPa 0,0 mm 2,5 km/h (1 Bft) O-NO 65 ° 0 min 0,000 mm 0,6 UV-I 100 W/m² -3,1 °C 3,2 km/h (1 Bft)
09.11.2016 09:46 -1,6 °C -1,6 °C 90 % 1008,3 hPa 0,0 mm 1,7 km/h (1 Bft) O-NO 65 ° 0 min 0,000 mm 0,6 UV-I 100 W/m² -3,0 °C 3,2 km/h (1 Bft)
09.11.2016 09:47 -1,4 °C -1,4 °C 89 % 1008,3 hPa 0,0 mm 1,1 km/h (1 Bft) O-NO 65 ° 0 min 0,000 mm 0,6 UV-I 100 W/m² -3,0 °C 3,2 km/h (1 Bft)
09.11.2016 09:48 -1,3 °C -1,3 °C 88 % 1008,3 hPa 0,0 mm 1,1 km/h (1 Bft) O-NO 65 ° 0 min 0,000 mm 0,6 UV-I 102 W/m² -3,0 °C 1,6 km/h (1 Bft)
09.11.2016 09:49 -1,3 °C -1,3 °C 88 % 1008,3 hPa 0,0 mm 0,4 km/h (0 Bft) O-NO 65 ° 0 min 0,000 mm 0,6 UV-I 104 W/m² -3,0 °C 1,6 km/h (1 Bft)
09.11.2016 09:50 -1,2 °C -1,2 °C 87 % 1008,3 hPa 0,0 mm 0,3 km/h (0 Bft) O-NO 65 ° 0 min 0,000 mm 0,6 UV-I 105 W/m² -3,1 °C 1,6 km/h (1 Bft)
09.11.2016 09:51 -1,2 °C -1,2 °C 88 % 1008,3 hPa 0,0 mm 0,3 km/h (0 Bft) O-NO 65 ° 0 min 0,000 mm 0,6 UV-I 107 W/m² -2,9 °C 1,6 km/h (1 Bft)
09.11.2016 09:52 -1,2 °C -1,2 °C 87 % 1008,2 hPa 0,0 mm 0,3 km/h (0 Bft) O-NO 65 ° 0 min 0,000 mm 0,6 UV-I 114 W/m² -3,1 °C 1,6 km/h (1 Bft)
09.11.2016 09:53 -1,1 °C -1,1 °C 87 % 1008,2 hPa 0,0 mm 0,1 km/h (0 Bft) O-NO 65 ° 0 min 0,000 mm 0,7 UV-I 118 W/m² -3,0 °C 1,6 km/h (1 Bft)
09.11.2016 09:54 -1,1 °C -1,1 °C 87 % 1008,2 hPa 0,0 mm 0,5 km/h (0 Bft) O-NO 65 ° 0 min 0,000 mm 0,7 UV-I 121 W/m² -3,0 °C 1,6 km/h (1 Bft)
09.11.2016 09:55 -1,1 °C -1,1 °C 86 % 1008,2 hPa 0,0 mm 1,3 km/h (1 Bft) O-NO 65 ° 0 min 0,000 mm 0,7 UV-I 123 W/m² -3,1 °C 3,2 km/h (1 Bft)
09.11.2016 09:56 -1,1 °C -1,1 °C 86 % 1008,2 hPa 0,0 mm 1,1 km/h (1 Bft) O-NO 65 ° 0 min 0,000 mm 0,7 UV-I 123 W/m² -3,1 °C 3,2 km/h (1 Bft)
09.11.2016 09:57 -1,1 °C -1,1 °C 86 % 1008,2 hPa 0,0 mm 1,1 km/h (1 Bft) O-NO 65 ° 0 min 0,000 mm 0,7 UV-I 130 W/m² -3,1 °C 1,6 km/h (1 Bft)
09.11.2016 09:58 -1,0 °C -0,9 °C 86 % 1008,2 hPa 0,0 mm 0,8 km/h (0 Bft) O-NO 65 ° 0 min 0,000 mm 0,7 UV-I 135 W/m² -3,0 °C 1,6 km/h (1 Bft)
09.11.2016 09:59 -0,9 °C -0,9 °C 85 % 1008,2 hPa 0,0 mm 0,3 km/h (0 Bft) O-NO 65 ° 0 min 0,000 mm 0,7 UV-I 139 W/m² -3,1 °C 1,6 km/h (1 Bft)
09.11.2016 10:00 -1,0 °C -0,9 °C 86 % 1008,2 hPa 0,0 mm 1,1 km/h (1 Bft) O-NO 65 ° 0 min 0,000 mm 0,7 UV-I 148 W/m² -3,0 °C 1,6 km/h (1 Bft)
09.11.2016 10:01 -1,1 °C -1,0 °C 86 % 1008,3 hPa 0,0 mm 1,0 km/h (0 Bft) O-NO 65 ° 0 min 0,025 mm 0,7 UV-I 151 W/m² -3,1 °C 1,6 km/h (1 Bft)
09.11.2016 10:02 -1,1 °C -1,0 °C 85 % 1008,2 hPa 0,0 mm 0,0 km/h (0 Bft) O-NO 65 ° 0 min 0,000 mm 0,7 UV-I 151 W/m² -3,3 °C 0,0 km/h (0 Bft)
09.11.2016 10:03 -1,0 °C -1,0 °C 85 % 1008,3 hPa 0,0 mm 0,0 km/h (0 Bft) O-NO 65 ° 0 min 0,000 mm 0,7 UV-I 158 W/m² -3,2 °C 0,0 km/h (0 Bft)
09.11.2016 10:04 -0,9 °C -0,9 °C 85 % 1008,2 hPa 0,0 mm 0,1 km/h (0 Bft) O-NO 65 ° 0 min 0,000 mm 0,7 UV-I 156 W/m² -3,1 °C 1,6 km/h (1 Bft)
09.11.2016 10:05 -0,9 °C -0,9 °C 86 % 1008,2 hPa 0,0 mm 1,5 km/h (1 Bft) O-NO 65 ° 0 min 0,000 mm 0,7 UV-I 155 W/m² -2,9 °C 3,2 km/h (1 Bft)
09.11.2016 10:06 -0,9 °C -0,9 °C 85 % 1008,2 hPa 0,0 mm 1,8 km/h (1 Bft) O-NO 65 ° 0 min 0,000 mm 0,7 UV-I 155 W/m² -3,1 °C 3,2 km/h (1 Bft)
09.11.2016 10:07 -0,9 °C -0,9 °C 85 % 1008,2 hPa 0,0 mm 1,6 km/h (1 Bft) O-NO 65 ° 0 min 0,000 mm 0,7 UV-I 155 W/m² -3,1 °C 1,6 km/h (1 Bft)
09.11.2016 10:08 -0,8 °C -0,8 °C 85 % 1008,2 hPa 0,0 mm 1,0 km/h (0 Bft) O-NO 65 ° 0 min 0,000 mm 0,7 UV-I 156 W/m² -3,0 °C 1,6 km/h (1 Bft)
09.11.2016 10:09 -0,8 °C -0,8 °C 85 % 1008,2 hPa 0,0 mm 0,8 km/h (0 Bft) O-NO 65 ° 0 min 0,000 mm 0,7 UV-I 162 W/m² -3,0 °C 3,2 km/h (1 Bft)
09.11.2016 10:10 -0,8 °C -0,7 °C 85 % 1008,2 hPa 0,0 mm 2,9 km/h (1 Bft) O-NO 57 ° 0 min 0,000 mm 0,7 UV-I 162 W/m² -3,0 °C 4,8 km/h (1 Bft)
09.11.2016 10:11 -0,7 °C -0,7 °C 85 % 1008,2 hPa 0,0 mm 2,3 km/h (1 Bft) O-NO 58 ° 0 min 0,000 mm 0,8 UV-I 162 W/m² -2,9 °C 3,2 km/h (1 Bft)
09.11.2016 10:12 -0,7 °C -0,7 °C 85 % 1008,2 hPa 0,0 mm 1,2 km/h (1 Bft) O-NO 58 ° 0 min 0,000 mm 0,8 UV-I 162 W/m² -2,9 °C 1,6 km/h (1 Bft)
09.11.2016 10:13 -0,7 °C -0,7 °C 85 % 1008,3 hPa 0,0 mm 0,1 km/h (0 Bft) O-NO 58 ° 0 min 0,000 mm 0,8 UV-I 163 W/m² -2,9 °C 1,6 km/h (1 Bft)
09.11.2016 10:14 -0,7 °C -0,7 °C 85 % 1008,2 hPa 0,0 mm 0,1 km/h (0 Bft) O-NO 58 ° 0 min 0,000 mm 0,8 UV-I 167 W/m² -2,9 °C 1,6 km/h (1 Bft)
09.11.2016 10:15 -0,7 °C -0,6 °C 85 % 1008,2 hPa 0,0 mm 0,3 km/h (0 Bft) O-NO 58 ° 0 min 0,000 mm 0,9 UV-I 176 W/m² -2,9 °C 1,6 km/h (1 Bft)
09.11.2016 10:16 -0,7 °C -0,6 °C 85 % 1008,2 hPa 0,0 mm 0,8 km/h (0 Bft) O-NO 58 ° 0 min 0,000 mm 1,0 UV-I 179 W/m² -2,9 °C 1,6 km/h (1 Bft)
09.11.2016 10:17 -0,6 °C -0,6 °C 85 % 1008,2 hPa 0,0 mm 1,8 km/h (1 Bft) O-NO 58 ° 0 min 0,000 mm 1,0 UV-I 181 W/m² -2,8 °C 3,2 km/h (1 Bft)
09.11.2016 10:18 -0,6 °C -0,6 °C 84 % 1008,2 hPa 0,0 mm 1,4 km/h (1 Bft) O-NO 58 ° 0 min 0,000 mm 1,0 UV-I 181 W/m² -3,0 °C 3,2 km/h (1 Bft)
09.11.2016 10:19 -0,6 °C -0,6 °C 84 % 1008,2 hPa 0,0 mm 2,4 km/h (1 Bft) O-NO 66 ° 0 min 0,000 mm 1,0 UV-I 183 W/m² -3,0 °C 3,2 km/h (1 Bft)
09.11.2016 10:20 -0,6 °C -0,6 °C 84 % 1008,2 hPa 0,0 mm 0,9 km/h (0 Bft) O-NO 66 ° 0 min 0,000 mm 1,1 UV-I 183 W/m² -3,0 °C 3,2 km/h (1 Bft)
09.11.2016 10:21 -0,5 °C -0,5 °C 84 % 1008,1 hPa 0,0 mm 2,2 km/h (1 Bft) O 98 ° 0 min 0,000 mm 1,1 UV-I 181 W/m² -2,9 °C 4,8 km/h (1 Bft)
09.11.2016 10:22 -0,4 °C -0,4 °C 84 % 1008,1 hPa 0,0 mm 0,0 km/h (0 Bft) O 98 ° 0 min 0,000 mm 1,1 UV-I 181 W/m² -2,8 °C 0,0 km/h (0 Bft)
09.11.2016 10:23 -0,5 °C -0,4 °C 83 % 1008,1 hPa 0,0 mm 0,0 km/h (0 Bft) O 98 ° 0 min 0,000 mm 1,2 UV-I 181 W/m² -3,0 °C 0,0 km/h (0 Bft)
09.11.2016 10:24 -0,5 °C -0,4 °C 84 % 1008,1 hPa 0,0 mm 0,0 km/h (0 Bft) O 98 ° 0 min 0,000 mm 1,2 UV-I 181 W/m² -2,9 °C 0,0 km/h (0 Bft)
09.11.2016 10:25 -0,5 °C -0,5 °C 83 % 1008,1 hPa 0,0 mm 0,0 km/h (0 Bft) O 98 ° 0 min 0,000 mm 1,2 UV-I 181 W/m² -3,0 °C 0,0 km/h (0 Bft)
09.11.2016 10:26 -0,4 °C -0,4 °C 84 % 1008,1 hPa 0,0 mm 0,0 km/h (0 Bft) O 98 ° 0 min 0,000 mm 1,2 UV-I 183 W/m² -2,8 °C 0,0 km/h (0 Bft)
09.11.2016 10:27 -0,4 °C -0,4 °C 84 % 1008,2 hPa 0,0 mm 0,0 km/h (0 Bft) O 98 ° 0 min 0,000 mm 1,2 UV-I 186 W/m² -2,8 °C 0,0 km/h (0 Bft)
09.11.2016 10:28 -0,4 °C -0,4 °C 83 % 1008,1 hPa 0,0 mm 0,0 km/h (0 Bft) O 98 ° 0 min 0,000 mm 1,3 UV-I 190 W/m² -2,9 °C 0,0 km/h (0 Bft)
09.11.2016 10:29 -0,4 °C -0,3 °C 84 % 1008,2 hPa 0,0 mm 0,0 km/h (0 Bft) O 98 ° 0 min 0,000 mm 1,3 UV-I 192 W/m² -2,8 °C 0,0 km/h (0 Bft)
09.11.2016 10:30 -0,3 °C -0,3 °C 84 % 1008,2 hPa 0,0 mm 0,0 km/h (0 Bft) O 98 ° 0 min 0,000 mm 1,3 UV-I 193 W/m² -2,7 °C 0,0 km/h (0 Bft)
09.11.2016 10:31 -0,3 °C -0,3 °C 84 % 1008,1 hPa 0,2 mm 0,0 km/h (0 Bft) O 98 ° 0 min 0,000 mm 1,3 UV-I 195 W/m² -2,7 °C 0,0 km/h (0 Bft)
09.11.2016 10:32 -0,3 °C -0,3 °C 83 % 1008,1 hPa 0,0 mm 0,0 km/h (0 Bft) O 98 ° 0 min 0,000 mm 1,3 UV-I 197 W/m² -2,8 °C 0,0 km/h (0 Bft)
09.11.2016 10:33 -0,3 °C -0,3 °C 84 % 1008,1 hPa 0,0 mm 0,0 km/h (0 Bft) O 98 ° 0 min 0,000 mm 1,3 UV-I 199 W/m² -2,7 °C 0,0 km/h (0 Bft)
09.11.2016 10:34 -0,3 °C -0,3 °C 83 % 1008,2 hPa 0,0 mm 0,0 km/h (0 Bft) O 98 ° 0 min 0,000 mm 1,3 UV-I 199 W/m² -2,8 °C 0,0 km/h (0 Bft)
09.11.2016 10:35 -0,3 °C -0,3 °C 85 % 1008,2 hPa 0,0 mm 0,0 km/h (0 Bft) O 98 ° 0 min 0,000 mm 1,3 UV-I 197 W/m² -2,5 °C 0,0 km/h (0 Bft)
09.11.2016 10:36 -0,2 °C -0,2 °C 83 % 1008,1 hPa 0,0 mm 0,0 km/h (0 Bft) O 98 ° 0 min 0,000 mm 1,3 UV-I 197 W/m² -2,7 °C 0,0 km/h (0 Bft)
09.11.2016 10:37 -0,2 °C -0,2 °C 83 % 1008,1 hPa 0,0 mm 0,0 km/h (0 Bft) O 98 ° 0 min 0,000 mm 1,3 UV-I 199 W/m² -2,7 °C 0,0 km/h (0 Bft)
09.11.2016 10:38 -0,2 °C -0,2 °C 83 % 1008,1 hPa 0,0 mm 0,0 km/h (0 Bft) O 98 ° 0 min 0,000 mm 1,3 UV-I 199 W/m² -2,7 °C 0,0 km/h (0 Bft)
09.11.2016 10:39 -0,2 °C -0,2 °C 84 % 1008,1 hPa 0,0 mm 2,5 km/h (1 Bft) O 97 ° 0 min 0,000 mm 1,3 UV-I 199 W/m² -2,6 °C 3,2 km/h (1 Bft)
09.11.2016 10:40 -0,2 °C -0,2 °C 84 % 1008,1 hPa 0,0 mm 3,3 km/h (1 Bft) O 86 ° 0 min 0,000 mm 1,3 UV-I 197 W/m² -2,6 °C 4,8 km/h (1 Bft)
09.11.2016 10:41 -0,2 °C -0,1 °C 83 % 1008,1 hPa 0,0 mm 1,6 km/h (1 Bft) O 86 ° 0 min 0,000 mm 1,3 UV-I 197 W/m² -2,7 °C 3,2 km/h (1 Bft)
09.11.2016 10:42 -0,2 °C -0,2 °C 82 % 1008,1 hPa 0,0 mm 1,2 km/h (1 Bft) O 86 ° 0 min 0,000 mm 1,3 UV-I 195 W/m² -2,9 °C 1,6 km/h (1 Bft)
09.11.2016 10:43 -0,2 °C -0,2 °C 82 % 1008,1 hPa 0,0 mm 1,1 km/h (1 Bft) O 86 ° 0 min 0,000 mm 1,3 UV-I 195 W/m² -2,9 °C 1,6 km/h (1 Bft)
09.11.2016 10:44 -0,2 °C -0,2 °C 82 % 1008,1 hPa 0,0 mm 0,8 km/h (0 Bft) O 86 ° 0 min 0,000 mm 1,3 UV-I 195 W/m² -2,9 °C 1,6 km/h (1 Bft)
09.11.2016 10:45 -0,2 °C -0,2 °C 82 % 1008,1 hPa 0,0 mm 1,7 km/h (1 Bft) O 86 ° 0 min 0,000 mm 1,4 UV-I 197 W/m² -2,9 °C 3,2 km/h (1 Bft)
09.11.2016 10:46 -0,2 °C -0,2 °C 82 % 1008,0 hPa 0,0 mm 1,4 km/h (1 Bft) O 86 ° 0 min 0,000 mm 1,4 UV-I 199 W/m² -2,9 °C 3,2 km/h (1 Bft)
09.11.2016 10:47 -0,2 °C -0,2 °C 82 % 1008,0 hPa 0,0 mm 0,3 km/h (0 Bft) O 86 ° 0 min 0,000 mm 1,4 UV-I 200 W/m² -2,9 °C 1,6 km/h (1 Bft)
09.11.2016 10:48 -0,2 °C -0,2 °C 81 % 1008,1 hPa 0,0 mm 0,7 km/h (0 Bft) O 86 ° 0 min 0,000 mm 1,4 UV-I 200 W/m² -3,1 °C 1,6 km/h (1 Bft)
09.11.2016 10:49 -0,2 °C -0,2 °C 81 % 1008,1 hPa 0,0 mm 0,1 km/h (0 Bft) O 86 ° 0 min 0,000 mm 1,4 UV-I 202 W/m² -3,1 °C 1,6 km/h (1 Bft)
09.11.2016 10:50 -0,2 °C -0,2 °C 81 % 1008,1 hPa 0,0 mm 0,9 km/h (0 Bft) O 86 ° 0 min 0,000 mm 1,4 UV-I 204 W/m² -3,1 °C 1,6 km/h (1 Bft)
09.11.2016 10:51 -0,2 °C -0,2 °C 82 % 1008,0 hPa 0,0 mm 1,1 km/h (1 Bft) O 86 ° 0 min 0,000 mm 1,4 UV-I 204 W/m² -2,9 °C 1,6 km/h (1 Bft)
09.11.2016 10:52 -0,1 °C -0,1 °C 82 % 1008,0 hPa 0,0 mm 0,3 km/h (0 Bft) O 86 ° 0 min 0,000 mm 1,4 UV-I 204 W/m² -2,8 °C 1,6 km/h (1 Bft)
09.11.2016 10:53 -0,1 °C -0,1 °C 82 % 1008,1 hPa 0,0 mm 0,9 km/h (0 Bft) O 86 ° 0 min 0,000 mm 1,4 UV-I 204 W/m² -2,8 °C 1,6 km/h (1 Bft)
09.11.2016 10:54 0,0 °C 0,0 °C 82 % 1008,0 hPa 0,0 mm 1,4 km/h (1 Bft) O 86 ° 0 min 0,000 mm 1,4 UV-I 204 W/m² -2,7 °C 3,2 km/h (1 Bft)
09.11.2016 10:55 0,0 °C 0,0 °C 82 % 1008,0 hPa 0,0 mm 2,3 km/h (1 Bft) O 86 ° 0 min 0,000 mm 1,4 UV-I 206 W/m² -2,7 °C 3,2 km/h (1 Bft)
09.11.2016 10:56 0,0 °C 0,0 °C 81 % 1008,0 hPa 0,0 mm 2,5 km/h (1 Bft) O 86 ° 0 min 0,000 mm 1,4 UV-I 207 W/m² -2,9 °C 3,2 km/h (1 Bft)
09.11.2016 10:57 0,0 °C 0,0 °C 82 % 1008,0 hPa 0,0 mm 1,5 km/h (1 Bft) O 86 ° 0 min 0,000 mm 1,4 UV-I 209 W/m² -2,7 °C 1,6 km/h (1 Bft)
09.11.2016 10:58 0,0 °C 0,0 °C 82 % 1007,9 hPa 0,0 mm 0,2 km/h (0 Bft) O 86 ° 0 min 0,000 mm 1,4 UV-I 213 W/m² -2,7 °C 1,6 km/h (1 Bft)
09.11.2016 10:59 0,1 °C 0,1 °C 82 % 1008,0 hPa 0,0 mm 0,0 km/h (0 Bft) O 86 ° 0 min 0,000 mm 1,5 UV-I 216 W/m² -2,6 °C 0,0 km/h (0 Bft)
09.11.2016 11:00 0,1 °C 0,1 °C 82 % 1008,0 hPa 0,0 mm 0,0 km/h (0 Bft) O 86 ° 0 min 0,000 mm 1,5 UV-I 218 W/m² -2,6 °C 0,0 km/h (0 Bft)
09.11.2016 11:01 0,2 °C 0,2 °C 81 % 1008,0 hPa 0,0 mm 0,0 km/h (0 Bft) O 86 ° 0 min 0,051 mm 1,5 UV-I 221 W/m² -2,7 °C 0,0 km/h (0 Bft)
09.11.2016 11:02 0,1 °C 0,2 °C 81 % 1008,0 hPa 0,0 mm 0,0 km/h (0 Bft) O 86 ° 0 min 0,000 mm 1,5 UV-I 220 W/m² -2,8 °C 0,0 km/h (0 Bft)
09.11.2016 11:03 0,1 °C 0,1 °C 81 % 1008,0 hPa 0,0 mm 0,0 km/h (0 Bft) O 86 ° 0 min 0,000 mm 1,5 UV-I 218 W/m² -2,8 °C 0,0 km/h (0 Bft)
09.11.2016 11:04 0,1 °C 0,1 °C 81 % 1008,0 hPa 0,0 mm 0,0 km/h (0 Bft) O 86 ° 0 min 0,000 mm 1,5 UV-I 214 W/m² -2,8 °C 0,0 km/h (0 Bft)
09.11.2016 11:05 0,1 °C 0,1 °C 81 % 1008,0 hPa 0,0 mm 0,0 km/h (0 Bft) O 86 ° 0 min 0,000 mm 1,5 UV-I 211 W/m² -2,8 °C 0,0 km/h (0 Bft)
09.11.2016 11:06 0,1 °C 0,1 °C 81 % 1008,0 hPa 0,0 mm 0,0 km/h (0 Bft) O 86 ° 0 min 0,000 mm 1,5 UV-I 206 W/m² -2,8 °C 0,0 km/h (0 Bft)
09.11.2016 11:07 0,1 °C 0,1 °C 81 % 1007,9 hPa 0,0 mm 1,1 km/h (1 Bft) O 86 ° 0 min 0,000 mm 1,5 UV-I 200 W/m² -2,8 °C 3,2 km/h (1 Bft)
09.11.2016 11:08 0,1 °C 0,1 °C 81 % 1007,9 hPa 0,0 mm 1,4 km/h (1 Bft) O 86 ° 0 min 0,000 mm 1,5 UV-I 186 W/m² -2,8 °C 3,2 km/h (1 Bft)
09.11.2016 11:09 0,1 °C 0,1 °C 81 % 1007,9 hPa 0,0 mm 0,9 km/h (0 Bft) O 86 ° 0 min 0,000 mm 1,5 UV-I 178 W/m² -2,8 °C 1,6 km/h (1 Bft)
09.11.2016 11:10 0,1 °C 0,1 °C 81 % 1007,9 hPa 0,0 mm 0,9 km/h (0 Bft) O 86 ° 0 min 0,000 mm 1,5 UV-I 169 W/m² -2,8 °C 1,6 km/h (1 Bft)
09.11.2016 11:11 0,2 °C 0,2 °C 81 % 1007,8 hPa 0,0 mm 0,0 km/h (0 Bft) O 86 ° 0 min 0,000 mm 1,5 UV-I 158 W/m² -2,7 °C 0,0 km/h (0 Bft)
09.11.2016 11:12 0,2 °C 0,2 °C 81 % 1007,9 hPa 0,0 mm 1,3 km/h (1 Bft) O 86 ° 0 min 0,000 mm 1,5 UV-I 146 W/m² -2,7 °C 3,2 km/h (1 Bft)
09.11.2016 11:13 0,2 °C 0,2 °C 81 % 1007,8 hPa 0,0 mm 1,0 km/h (0 Bft) O 86 ° 0 min 0,000 mm 1,5 UV-I 134 W/m² -2,7 °C 1,6 km/h (1 Bft)
09.11.2016 11:14 0,2 °C 0,2 °C 81 % 1007,8 hPa 0,0 mm 0,6 km/h (0 Bft) O 86 ° 0 min 0,000 mm 1,4 UV-I 116 W/m² -2,7 °C 3,2 km/h (1 Bft)
09.11.2016 11:15 0,2 °C 0,2 °C 81 % 1007,8 hPa 0,0 mm 1,7 km/h (1 Bft) O 86 ° 0 min 0,000 mm 1,4 UV-I 111 W/m² -2,7 °C 3,2 km/h (1 Bft)
09.11.2016 11:16 0,2 °C 0,2 °C 81 % 1007,8 hPa 0,0 mm 1,7 km/h (1 Bft) O 86 ° 0 min 0,000 mm 1,4 UV-I 105 W/m² -2,7 °C 3,2 km/h (1 Bft)
09.11.2016 11:17 0,2 °C 0,2 °C 81 % 1007,8 hPa 0,0 mm 1,1 km/h (1 Bft) O 86 ° 0 min 0,000 mm 1,4 UV-I 102 W/m² -2,7 °C 3,2 km/h (1 Bft)
09.11.2016 11:18 0,2 °C 0,2 °C 81 % 1007,7 hPa 0,0 mm 1,1 km/h (1 Bft) O 86 ° 0 min 0,000 mm 1,4 UV-I 100 W/m² -2,7 °C 1,6 km/h (1 Bft)
09.11.2016 11:19 0,2 °C 0,2 °C 81 % 1007,7 hPa 0,0 mm 2,7 km/h (1 Bft) O 86 ° 0 min 0,000 mm 1,4 UV-I 100 W/m² -2,7 °C 4,8 km/h (1 Bft)
09.11.2016 11:20 0,2 °C 0,2 °C 81 % 1007,7 hPa 0,0 mm 1,7 km/h (1 Bft) O 86 ° 0 min 0,000 mm 1,4 UV-I 100 W/m² -2,7 °C 3,2 km/h (1 Bft)
09.11.2016 11:21 0,1 °C 0,2 °C 82 % 1007,7 hPa 0,0 mm 1,7 km/h (1 Bft) O 86 ° 0 min 0,000 mm 1,4 UV-I 100 W/m² -2,6 °C 3,2 km/h (1 Bft)
09.11.2016 11:22 0,1 °C 0,1 °C 82 % 1007,7 hPa 0,0 mm 1,1 km/h (1 Bft) O 86 ° 0 min 0,000 mm 1,4 UV-I 100 W/m² -2,6 °C 1,6 km/h (1 Bft)
09.11.2016 11:23 0,1 °C 0,1 °C 82 % 1007,6 hPa 0,0 mm 0,3 km/h (0 Bft) O 86 ° 0 min 0,000 mm 1,4 UV-I 104 W/m² -2,6 °C 1,6 km/h (1 Bft)
09.11.2016 11:24 0,1 °C 0,1 °C 82 % 1007,7 hPa 0,0 mm 0,0 km/h (0 Bft) O 86 ° 0 min 0,000 mm 1,4 UV-I 105 W/m² -2,6 °C 0,0 km/h (0 Bft)
09.11.2016 11:25 0,1 °C 0,1 °C 82 % 1007,6 hPa 0,0 mm 0,0 km/h (0 Bft) O 86 ° 0 min 0,000 mm 1,4 UV-I 105 W/m² -2,6 °C 0,0 km/h (0 Bft)
09.11.2016 11:26 0,2 °C 0,2 °C 81 % 1007,6 hPa 0,0 mm 0,8 km/h (0 Bft) O 86 ° 0 min 0,000 mm 1,4 UV-I 105 W/m² -2,7 °C 1,6 km/h (1 Bft)
09.11.2016 11:27 0,2 °C 0,2 °C 81 % 1007,6 hPa 0,0 mm 0,1 km/h (0 Bft) O 86 ° 0 min 0,000 mm 1,3 UV-I 102 W/m² -2,7 °C 1,6 km/h (1 Bft)
09.11.2016 11:28 0,2 °C 0,2 °C 81 % 1007,6 hPa 0,0 mm 0,0 km/h (0 Bft) O 86 ° 0 min 0,000 mm 1,3 UV-I 100 W/m² -2,7 °C 0,0 km/h (0 Bft)
09.11.2016 11:29 0,2 °C 0,2 °C 81 % 1007,6 hPa 0,0 mm 0,7 km/h (0 Bft) O 86 ° 0 min 0,000 mm 1,3 UV-I 100 W/m² -2,7 °C 1,6 km/h (1 Bft)
09.11.2016 11:30 0,2 °C 0,2 °C 82 % 1007,6 hPa 0,0 mm 0,0 km/h (0 Bft) O 86 ° 0 min 0,000 mm 1,3 UV-I 100 W/m² -2,5 °C 0,0 km/h (0 Bft)
09.11.2016 11:31 0,3 °C 0,3 °C 81 % 1007,6 hPa 0,0 mm 0,0 km/h (0 Bft) O 86 ° 0 min 0,000 mm 1,3 UV-I 104 W/m² -2,6 °C 0,0 km/h (0 Bft)
09.11.2016 11:32 0,3 °C 0,3 °C 81 % 1007,6 hPa 0,0 mm 0,1 km/h (0 Bft) O 86 ° 0 min 0,000 mm 1,4 UV-I 104 W/m² -2,6 °C 1,6 km/h (1 Bft)
09.11.2016 11:33 0,3 °C 0,3 °C 81 % 1007,6 hPa 0,0 mm 0,0 km/h (0 Bft) O 86 ° 0 min 0,000 mm 1,4 UV-I 104 W/m² -2,6 °C 0,0 km/h (0 Bft)
09.11.2016 11:34 0,3 °C 0,3 °C 81 % 1007,5 hPa 0,0 mm 0,4 km/h (0 Bft) O 86 ° 0 min 0,000 mm 1,4 UV-I 105 W/m² -2,6 °C 1,6 km/h (1 Bft)
09.11.2016 11:35 0,3 °C 0,3 °C 81 % 1007,5 hPa 0,0 mm 1,0 km/h (0 Bft) O 86 ° 0 min 0,000 mm 1,4 UV-I 104 W/m² -2,6 °C 1,6 km/h (1 Bft)
09.11.2016 11:36 0,3 °C 0,3 °C 83 % 1007,5 hPa 0,0 mm 0,1 km/h (0 Bft) O 86 ° 0 min 0,000 mm 1,4 UV-I 104 W/m² -2,2 °C 1,6 km/h (1 Bft)
09.11.2016 11:37 0,3 °C 0,4 °C 82 % 1007,5 hPa 0,0 mm 0,0 km/h (0 Bft) O 86 ° 0 min 0,000 mm 1,4 UV-I 102 W/m² -2,4 °C 0,0 km/h (0 Bft)
09.11.2016 11:38 0,3 °C 0,4 °C 82 % 1007,5 hPa 0,0 mm 0,0 km/h (0 Bft) O 86 ° 0 min 0,000 mm 1,4 UV-I 102 W/m² -2,4 °C 0,0 km/h (0 Bft)
09.11.2016 11:39 0,3 °C 0,3 °C 81 % 1007,5 hPa 0,0 mm 0,0 km/h (0 Bft) O 86 ° 0 min 0,000 mm 1,4 UV-I 100 W/m² -2,6 °C 0,0 km/h (0 Bft)
09.11.2016 11:40 0,3 °C 0,3 °C 81 % 1007,5 hPa 0,0 mm 0,0 km/h (0 Bft) O 86 ° 0 min 0,000 mm 1,4 UV-I 98 W/m² -2,6 °C 0,0 km/h (0 Bft)
09.11.2016 11:41 0,3 °C 0,3 °C 81 % 1007,5 hPa 0,2 mm 0,0 km/h (0 Bft) O 86 ° 0 min 0,000 mm 1,4 UV-I 97 W/m² -2,6 °C 0,0 km/h (0 Bft)
09.11.2016 11:42 0,4 °C 0,4 °C 81 % 1007,5 hPa 0,0 mm 0,0 km/h (0 Bft) O 86 ° 0 min 0,000 mm 1,4 UV-I 97 W/m² -2,5 °C 0,0 km/h (0 Bft)
09.11.2016 11:43 0,4 °C 0,4 °C 81 % 1007,5 hPa 0,0 mm 0,0 km/h (0 Bft) O 86 ° 0 min 0,000 mm 1,3 UV-I 95 W/m² -2,5 °C 0,0 km/h (0 Bft)
09.11.2016 11:44 0,4 °C 0,4 °C 81 % 1007,4 hPa 0,0 mm 0,0 km/h (0 Bft) O 86 ° 0 min 0,000 mm 1,3 UV-I 95 W/m² -2,5 °C 0,0 km/h (0 Bft)
09.11.2016 11:45 0,4 °C 0,4 °C 80 % 1007,4 hPa 0,0 mm 0,0 km/h (0 Bft) O 86 ° 0 min 0,000 mm 1,3 UV-I 97 W/m² -2,6 °C 0,0 km/h (0 Bft)
09.11.2016 11:46 0,4 °C 0,4 °C 81 % 1007,4 hPa 0,0 mm 0,0 km/h (0 Bft) O 86 ° 0 min 0,000 mm 1,3 UV-I 97 W/m² -2,5 °C 0,0 km/h (0 Bft)
09.11.2016 11:47 0,4 °C 0,4 °C 80 % 1007,4 hPa 0,0 mm 0,0 km/h (0 Bft) O 86 ° 0 min 0,000 mm 1,3 UV-I 97 W/m² -2,6 °C 0,0 km/h (0 Bft)
09.11.2016 11:48 0,4 °C 0,5 °C 81 % 1007,4 hPa 0,0 mm 0,0 km/h (0 Bft) O 86 ° 0 min 0,000 mm 1,4 UV-I 98 W/m² -2,5 °C 0,0 km/h (0 Bft)
09.11.2016 11:49 0,5 °C 0,5 °C 81 % 1007,3 hPa 0,0 mm 0,7 km/h (0 Bft) O 86 ° 0 min 0,000 mm 1,4 UV-I 100 W/m² -2,4 °C 1,6 km/h (1 Bft)
09.11.2016 11:50 0,6 °C 0,6 °C 81 % 1007,3 hPa 0,0 mm 1,2 km/h (1 Bft) O 86 ° 0 min 0,000 mm 1,4 UV-I 100 W/m² -2,3 °C 1,6 km/h (1 Bft)
09.11.2016 11:51 0,6 °C 0,6 °C 81 % 1007,3 hPa 0,0 mm 0,5 km/h (0 Bft) O 86 ° 0 min 0,000 mm 1,4 UV-I 100 W/m² -2,3 °C 1,6 km/h (1 Bft)
09.11.2016 11:52 0,7 °C 0,7 °C 81 % 1007,3 hPa 0,0 mm 0,1 km/h (0 Bft) O 86 ° 0 min 0,000 mm 1,4 UV-I 102 W/m² -2,2 °C 1,6 km/h (1 Bft)
09.11.2016 11:53 0,7 °C 0,7 °C 81 % 1007,3 hPa 0,0 mm 0,0 km/h (0 Bft) O 86 ° 0 min 0,000 mm 1,4 UV-I 102 W/m² -2,2 °C 0,0 km/h (0 Bft)
09.11.2016 11:54 0,7 °C 0,7 °C 81 % 1007,2 hPa 0,0 mm 1,2 km/h (1 Bft) O 86 ° 0 min 0,000 mm 1,4 UV-I 104 W/m² -2,2 °C 3,2 km/h (1 Bft)
09.11.2016 11:55 0,8 °C 0,8 °C 81 % 1007,3 hPa 0,0 mm 0,9 km/h (0 Bft) O 86 ° 0 min 0,000 mm 1,4 UV-I 105 W/m² -2,1 °C 3,2 km/h (1 Bft)
09.11.2016 11:56 0,8 °C 0,8 °C 80 % 1007,3 hPa 0,0 mm 2,7 km/h (1 Bft) NO 44 ° 0 min 0,000 mm 1,4 UV-I 107 W/m² -2,2 °C 4,8 km/h (1 Bft)
09.11.2016 11:57 0,8 °C 0,8 °C 80 % 1007,2 hPa 0,0 mm 1,5 km/h (1 Bft) NO 44 ° 0 min 0,000 mm 1,4 UV-I 109 W/m² -2,2 °C 3,2 km/h (1 Bft)
09.11.2016 11:58 0,8 °C 0,8 °C 80 % 1007,2 hPa 0,0 mm 0,2 km/h (0 Bft) NO 44 ° 0 min 0,000 mm 1,4 UV-I 111 W/m² -2,2 °C 1,6 km/h (1 Bft)
09.11.2016 11:59 0,8 °C 0,8 °C 80 % 1007,2 hPa 0,0 mm 0,9 km/h (0 Bft) NO 44 ° 0 min 0,000 mm 1,4 UV-I 111 W/m² -2,2 °C 1,6 km/h (1 Bft)
09.11.2016 12:00 0,8 °C 0,8 °C 79 % 1007,2 hPa 0,0 mm 0,8 km/h (0 Bft) NO 44 ° 0 min 0,051 mm 1,4 UV-I 113 W/m² -2,4 °C 3,2 km/h (1 Bft)
09.11.2016 12:01 1,0 °C 1,0 °C 79 % 1007,2 hPa 0,0 mm 0,2 km/h (0 Bft) NO 44 ° 0 min 0,000 mm 1,4 UV-I 114 W/m² -2,2 °C 1,6 km/h (1 Bft)
09.11.2016 12:02 1,0 °C 1,0 °C 79 % 1007,2 hPa 0,0 mm 0,8 km/h (0 Bft) NO 44 ° 0 min 0,000 mm 1,4 UV-I 116 W/m² -2,2 °C 3,2 km/h (1 Bft)
09.11.2016 12:03 1,1 °C 1,1 °C 80 % 1007,2 hPa 0,0 mm 2,4 km/h (1 Bft) NO 44 ° 0 min 0,000 mm 1,4 UV-I 116 W/m² -2,0 °C 3,2 km/h (1 Bft)
09.11.2016 12:04 0,9 °C 1,1 °C 80 % 1007,2 hPa 0,0 mm 2,4 km/h (1 Bft) NO 44 ° 0 min 0,000 mm 1,4 UV-I 118 W/m² -2,2 °C 3,2 km/h (1 Bft)
09.11.2016 12:05 0,8 °C 0,9 °C 81 % 1007,2 hPa 0,0 mm 2,3 km/h (1 Bft) NO 44 ° 0 min 0,000 mm 1,4 UV-I 120 W/m² -2,1 °C 3,2 km/h (1 Bft)
09.11.2016 12:06 0,8 °C 0,8 °C 81 % 1007,1 hPa 0,0 mm 1,9 km/h (1 Bft) NO 44 ° 0 min 0,000 mm 1,4 UV-I 121 W/m² -2,1 °C 3,2 km/h (1 Bft)
09.11.2016 12:07 0,8 °C 0,8 °C 82 % 1007,1 hPa 0,0 mm 2,3 km/h (1 Bft) NO 44 ° 0 min 0,000 mm 1,4 UV-I 123 W/m² -1,9 °C 3,2 km/h (1 Bft)
09.11.2016 12:08 0,8 °C 0,8 °C 81 % 1007,1 hPa 0,0 mm 1,7 km/h (1 Bft) NO 44 ° 0 min 0,000 mm 1,5 UV-I 125 W/m² -2,1 °C 3,2 km/h (1 Bft)
09.11.2016 12:09 0,9 °C 0,9 °C 80 % 1007,1 hPa 0,0 mm 0,4 km/h (0 Bft) NO 44 ° 0 min 0,000 mm 1,5 UV-I 127 W/m² -2,2 °C 1,6 km/h (1 Bft)
09.11.2016 12:10 1,0 °C 1,0 °C 80 % 1007,0 hPa 0,0 mm 0,1 km/h (0 Bft) NO 44 ° 0 min 0,000 mm 1,5 UV-I 132 W/m² -2,1 °C 1,6 km/h (1 Bft)
09.11.2016 12:11 1,2 °C 1,2 °C 79 % 1007,1 hPa 0,0 mm 0,0 km/h (0 Bft) NO 44 ° 0 min 0,000 mm 1,5 UV-I 135 W/m² -2,0 °C 0,0 km/h (0 Bft)
09.11.2016 12:12 1,2 °C 1,2 °C 79 % 1007,0 hPa 0,0 mm 0,0 km/h (0 Bft) NO 44 ° 0 min 0,000 mm 1,5 UV-I 141 W/m² -2,0 °C 0,0 km/h (0 Bft)
09.11.2016 12:13 1,3 °C 1,3 °C 79 % 1007,0 hPa 0,0 mm 1,8 km/h (1 Bft) NO 44 ° 0 min 0,000 mm 1,5 UV-I 142 W/m² -1,9 °C 3,2 km/h (1 Bft)
09.11.2016 12:14 1,3 °C 1,3 °C 78 % 1007,0 hPa 0,0 mm 1,7 km/h (1 Bft) NO 44 ° 0 min 0,000 mm 1,5 UV-I 144 W/m² -2,1 °C 3,2 km/h (1 Bft)
09.11.2016 12:15 1,3 °C 1,4 °C 79 % 1007,0 hPa 0,0 mm 1,3 km/h (1 Bft) NO 44 ° 0 min 0,000 mm 1,5 UV-I 146 W/m² -1,9 °C 3,2 km/h (1 Bft)
09.11.2016 12:16 1,3 °C 1,3 °C 79 % 1007,0 hPa 0,0 mm 0,2 km/h (0 Bft) NO 44 ° 0 min 0,000 mm 1,5 UV-I 146 W/m² -1,9 °C 1,6 km/h (1 Bft)
09.11.2016 12:17 1,3 °C 1,3 °C 78 % 1007,0 hPa 0,0 mm 1,6 km/h (1 Bft) NO 44 ° 0 min 0,000 mm 1,5 UV-I 146 W/m² -2,1 °C 3,2 km/h (1 Bft)
09.11.2016 12:18 1,3 °C 1,3 °C 78 % 1007,0 hPa 0,0 mm 1,3 km/h (1 Bft) NO 44 ° 0 min 0,000 mm 1,5 UV-I 146 W/m² -2,1 °C 1,6 km/h (1 Bft)
09.11.2016 12:19 1,3 °C 1,3 °C 79 % 1007,0 hPa 0,0 mm 0,2 km/h (0 Bft) NO 44 ° 0 min 0,000 mm 1,5 UV-I 146 W/m² -1,9 °C 1,6 km/h (1 Bft)
09.11.2016 12:20 1,3 °C 1,3 °C 79 % 1007,0 hPa 0,0 mm 0,0 km/h (0 Bft) NO 44 ° 0 min 0,000 mm 1,4 UV-I 144 W/m² -1,9 °C 0,0 km/h (0 Bft)
09.11.2016 12:21 1,3 °C 1,3 °C 78 % 1007,0 hPa 0,0 mm 0,5 km/h (0 Bft) NO 44 ° 0 min 0,000 mm 1,4 UV-I 142 W/m² -2,1 °C 3,2 km/h (1 Bft)
09.11.2016 12:22 1,3 °C 1,3 °C 78 % 1007,0 hPa 0,0 mm 0,3 km/h (0 Bft) NO 44 ° 0 min 0,000 mm 1,4 UV-I 141 W/m² -2,1 °C 1,6 km/h (1 Bft)
09.11.2016 12:23 1,2 °C 1,3 °C 78 % 1007,0 hPa 0,0 mm 0,0 km/h (0 Bft) NO 44 ° 0 min 0,000 mm 1,4 UV-I 139 W/m² -2,2 °C 0,0 km/h (0 Bft)
09.11.2016 12:24 1,2 °C 1,2 °C 77 % 1007,0 hPa 0,0 mm 0,3 km/h (0 Bft) NO 44 ° 0 min 0,000 mm 1,4 UV-I 135 W/m² -2,4 °C 1,6 km/h (1 Bft)
09.11.2016 12:25 1,2 °C 1,2 °C 77 % 1007,0 hPa 0,0 mm 0,1 km/h (0 Bft) NO 44 ° 0 min 0,000 mm 1,4 UV-I 135 W/m² -2,4 °C 1,6 km/h (1 Bft)
09.11.2016 12:26 1,2 °C 1,2 °C 79 % 1007,0 hPa 0,0 mm 0,0 km/h (0 Bft) NO 44 ° 0 min 0,000 mm 1,4 UV-I 134 W/m² -2,0 °C 0,0 km/h (0 Bft)
09.11.2016 12:27 1,2 °C 1,2 °C 81 % 1006,9 hPa 0,0 mm 0,4 km/h (0 Bft) NO 44 ° 0 min 0,000 mm 1,4 UV-I 134 W/m² -1,7 °C 1,6 km/h (1 Bft)
09.11.2016 12:28 1,2 °C 1,2 °C 82 % 1006,9 hPa 0,0 mm 0,9 km/h (0 Bft) NO 44 ° 0 min 0,000 mm 1,4 UV-I 134 W/m² -1,5 °C 1,6 km/h (1 Bft)
09.11.2016 12:29 1,2 °C 1,2 °C 82 % 1006,9 hPa 0,0 mm 0,3 km/h (0 Bft) NO 44 ° 0 min 0,000 mm 1,4 UV-I 134 W/m² -1,5 °C 1,6 km/h (1 Bft)
09.11.2016 12:30 1,3 °C 1,3 °C 81 % 1007,0 hPa 0,0 mm 0,7 km/h (0 Bft) NO 44 ° 0 min 0,000 mm 1,4 UV-I 135 W/m² -1,6 °C 1,6 km/h (1 Bft)
09.11.2016 12:31 1,3 °C 1,3 °C 80 % 1007,0 hPa 0,0 mm 0,5 km/h (0 Bft) NO 44 ° 0 min 0,000 mm 1,4 UV-I 137 W/m² -1,8 °C 1,6 km/h (1 Bft)
09.11.2016 12:32 1,4 °C 1,4 °C 79 % 1007,0 hPa 0,0 mm 1,2 km/h (1 Bft) NO 44 ° 0 min 0,000 mm 1,4 UV-I 139 W/m² -1,8 °C 1,6 km/h (1 Bft)
09.11.2016 12:33 1,4 °C 1,4 °C 78 % 1006,8 hPa 0,0 mm 0,9 km/h (0 Bft) NO 44 ° 0 min 0,000 mm 1,4 UV-I 142 W/m² -2,0 °C 1,6 km/h (1 Bft)
09.11.2016 12:34 1,5 °C 1,5 °C 78 % 1006,9 hPa 0,0 mm 0,3 km/h (0 Bft) NO 44 ° 0 min 0,000 mm 1,4 UV-I 144 W/m² -1,9 °C 1,6 km/h (1 Bft)
09.11.2016 12:35 1,7 °C 1,7 °C 77 % 1006,9 hPa 0,0 mm 0,0 km/h (0 Bft) NO 44 ° 0 min 0,000 mm 1,4 UV-I 148 W/m² -1,9 °C 0,0 km/h (0 Bft)
09.11.2016 12:36 1,8 °C 1,8 °C 77 % 1006,9 hPa 0,0 mm 0,0 km/h (0 Bft) NO 44 ° 0 min 0,000 mm 1,4 UV-I 155 W/m² -1,8 °C 0,0 km/h (0 Bft)
09.11.2016 12:37 1,8 °C 1,8 °C 77 % 1006,9 hPa 0,0 mm 1,9 km/h (1 Bft) NO 44 ° 0 min 0,000 mm 1,4 UV-I 160 W/m² -1,8 °C 3,2 km/h (1 Bft)
09.11.2016 12:38 1,7 °C 1,8 °C 80 % 1006,8 hPa 0,0 mm 3,3 km/h (1 Bft) NO 44 ° 0 min 0,000 mm 1,4 UV-I 162 W/m² -1,4 °C 4,8 km/h (1 Bft)
09.11.2016 12:39 1,7 °C 1,7 °C 80 % 1006,8 hPa 0,0 mm 3,8 km/h (1 Bft) NO 52 ° 0 min 0,000 mm 1,4 UV-I 163 W/m² -1,4 °C 4,8 km/h (1 Bft)
09.11.2016 12:40 1,6 °C 1,7 °C 81 % 1006,8 hPa 0,0 mm 4,0 km/h (1 Bft) O-NO 63 ° 0 min 0,000 mm 1,4 UV-I 163 W/m² -1,3 °C 6,4 km/h (2 Bft)
09.11.2016 12:41 1,6 °C 1,7 °C 81 % 1006,8 hPa 0,0 mm 3,2 km/h (1 Bft) O-NO 63 ° 0 min 0,000 mm 1,4 UV-I 162 W/m² -1,3 °C 4,8 km/h (1 Bft)
09.11.2016 12:42 1,6 °C 1,6 °C 81 % 1006,8 hPa 0,0 mm 3,8 km/h (1 Bft) O-NO 63 ° 0 min 0,000 mm 1,4 UV-I 162 W/m² -1,3 °C 4,8 km/h (1 Bft)
09.11.2016 12:43 1,4 °C 1,6 °C 82 % 1006,7 hPa 0,0 mm 3,4 km/h (1 Bft) O-NO 63 ° 0 min 0,000 mm 1,4 UV-I 160 W/m² -1,3 °C 4,8 km/h (1 Bft)
09.11.2016 12:44 1,4 °C 1,4 °C 82 % 1006,7 hPa 0,0 mm 2,3 km/h (1 Bft) O-NO 63 ° 0 min 0,000 mm 1,4 UV-I 160 W/m² -1,3 °C 3,2 km/h (1 Bft)
09.11.2016 12:45 1,5 °C 1,5 °C 79 % 1006,7 hPa 0,2 mm 0,4 km/h (0 Bft) O-NO 63 ° 0 min 0,000 mm 1,4 UV-I 160 W/m² -1,7 °C 1,6 km/h (1 Bft)
09.11.2016 12:46 1,6 °C 1,6 °C 79 % 1006,7 hPa 0,0 mm 0,0 km/h (0 Bft) O-NO 63 ° 0 min 0,000 mm 1,4 UV-I 162 W/m² -1,6 °C 0,0 km/h (0 Bft)
09.11.2016 12:47 1,7 °C 1,7 °C 78 % 1006,7 hPa 0,0 mm 0,3 km/h (0 Bft) O-NO 63 ° 0 min 0,000 mm 1,3 UV-I 162 W/m² -1,7 °C 1,6 km/h (1 Bft)
09.11.2016 12:48 1,8 °C 1,8 °C 77 % 1006,7 hPa 0,0 mm 0,0 km/h (0 Bft) O-NO 63 ° 0 min 0,000 mm 1,3 UV-I 165 W/m² -1,8 °C 0,0 km/h (0 Bft)
09.11.2016 12:49 1,7 °C 1,8 °C 78 % 1006,6 hPa 0,0 mm 2,1 km/h (1 Bft) O-NO 63 ° 0 min 0,000 mm 1,3 UV-I 167 W/m² -1,7 °C 3,2 km/h (1 Bft)
09.11.2016 12:50 1,6 °C 1,7 °C 82 % 1006,7 hPa 0,0 mm 3,9 km/h (1 Bft) O-NO 63 ° 0 min 0,000 mm 1,3 UV-I 169 W/m² -1,1 °C 4,8 km/h (1 Bft)
09.11.2016 12:51 1,6 °C 1,6 °C 82 % 1006,6 hPa 0,0 mm 4,8 km/h (1 Bft) O-NO 63 ° 0 min 0,000 mm 1,3 UV-I 172 W/m² -1,1 °C 6,4 km/h (2 Bft)
09.11.2016 12:52 1,6 °C 1,6 °C 80 % 1006,6 hPa 0,0 mm 5,1 km/h (1 Bft) NO 48 ° 0 min 0,000 mm 1,3 UV-I 174 W/m² -1,5 °C 6,4 km/h (2 Bft)
09.11.2016 12:53 1,6 °C 1,6 °C 79 % 1006,6 hPa 0,0 mm 6,1 km/h (2 Bft) NO 55 ° 0 min 0,000 mm 1,3 UV-I 176 W/m² -1,6 °C 8,0 km/h (2 Bft)
09.11.2016 12:54 1,7 °C 1,7 °C 80 % 1006,5 hPa 0,0 mm 5,2 km/h (1 Bft) O-NO 67 ° 0 min 0,000 mm 1,3 UV-I 178 W/m² -1,4 °C 6,4 km/h (2 Bft)
09.11.2016 12:55 1,7 °C 1,7 °C 81 % 1006,5 hPa 0,0 mm 3,3 km/h (1 Bft) O-NO 67 ° 0 min 0,000 mm 1,3 UV-I 179 W/m² -1,2 °C 4,8 km/h (1 Bft)
09.11.2016 12:56 1,7 °C 1,7 °C 82 % 1006,5 hPa 0,0 mm 1,9 km/h (1 Bft) O-NO 67 ° 0 min 0,000 mm 1,3 UV-I 181 W/m² -1,0 °C 3,2 km/h (1 Bft)
09.11.2016 12:57 1,7 °C 1,7 °C 81 % 1006,5 hPa 0,0 mm 1,8 km/h (1 Bft) O-NO 67 ° 0 min 0,000 mm 1,3 UV-I 183 W/m² -1,2 °C 4,8 km/h (1 Bft)
09.11.2016 12:58 1,7 °C 1,7 °C 81 % 1006,5 hPa 0,0 mm 0,5 km/h (0 Bft) O-NO 67 ° 0 min 0,000 mm 1,3 UV-I 185 W/m² -1,2 °C 3,2 km/h (1 Bft)
09.11.2016 12:59 1,8 °C 1,8 °C 80 % 1006,5 hPa 0,0 mm 0,0 km/h (0 Bft) O-NO 67 ° 0 min 0,000 mm 1,3 UV-I 186 W/m² -1,3 °C 0,0 km/h (0 Bft)
09.11.2016 13:00 1,9 °C 1,9 °C 80 % 1006,5 hPa 0,0 mm 0,1 km/h (0 Bft) O-NO 67 ° 0 min 0,000 mm 1,3 UV-I 188 W/m² -1,2 °C 1,6 km/h (1 Bft)
09.11.2016 13:01 1,9 °C 1,9 °C 79 % 1006,5 hPa 0,0 mm 0,9 km/h (0 Bft) O-NO 67 ° 0 min 0,051 mm 1,3 UV-I 190 W/m² -1,3 °C 1,6 km/h (1 Bft)
09.11.2016 13:02 1,9 °C 1,9 °C 79 % 1006,5 hPa 0,0 mm 0,4 km/h (0 Bft) O-NO 67 ° 0 min 0,000 mm 1,3 UV-I 190 W/m² -1,3 °C 1,6 km/h (1 Bft)
09.11.2016 13:03 1,9 °C 1,9 °C 79 % 1006,5 hPa 0,0 mm 0,3 km/h (0 Bft) O-NO 67 ° 0 min 0,000 mm 1,3 UV-I 190 W/m² -1,3 °C 1,6 km/h (1 Bft)
09.11.2016 13:04 1,9 °C 1,9 °C 79 % 1006,5 hPa 0,0 mm 0,0 km/h (0 Bft) O-NO 67 ° 0 min 0,000 mm 1,3 UV-I 190 W/m² -1,3 °C 0,0 km/h (0 Bft)
09.11.2016 13:05 1,9 °C 1,9 °C 80 % 1006,5 hPa 0,0 mm 1,3 km/h (1 Bft) O-NO 67 ° 0 min 0,000 mm 1,4 UV-I 190 W/m² -1,2 °C 3,2 km/h (1 Bft)
09.11.2016 13:06 1,9 °C 1,9 °C 80 % 1006,5 hPa 0,0 mm 2,7 km/h (1 Bft) O-NO 67 ° 0 min 0,000 mm 1,4 UV-I 193 W/m² -1,2 °C 3,2 km/h (1 Bft)
09.11.2016 13:07 1,9 °C 1,9 °C 81 % 1006,5 hPa 0,0 mm 0,8 km/h (0 Bft) O-NO 67 ° 0 min 0,000 mm 1,4 UV-I 195 W/m² -1,0 °C 3,2 km/h (1 Bft)
09.11.2016 13:08 1,9 °C 1,9 °C 79 % 1006,5 hPa 0,0 mm 1,5 km/h (1 Bft) O-NO 67 ° 0 min 0,000 mm 1,4 UV-I 199 W/m² -1,3 °C 3,2 km/h (1 Bft)
09.11.2016 13:09 2,1 °C 2,1 °C 78 % 1006,4 hPa 0,0 mm 1,5 km/h (1 Bft) O-NO 67 ° 0 min 0,000 mm 1,4 UV-I 204 W/m² -1,3 °C 3,2 km/h (1 Bft)
09.11.2016 13:10 2,1 °C 2,2 °C 79 % 1006,4 hPa 0,0 mm 1,5 km/h (1 Bft) O-NO 67 ° 0 min 0,000 mm 1,4 UV-I 207 W/m² -1,2 °C 3,2 km/h (1 Bft)
09.11.2016 13:11 2,2 °C 2,2 °C 79 % 1006,4 hPa 0,0 mm 2,3 km/h (1 Bft) O-NO 67 ° 0 min 0,000 mm 1,4 UV-I 213 W/m² -1,1 °C 4,8 km/h (1 Bft)
09.11.2016 13:12 2,2 °C 2,2 °C 77 % 1006,4 hPa 0,0 mm 1,8 km/h (1 Bft) O-NO 67 ° 0 min 0,000 mm 1,4 UV-I 213 W/m² -1,4 °C 3,2 km/h (1 Bft)
09.11.2016 13:13 2,3 °C 2,3 °C 76 % 1006,4 hPa 0,0 mm 2,9 km/h (1 Bft) O-NO 76 ° 0 min 0,000 mm 1,4 UV-I 211 W/m² -1,5 °C 4,8 km/h (1 Bft)
09.11.2016 13:14 2,3 °C 2,3 °C 77 % 1006,4 hPa 0,0 mm 1,7 km/h (1 Bft) O-NO 76 ° 0 min 0,000 mm 1,4 UV-I 211 W/m² -1,3 °C 3,2 km/h (1 Bft)
09.11.2016 13:15 2,3 °C 2,3 °C 77 % 1006,4 hPa 0,0 mm 1,1 km/h (1 Bft) O-NO 76 ° 0 min 0,000 mm 1,4 UV-I 213 W/m² -1,3 °C 1,6 km/h (1 Bft)
09.11.2016 13:16 2,4 °C 2,4 °C 76 % 1006,3 hPa 0,0 mm 0,2 km/h (0 Bft) O-NO 76 ° 0 min 0,000 mm 1,4 UV-I 214 W/m² -1,4 °C 1,6 km/h (1 Bft)
09.11.2016 13:17 2,4 °C 2,4 °C 77 % 1006,3 hPa 0,0 mm 2,4 km/h (1 Bft) O 94 ° 1 min 0,000 mm 1,4 UV-I 218 W/m² -1,2 °C 4,8 km/h (1 Bft)
09.11.2016 13:18 2,4 °C 2,4 °C 75 % 1006,3 hPa 0,0 mm 1,1 km/h (1 Bft) O 94 ° 0 min 0,000 mm 1,3 UV-I 216 W/m² -1,6 °C 1,6 km/h (1 Bft)
09.11.2016 13:19 2,4 °C 2,4 °C 77 % 1006,3 hPa 0,0 mm 0,1 km/h (0 Bft) O 94 ° 0 min 0,000 mm 1,3 UV-I 216 W/m² -1,2 °C 1,6 km/h (1 Bft)
09.11.2016 13:20 2,4 °C 2,5 °C 77 % 1006,3 hPa 0,2 mm 1,0 km/h (0 Bft) O 94 ° 1 min 0,000 mm 1,3 UV-I 225 W/m² -1,2 °C 1,6 km/h (1 Bft)
09.11.2016 13:21 2,5 °C 2,5 °C 76 % 1006,3 hPa 0,0 mm 0,6 km/h (0 Bft) O 94 ° 1 min 0,000 mm 1,3 UV-I 223 W/m² -1,3 °C 1,6 km/h (1 Bft)
09.11.2016 13:22 2,5 °C 2,6 °C 77 % 1006,3 hPa 0,0 mm 0,4 km/h (0 Bft) O 94 ° 0 min 0,000 mm 1,3 UV-I 213 W/m² -1,1 °C 1,6 km/h (1 Bft)
09.11.2016 13:23 2,5 °C 2,5 °C 77 % 1006,3 hPa 0,0 mm 1,6 km/h (1 Bft) O 94 ° 0 min 0,000 mm 1,3 UV-I 206 W/m² -1,1 °C 3,2 km/h (1 Bft)
09.11.2016 13:24 2,6 °C 2,6 °C 76 % 1006,3 hPa 0,0 mm 1,2 km/h (1 Bft) O 94 ° 0 min 0,000 mm 1,3 UV-I 195 W/m² -1,2 °C 1,6 km/h (1 Bft)
09.11.2016 13:25 2,5 °C 2,6 °C 77 % 1006,3 hPa 0,0 mm 0,9 km/h (0 Bft) O 94 ° 0 min 0,000 mm 1,2 UV-I 185 W/m² -1,1 °C 1,6 km/h (1 Bft)
09.11.2016 13:26 2,5 °C 2,5 °C 76 % 1006,2 hPa 0,0 mm 1,1 km/h (1 Bft) O 94 ° 0 min 0,000 mm 1,2 UV-I 174 W/m² -1,3 °C 1,6 km/h (1 Bft)
09.11.2016 13:27 2,6 °C 2,6 °C 76 % 1006,2 hPa 0,0 mm 0,9 km/h (0 Bft) O 94 ° 0 min 0,000 mm 1,2 UV-I 169 W/m² -1,2 °C 1,6 km/h (1 Bft)
09.11.2016 13:28 2,6 °C 2,6 °C 77 % 1006,2 hPa 0,0 mm 1,1 km/h (1 Bft) O 94 ° 0 min 0,000 mm 1,2 UV-I 163 W/m² -1,0 °C 1,6 km/h (1 Bft)
09.11.2016 13:29 2,5 °C 2,6 °C 77 % 1006,3 hPa 0,0 mm 1,2 km/h (1 Bft) O 94 ° 0 min 0,000 mm 1,1 UV-I 162 W/m² -1,1 °C 3,2 km/h (1 Bft)
09.11.2016 13:30 2,4 °C 2,5 °C 77 % 1006,2 hPa 0,0 mm 0,8 km/h (0 Bft) O 94 ° 0 min 0,000 mm 1,1 UV-I 162 W/m² -1,2 °C 1,6 km/h (1 Bft)
09.11.2016 13:31 2,4 °C 2,4 °C 77 % 1006,3 hPa 0,0 mm 0,1 km/h (0 Bft) O 94 ° 0 min 0,000 mm 1,1 UV-I 160 W/m² -1,2 °C 1,6 km/h (1 Bft)
09.11.2016 13:32 2,4 °C 2,4 °C 77 % 1006,2 hPa 0,0 mm 1,5 km/h (1 Bft) O 94 ° 0 min 0,000 mm 1,1 UV-I 160 W/m² -1,2 °C 1,6 km/h (1 Bft)
09.11.2016 13:33 2,4 °C 2,4 °C 77 % 1006,2 hPa 0,0 mm 1,5 km/h (1 Bft) O 94 ° 0 min 0,000 mm 1,1 UV-I 155 W/m² -1,2 °C 3,2 km/h (1 Bft)
09.11.2016 13:34 2,4 °C 2,4 °C 76 % 1006,2 hPa 0,0 mm 2,3 km/h (1 Bft) O 94 ° 0 min 0,000 mm 1,1 UV-I 148 W/m² -1,4 °C 3,2 km/h (1 Bft)
09.11.2016 13:35 2,4 °C 2,4 °C 76 % 1006,2 hPa 0,0 mm 2,3 km/h (1 Bft) O 94 ° 0 min 0,000 mm 1,0 UV-I 142 W/m² -1,4 °C 3,2 km/h (1 Bft)
09.11.2016 13:36 2,4 °C 2,4 °C 77 % 1006,2 hPa 0,0 mm 1,8 km/h (1 Bft) O 94 ° 0 min 0,000 mm 1,0 UV-I 139 W/m² -1,2 °C 3,2 km/h (1 Bft)
09.11.2016 13:37 2,4 °C 2,4 °C 77 % 1006,2 hPa 0,0 mm 1,5 km/h (1 Bft) O 94 ° 0 min 0,000 mm 1,0 UV-I 135 W/m² -1,2 °C 3,2 km/h (1 Bft)
09.11.2016 13:38 2,4 °C 2,5 °C 75 % 1006,2 hPa 0,0 mm 0,3 km/h (0 Bft) O 94 ° 0 min 0,000 mm 0,9 UV-I 132 W/m² -1,6 °C 1,6 km/h (1 Bft)
09.11.2016 13:39 2,5 °C 2,6 °C 75 % 1006,2 hPa 0,0 mm 0,0 km/h (0 Bft) O 94 ° 0 min 0,000 mm 0,9 UV-I 128 W/m² -1,5 °C 0,0 km/h (0 Bft)
09.11.2016 13:40 2,5 °C 2,6 °C 76 % 1006,1 hPa 0,2 mm 0,0 km/h (0 Bft) O 94 ° 0 min 0,000 mm 0,9 UV-I 127 W/m² -1,3 °C 0,0 km/h (0 Bft)
09.11.2016 13:41 2,5 °C 2,5 °C 76 % 1006,1 hPa 0,0 mm 0,0 km/h (0 Bft) O 94 ° 0 min 0,000 mm 0,9 UV-I 128 W/m² -1,3 °C 0,0 km/h (0 Bft)
09.11.2016 13:42 2,5 °C 2,5 °C 76 % 1006,1 hPa 0,0 mm 0,0 km/h (0 Bft) O 94 ° 0 min 0,000 mm 0,9 UV-I 130 W/m² -1,3 °C 0,0 km/h (0 Bft)
09.11.2016 13:43 2,4 °C 2,5 °C 77 % 1006,0 hPa 0,0 mm 0,0 km/h (0 Bft) O 94 ° 0 min 0,000 mm 0,9 UV-I 132 W/m² -1,2 °C 0,0 km/h (0 Bft)
09.11.2016 13:44 2,4 °C 2,5 °C 77 % 1006,1 hPa 0,0 mm 0,0 km/h (0 Bft) O 94 ° 0 min 0,000 mm 0,9 UV-I 135 W/m² -1,2 °C 0,0 km/h (0 Bft)
09.11.2016 13:45 2,4 °C 2,4 °C 77 % 1006,1 hPa 0,0 mm 0,0 km/h (0 Bft) O 94 ° 0 min 0,000 mm 0,9 UV-I 139 W/m² -1,2 °C 0,0 km/h (0 Bft)
09.11.2016 13:46 2,4 °C 2,4 °C 78 % 1006,0 hPa 0,0 mm 0,0 km/h (0 Bft) O 94 ° 0 min 0,000 mm 1,0 UV-I 146 W/m² -1,0 °C 0,0 km/h (0 Bft)
09.11.2016 13:47 2,3 °C 2,4 °C 78 % 1006,0 hPa 0,0 mm 0,1 km/h (0 Bft) O 94 ° 0 min 0,000 mm 1,0 UV-I 148 W/m² -1,1 °C 1,6 km/h (1 Bft)
09.11.2016 13:48 2,3 °C 2,3 °C 79 % 1006,0 hPa 0,0 mm 0,3 km/h (0 Bft) O 94 ° 0 min 0,000 mm 1,0 UV-I 148 W/m² -1,0 °C 1,6 km/h (1 Bft)
09.11.2016 13:49 2,3 °C 2,4 °C 80 % 1006,0 hPa 0,0 mm 0,0 km/h (0 Bft) O 94 ° 0 min 0,000 mm 1,0 UV-I 148 W/m² -0,8 °C 0,0 km/h (0 Bft)
09.11.2016 13:50 2,3 °C 2,4 °C 78 % 1006,0 hPa 0,0 mm 0,0 km/h (0 Bft) O 94 ° 0 min 0,000 mm 1,0 UV-I 146 W/m² -1,1 °C 0,0 km/h (0 Bft)
09.11.2016 13:51 2,4 °C 2,4 °C 78 % 1006,0 hPa 0,0 mm 0,1 km/h (0 Bft) O 94 ° 0 min 0,000 mm 1,0 UV-I 146 W/m² -1,0 °C 1,6 km/h (1 Bft)
09.11.2016 13:52 2,4 °C 2,4 °C 80 % 1006,0 hPa 0,0 mm 0,1 km/h (0 Bft) O 94 ° 0 min 0,000 mm 1,0 UV-I 144 W/m² -0,7 °C 1,6 km/h (1 Bft)
09.11.2016 13:53 2,3 °C 2,4 °C 81 % 1006,0 hPa 0,0 mm 1,2 km/h (1 Bft) O 94 ° 0 min 0,000 mm 1,0 UV-I 142 W/m² -0,6 °C 3,2 km/h (1 Bft)
09.11.2016 13:54 2,3 °C 2,3 °C 81 % 1006,0 hPa 0,0 mm 0,1 km/h (0 Bft) O 94 ° 0 min 0,000 mm 1,0 UV-I 141 W/m² -0,6 °C 1,6 km/h (1 Bft)
09.11.2016 13:55 2,3 °C 2,3 °C 80 % 1006,0 hPa 0,0 mm 0,0 km/h (0 Bft) O 94 ° 0 min 0,000 mm 1,0 UV-I 139 W/m² -0,8 °C 0,0 km/h (0 Bft)
09.11.2016 13:56 2,3 °C 2,3 °C 79 % 1005,9 hPa 0,0 mm 0,1 km/h (0 Bft) O 94 ° 0 min 0,000 mm 1,0 UV-I 139 W/m² -1,0 °C 1,6 km/h (1 Bft)
09.11.2016 13:57 2,3 °C 2,3 °C 80 % 1006,0 hPa 0,0 mm 0,0 km/h (0 Bft) O 94 ° 0 min 0,000 mm 1,0 UV-I 137 W/m² -0,8 °C 0,0 km/h (0 Bft)
09.11.2016 13:58 2,4 °C 2,4 °C 79 % 1006,0 hPa 0,0 mm 0,2 km/h (0 Bft) O 94 ° 0 min 0,000 mm 1,0 UV-I 137 W/m² -0,9 °C 1,6 km/h (1 Bft)
09.11.2016 13:59 2,4 °C 2,4 °C 79 % 1005,9 hPa 0,0 mm 0,0 km/h (0 Bft) O 94 ° 0 min 0,000 mm 1,0 UV-I 139 W/m² -0,9 °C 0,0 km/h (0 Bft)
09.11.2016 14:00 2,4 °C 2,4 °C 78 % 1005,9 hPa 0,0 mm 0,0 km/h (0 Bft) O 94 ° 0 min 0,000 mm 1,0 UV-I 139 W/m² -1,0 °C 0,0 km/h (0 Bft)
09.11.2016 14:01 2,6 °C 2,6 °C 75 % 1005,9 hPa 0,0 mm 0,0 km/h (0 Bft) O 94 ° 0 min 0,076 mm 1,0 UV-I 139 W/m² -1,4 °C 0,0 km/h (0 Bft)
09.11.2016 14:02 2,6 °C 2,6 °C 75 % 1005,9 hPa 0,0 mm 0,0 km/h (0 Bft) O 94 ° 0 min 0,000 mm 1,0 UV-I 142 W/m² -1,4 °C 0,0 km/h (0 Bft)
09.11.2016 14:03 2,7 °C 2,7 °C 74 % 1005,9 hPa 0,2 mm 0,0 km/h (0 Bft) O 94 ° 0 min 0,000 mm 1,0 UV-I 148 W/m² -1,5 °C 0,0 km/h (0 Bft)
09.11.2016 14:04 2,8 °C 2,8 °C 74 % 1005,9 hPa 0,0 mm 0,0 km/h (0 Bft) O 94 ° 0 min 0,000 mm 1,0 UV-I 151 W/m² -1,4 °C 0,0 km/h (0 Bft)
09.11.2016 14:05 2,8 °C 2,8 °C 73 % 1005,9 hPa 0,0 mm 0,6 km/h (0 Bft) O 94 ° 0 min 0,000 mm 1,0 UV-I 153 W/m² -1,5 °C 3,2 km/h (1 Bft)
09.11.2016 14:06 2,8 °C 2,8 °C 74 % 1005,9 hPa 0,0 mm 2,7 km/h (1 Bft) O 94 ° 0 min 0,000 mm 1,0 UV-I 153 W/m² -1,4 °C 3,2 km/h (1 Bft)
09.11.2016 14:07 2,7 °C 2,8 °C 79 % 1005,9 hPa 0,0 mm 2,7 km/h (1 Bft) O 94 ° 0 min 0,000 mm 1,0 UV-I 151 W/m² -0,6 °C 4,8 km/h (1 Bft)
09.11.2016 14:08 2,6 °C 2,7 °C 80 % 1005,9 hPa 0,0 mm 3,0 km/h (1 Bft) O 94 ° 0 min 0,000 mm 1,0 UV-I 153 W/m² -0,5 °C 3,2 km/h (1 Bft)
09.11.2016 14:09 2,6 °C 2,7 °C 82 % 1005,9 hPa 0,0 mm 2,7 km/h (1 Bft) O 94 ° 0 min 0,000 mm 1,0 UV-I 151 W/m² -0,2 °C 4,8 km/h (1 Bft)
09.11.2016 14:10 2,5 °C 2,6 °C 81 % 1005,9 hPa 0,0 mm 1,1 km/h (1 Bft) O 94 ° 0 min 0,000 mm 1,0 UV-I 153 W/m² -0,4 °C 3,2 km/h (1 Bft)
09.11.2016 14:11 2,6 °C 2,6 °C 78 % 1005,9 hPa 0,0 mm 1,0 km/h (0 Bft) O 94 ° 0 min 0,000 mm 1,0 UV-I 153 W/m² -0,8 °C 1,6 km/h (1 Bft)
09.11.2016 14:12 2,6 °C 2,6 °C 78 % 1005,9 hPa 0,0 mm 1,2 km/h (1 Bft) O 94 ° 0 min 0,000 mm 1,0 UV-I 151 W/m² -0,8 °C 1,6 km/h (1 Bft)
09.11.2016 14:13 2,6 °C 2,6 °C 78 % 1005,9 hPa 0,0 mm 0,1 km/h (0 Bft) O 94 ° 0 min 0,000 mm 1,0 UV-I 151 W/m² -0,8 °C 1,6 km/h (1 Bft)
09.11.2016 14:14 2,6 °C 2,6 °C 77 % 1005,9 hPa 0,0 mm 0,1 km/h (0 Bft) O 94 ° 0 min 0,000 mm 1,0 UV-I 149 W/m² -1,0 °C 1,6 km/h (1 Bft)
09.11.2016 14:15 2,6 °C 2,7 °C 77 % 1005,9 hPa 0,0 mm 0,0 km/h (0 Bft) O 94 ° 0 min 0,000 mm 1,0 UV-I 146 W/m² -1,0 °C 0,0 km/h (0 Bft)
09.11.2016 14:16 2,7 °C 2,7 °C 77 % 1005,9 hPa 0,0 mm 1,0 km/h (0 Bft) O 94 ° 0 min 0,000 mm 1,0 UV-I 141 W/m² -0,9 °C 1,6 km/h (1 Bft)
09.11.2016 14:17 2,7 °C 2,7 °C 77 % 1005,8 hPa 0,0 mm 2,4 km/h (1 Bft) O 94 ° 0 min 0,000 mm 0,9 UV-I 135 W/m² -0,9 °C 3,2 km/h (1 Bft)
09.11.2016 14:18 2,7 °C 2,7 °C 77 % 1005,9 hPa 0,0 mm 0,5 km/h (0 Bft) O 94 ° 0 min 0,000 mm 0,9 UV-I 132 W/m² -0,9 °C 1,6 km/h (1 Bft)
09.11.2016 14:19 2,7 °C 2,7 °C 78 % 1005,9 hPa 0,0 mm 0,3 km/h (0 Bft) O 94 ° 0 min 0,000 mm 0,9 UV-I 130 W/m² -0,7 °C 1,6 km/h (1 Bft)
09.11.2016 14:20 2,8 °C 2,8 °C 77 % 1005,9 hPa 0,0 mm 1,5 km/h (1 Bft) O 94 ° 0 min 0,000 mm 0,9 UV-I 128 W/m² -0,8 °C 3,2 km/h (1 Bft)
09.11.2016 14:21 2,8 °C 2,8 °C 78 % 1005,9 hPa 0,0 mm 0,2 km/h (0 Bft) O 94 ° 0 min 0,000 mm 0,9 UV-I 118 W/m² -0,6 °C 1,6 km/h (1 Bft)
09.11.2016 14:22 2,8 °C 2,8 °C 78 % 1005,9 hPa 0,2 mm 1,3 km/h (1 Bft) O 94 ° 0 min 0,000 mm 0,9 UV-I 114 W/m² -0,6 °C 3,2 km/h (1 Bft)
09.11.2016 14:23 2,7 °C 2,8 °C 78 % 1005,9 hPa 0,0 mm 1,9 km/h (1 Bft) O 94 ° 0 min 0,000 mm 0,9 UV-I 111 W/m² -0,7 °C 3,2 km/h (1 Bft)
09.11.2016 14:24 2,8 °C 2,8 °C 78 % 1005,9 hPa 0,0 mm 2,4 km/h (1 Bft) O 95 ° 0 min 0,000 mm 0,9 UV-I 109 W/m² -0,6 °C 3,2 km/h (1 Bft)
09.11.2016 14:25 2,7 °C 2,8 °C 80 % 1005,9 hPa 0,0 mm 0,9 km/h (0 Bft) O 94 ° 0 min 0,000 mm 0,9 UV-I 105 W/m² -0,4 °C 3,2 km/h (1 Bft)
09.11.2016 14:26 2,7 °C 2,7 °C 79 % 1005,9 hPa 0,0 mm 1,3 km/h (1 Bft) O 95 ° 0 min 0,000 mm 0,9 UV-I 105 W/m² -0,6 °C 3,2 km/h (1 Bft)
09.11.2016 14:27 2,6 °C 2,7 °C 81 % 1005,9 hPa 0,0 mm 2,8 km/h (1 Bft) O 95 ° 0 min 0,000 mm 0,9 UV-I 107 W/m² -0,3 °C 3,2 km/h (1 Bft)
09.11.2016 14:28 2,6 °C 2,6 °C 82 % 1005,9 hPa 0,0 mm 2,2 km/h (1 Bft) O 95 ° 0 min 0,000 mm 0,9 UV-I 111 W/m² -0,2 °C 3,2 km/h (1 Bft)
09.11.2016 14:29 2,5 °C 2,6 °C 82 % 1005,9 hPa 0,0 mm 0,0 km/h (0 Bft) O 95 ° 0 min 0,000 mm 0,9 UV-I 116 W/m² -0,3 °C 0,0 km/h (0 Bft)
09.11.2016 14:30 2,5 °C 2,5 °C 81 % 1005,9 hPa 0,0 mm 0,3 km/h (0 Bft) O 95 ° 0 min 0,000 mm 0,9 UV-I 132 W/m² -0,4 °C 1,6 km/h (1 Bft)
09.11.2016 14:31 2,4 °C 2,5 °C 81 % 1005,9 hPa 0,0 mm 0,9 km/h (0 Bft) O 95 ° 0 min 0,000 mm 0,9 UV-I 137 W/m² -0,5 °C 1,6 km/h (1 Bft)
09.11.2016 14:32 2,4 °C 2,4 °C 82 % 1005,9 hPa 0,0 mm 0,1 km/h (0 Bft) O 95 ° 0 min 0,000 mm 0,9 UV-I 128 W/m² -0,4 °C 1,6 km/h (1 Bft)
09.11.2016 14:33 2,4 °C 2,4 °C 82 % 1005,9 hPa 0,0 mm 0,7 km/h (0 Bft) O 94 ° 0 min 0,000 mm 0,8 UV-I 111 W/m² -0,4 °C 1,6 km/h (1 Bft)
09.11.2016 14:34 2,4 °C 2,4 °C 83 % 1005,8 hPa 0,0 mm 0,3 km/h (0 Bft) O 94 ° 0 min 0,000 mm 0,8 UV-I 105 W/m² -0,2 °C 1,6 km/h (1 Bft)
09.11.2016 14:35 2,5 °C 2,5 °C 83 % 1005,8 hPa 0,0 mm 0,0 km/h (0 Bft) O 94 ° 0 min 0,000 mm 0,8 UV-I 100 W/m² -0,1 °C 0,0 km/h (0 Bft)
09.11.2016 14:36 2,6 °C 2,6 °C 81 % 1005,8 hPa 0,0 mm 0,0 km/h (0 Bft) O 94 ° 0 min 0,000 mm 0,8 UV-I 95 W/m² -0,3 °C 0,0 km/h (0 Bft)
09.11.2016 14:37 2,6 °C 2,6 °C 80 % 1005,8 hPa 0,0 mm 0,0 km/h (0 Bft) O 94 ° 0 min 0,000 mm 0,8 UV-I 91 W/m² -0,5 °C 0,0 km/h (0 Bft)
09.11.2016 14:38 2,6 °C 2,6 °C 80 % 1005,8 hPa 0,0 mm 0,5 km/h (0 Bft) O 95 ° 0 min 0,000 mm 0,8 UV-I 83 W/m² -0,5 °C 1,6 km/h (1 Bft)
09.11.2016 14:39 2,6 °C 2,6 °C 79 % 1005,8 hPa 0,0 mm 1,9 km/h (1 Bft) O 95 ° 0 min 0,000 mm 0,8 UV-I 77 W/m² -0,7 °C 3,2 km/h (1 Bft)
09.11.2016 14:40 2,6 °C 2,6 °C 80 % 1005,8 hPa 0,0 mm 2,6 km/h (1 Bft) O 95 ° 0 min 0,000 mm 0,7 UV-I 74 W/m² -0,5 °C 3,2 km/h (1 Bft)
09.11.2016 14:41 2,6 °C 2,6 °C 82 % 1005,8 hPa 0,0 mm 3,0 km/h (1 Bft) O 95 ° 0 min 0,000 mm 0,7 UV-I 69 W/m² -0,2 °C 4,8 km/h (1 Bft)
09.11.2016 14:42 2,5 °C 2,6 °C 83 % 1005,8 hPa 0,0 mm 3,5 km/h (1 Bft) O 94 ° 0 min 0,000 mm 0,7 UV-I 67 W/m² -0,1 °C 4,8 km/h (1 Bft)
09.11.2016 14:43 2,4 °C 2,5 °C 83 % 1005,8 hPa 0,0 mm 2,5 km/h (1 Bft) O 95 ° 0 min 0,000 mm 0,7 UV-I 63 W/m² -0,2 °C 3,2 km/h (1 Bft)
09.11.2016 14:44 2,4 °C 2,4 °C 83 % 1005,8 hPa 0,0 mm 2,4 km/h (1 Bft) O 95 ° 0 min 0,000 mm 0,7 UV-I 60 W/m² -0,2 °C 3,2 km/h (1 Bft)
09.11.2016 14:45 2,3 °C 2,4 °C 83 % 1005,8 hPa 0,0 mm 1,3 km/h (1 Bft) O 95 ° 0 min 0,000 mm 0,6 UV-I 58 W/m² -0,3 °C 1,6 km/h (1 Bft)
09.11.2016 14:46 2,3 °C 2,3 °C 83 % 1005,8 hPa 0,0 mm 1,1 km/h (1 Bft) O 95 ° 0 min 0,000 mm 0,6 UV-I 56 W/m² -0,3 °C 1,6 km/h (1 Bft)
09.11.2016 14:47 2,3 °C 2,3 °C 83 % 1005,8 hPa 0,2 mm 1,9 km/h (1 Bft) O 95 ° 0 min 0,000 mm 0,0 UV-I 54 W/m² -0,3 °C 3,2 km/h (1 Bft)
09.11.2016 14:48 2,2 °C 2,3 °C 85 % 1005,7 hPa 0,0 mm 1,6 km/h (1 Bft) O 95 ° 0 min 0,000 mm 0,0 UV-I 54 W/m² -0,1 °C 3,2 km/h (1 Bft)
09.11.2016 14:49 2,1 °C 2,2 °C 84 % 1005,7 hPa 0,0 mm 1,0 km/h (0 Bft) O 95 ° 0 min 0,000 mm 0,0 UV-I 54 W/m² -0,3 °C 1,6 km/h (1 Bft)
09.11.2016 14:50 2,1 °C 2,1 °C 84 % 1005,7 hPa 0,0 mm 0,5 km/h (0 Bft) O 95 ° 0 min 0,000 mm 0,0 UV-I 54 W/m² -0,3 °C 1,6 km/h (1 Bft)
09.11.2016 14:51 2,1 °C 2,1 °C 83 % 1005,7 hPa 0,0 mm 0,9 km/h (0 Bft) O 95 ° 0 min 0,000 mm 0,6 UV-I 56 W/m² -0,5 °C 1,6 km/h (1 Bft)
09.11.2016 14:52 2,0 °C 2,1 °C 84 % 1005,7 hPa 0,0 mm 1,9 km/h (1 Bft) O 95 ° 0 min 0,000 mm 0,6 UV-I 58 W/m² -0,4 °C 3,2 km/h (1 Bft)
09.11.2016 14:53 1,9 °C 2,0 °C 85 % 1005,6 hPa 0,0 mm 1,9 km/h (1 Bft) O 95 ° 0 min 0,000 mm 0,5 UV-I 60 W/m² -0,3 °C 3,2 km/h (1 Bft)
09.11.2016 14:54 1,9 °C 1,9 °C 86 % 1005,6 hPa 0,0 mm 1,9 km/h (1 Bft) O 94 ° 0 min 0,000 mm 0,5 UV-I 62 W/m² -0,2 °C 3,2 km/h (1 Bft)
09.11.2016 14:55 1,8 °C 1,9 °C 86 % 1005,5 hPa 0,0 mm 1,7 km/h (1 Bft) O 95 ° 0 min 0,000 mm 0,5 UV-I 63 W/m² -0,3 °C 3,2 km/h (1 Bft)
09.11.2016 14:56 1,8 °C 1,8 °C 87 % 1005,5 hPa 0,0 mm 0,8 km/h (0 Bft) O 94 ° 0 min 0,000 mm 0,5 UV-I 67 W/m² -0,1 °C 1,6 km/h (1 Bft)
09.11.2016 14:57 1,7 °C 1,8 °C 86 % 1005,5 hPa 0,0 mm 0,5 km/h (0 Bft) O 94 ° 0 min 0,000 mm 0,5 UV-I 69 W/m² -0,4 °C 1,6 km/h (1 Bft)
09.11.2016 14:58 1,8 °C 1,8 °C 85 % 1005,5 hPa 0,0 mm 2,9 km/h (1 Bft) O-NO 74 ° 0 min 0,000 mm 0,5 UV-I 70 W/m² -0,4 °C 4,8 km/h (1 Bft)
09.11.2016 14:59 1,8 °C 1,8 °C 86 % 1005,5 hPa 0,0 mm 3,3 km/h (1 Bft) O 84 ° 0 min 0,000 mm 0,5 UV-I 70 W/m² -0,3 °C 4,8 km/h (1 Bft)
09.11.2016 15:00 1,8 °C 1,8 °C 84 % 1005,5 hPa 0,0 mm 1,0 km/h (0 Bft) O 84 ° 0 min 0,000 mm 0,5 UV-I 72 W/m² -0,6 °C 1,6 km/h (1 Bft)
09.11.2016 15:01 1,9 °C 1,9 °C 82 % 1005,5 hPa 0,0 mm 0,6 km/h (0 Bft) O 84 ° 0 min 0,051 mm 0,5 UV-I 72 W/m² -0,8 °C 1,6 km/h (1 Bft)
09.11.2016 15:02 2,1 °C 2,1 °C 81 % 1005,6 hPa 0,0 mm 0,3 km/h (0 Bft) O 84 ° 0 min 0,000 mm 0,5 UV-I 74 W/m² -0,8 °C 1,6 km/h (1 Bft)
09.11.2016 15:03 2,1 °C 2,1 °C 80 % 1005,6 hPa 0,0 mm 1,2 km/h (1 Bft) O 84 ° 0 min 0,000 mm 0,5 UV-I 77 W/m² -1,0 °C 1,6 km/h (1 Bft)
09.11.2016 15:04 2,2 °C 2,2 °C 80 % 1005,6 hPa 0,0 mm 1,5 km/h (1 Bft) O 84 ° 0 min 0,000 mm 0,5 UV-I 79 W/m² -0,9 °C 3,2 km/h (1 Bft)
09.11.2016 15:05 2,3 °C 2,3 °C 81 % 1005,6 hPa 0,0 mm 0,6 km/h (0 Bft) O 84 ° 0 min 0,000 mm 0,5 UV-I 83 W/m² -0,6 °C 1,6 km/h (1 Bft)
09.11.2016 15:06 2,3 °C 2,3 °C 82 % 1005,5 hPa 0,0 mm 1,8 km/h (1 Bft) O 84 ° 0 min 0,000 mm 0,5 UV-I 86 W/m² -0,4 °C 3,2 km/h (1 Bft)
09.11.2016 15:07 2,3 °C 2,3 °C 82 % 1005,6 hPa 0,0 mm 1,0 km/h (0 Bft) O 84 ° 0 min 0,000 mm 0,5 UV-I 90 W/m² -0,4 °C 1,6 km/h (1 Bft)
09.11.2016 15:08 2,2 °C 2,3 °C 83 % 1005,6 hPa 0,0 mm 1,8 km/h (1 Bft) O 84 ° 0 min 0,000 mm 0,5 UV-I 97 W/m² -0,4 °C 3,2 km/h (1 Bft)
09.11.2016 15:09 2,2 °C 2,2 °C 83 % 1005,5 hPa 0,0 mm 1,6 km/h (1 Bft) O 84 ° 0 min 0,000 mm 0,5 UV-I 100 W/m² -0,4 °C 3,2 km/h (1 Bft)
09.11.2016 15:10 2,2 °C 2,2 °C 84 % 1005,6 hPa 0,0 mm 2,8 km/h (1 Bft) O 96 ° 0 min 0,000 mm 0,6 UV-I 104 W/m² -0,2 °C 4,8 km/h (1 Bft)
09.11.2016 15:11 2,1 °C 2,2 °C 84 % 1005,5 hPa 0,0 mm 3,3 km/h (1 Bft) O 96 ° 0 min 0,000 mm 0,6 UV-I 105 W/m² -0,3 °C 4,8 km/h (1 Bft)
09.11.2016 15:12 2,1 °C 2,1 °C 86 % 1005,6 hPa 0,0 mm 2,6 km/h (1 Bft) O 96 ° 0 min 0,000 mm 0,6 UV-I 105 W/m² 0,0 °C 3,2 km/h (1 Bft)
09.11.2016 15:13 2,0 °C 2,1 °C 86 % 1005,5 hPa 0,0 mm 1,9 km/h (1 Bft) O 96 ° 0 min 0,000 mm 0,5 UV-I 100 W/m² -0,1 °C 3,2 km/h (1 Bft)
09.11.2016 15:14 1,9 °C 2,0 °C 87 % 1005,5 hPa 0,0 mm 1,1 km/h (1 Bft) O 96 ° 0 min 0,000 mm 0,5 UV-I 91 W/m² -0,0 °C 1,6 km/h (1 Bft)
09.11.2016 15:15 1,9 °C 1,9 °C 87 % 1005,5 hPa 0,0 mm 2,9 km/h (1 Bft) O 96 ° 0 min 0,000 mm 0,5 UV-I 86 W/m² -0,0 °C 4,8 km/h (1 Bft)
09.11.2016 15:16 1,8 °C 1,9 °C 88 % 1005,6 hPa 0,0 mm 4,3 km/h (1 Bft) S-SO 167 ° 0 min 0,000 mm 0,5 UV-I 84 W/m² 0,0 °C 8,0 km/h (2 Bft)
09.11.2016 15:17 1,8 °C 1,8 °C 88 % 1005,6 hPa 0,0 mm 4,4 km/h (1 Bft) S 174 ° 0 min 0,000 mm 0,5 UV-I 83 W/m² 0,0 °C 4,8 km/h (1 Bft)
09.11.2016 15:18 1,8 °C 1,8 °C 89 % 1005,6 hPa 0,0 mm 3,2 km/h (1 Bft) S 174 ° 0 min 0,000 mm 0,5 UV-I 81 W/m² 0,2 °C 4,8 km/h (1 Bft)
09.11.2016 15:19 1,8 °C 1,8 °C 89 % 1005,6 hPa 0,0 mm 3,1 km/h (1 Bft) S 174 ° 0 min 0,000 mm 0,5 UV-I 79 W/m² 0,2 °C 4,8 km/h (1 Bft)
09.11.2016 15:20 1,8 °C 1,8 °C 89 % 1005,7 hPa 0,2 mm 4,6 km/h (1 Bft) S 182 ° 0 min 0,000 mm 0,5 UV-I 79 W/m² 0,2 °C 4,8 km/h (1 Bft)
09.11.2016 15:21 1,8 °C 1,8 °C 89 % 1005,7 hPa 0,0 mm 4,1 km/h (1 Bft) S 182 ° 0 min 0,000 mm 0,5 UV-I 79 W/m² 0,2 °C 6,4 km/h (2 Bft)
09.11.2016 15:22 1,7 °C 1,8 °C 89 % 1005,6 hPa 0,0 mm 2,3 km/h (1 Bft) S 182 ° 0 min 0,000 mm 0,5 UV-I 77 W/m² 0,1 °C 3,2 km/h (1 Bft)
09.11.2016 15:23 1,7 °C 1,7 °C 89 % 1005,6 hPa 0,0 mm 2,9 km/h (1 Bft) S 182 ° 0 min 0,000 mm 0,5 UV-I 76 W/m² 0,1 °C 3,2 km/h (1 Bft)
09.11.2016 15:24 1,7 °C 1,7 °C 89 % 1005,7 hPa 0,0 mm 3,8 km/h (1 Bft) S 182 ° 0 min 0,000 mm 0,5 UV-I 74 W/m² 0,1 °C 4,8 km/h (1 Bft)
09.11.2016 15:25 1,7 °C 1,7 °C 89 % 1005,7 hPa 0,0 mm 3,5 km/h (1 Bft) S 182 ° 0 min 0,000 mm 0,5 UV-I 70 W/m² 0,1 °C 4,8 km/h (1 Bft)
09.11.2016 15:26 1,7 °C 1,7 °C 89 % 1005,5 hPa 0,0 mm 1,9 km/h (1 Bft) S 182 ° 0 min 0,000 mm 0,0 UV-I 67 W/m² 0,1 °C 3,2 km/h (1 Bft)
09.11.2016 15:27 1,7 °C 1,7 °C 89 % 1005,6 hPa 0,0 mm 2,5 km/h (1 Bft) S 182 ° 0 min 0,000 mm 0,0 UV-I 67 W/m² 0,1 °C 3,2 km/h (1 Bft)
09.11.2016 15:28 1,7 °C 1,7 °C 89 % 1005,6 hPa 0,0 mm 4,1 km/h (1 Bft) S 182 ° 0 min 0,000 mm 0,0 UV-I 65 W/m² 0,1 °C 4,8 km/h (1 Bft)
09.11.2016 15:29 1,7 °C 1,7 °C 88 % 1005,6 hPa 0,0 mm 4,4 km/h (1 Bft) S 182 ° 0 min 0,000 mm 0,0 UV-I 63 W/m² -0,1 °C 4,8 km/h (1 Bft)
09.11.2016 15:30 1,8 °C 1,8 °C 89 % 1005,6 hPa 0,0 mm 3,6 km/h (1 Bft) S 182 ° 0 min 0,000 mm 0,0 UV-I 62 W/m² 0,2 °C 4,8 km/h (1 Bft)
09.11.2016 15:31 1,7 °C 1,8 °C 89 % 1005,7 hPa 0,0 mm 2,5 km/h (1 Bft) S 182 ° 0 min 0,000 mm 0,0 UV-I 58 W/m² 0,1 °C 4,8 km/h (1 Bft)
09.11.2016 15:32 1,8 °C 1,8 °C 88 % 1005,7 hPa 0,0 mm 4,0 km/h (1 Bft) S 182 ° 0 min 0,000 mm 0,0 UV-I 54 W/m² 0,0 °C 4,8 km/h (1 Bft)
09.11.2016 15:33 1,8 °C 1,8 °C 88 % 1005,7 hPa 0,0 mm 2,7 km/h (1 Bft) S 182 ° 0 min 0,000 mm 0,0 UV-I 53 W/m² 0,0 °C 3,2 km/h (1 Bft)
09.11.2016 15:34 1,7 °C 1,8 °C 88 % 1005,5 hPa 0,0 mm 3,6 km/h (1 Bft) S 172 ° 0 min 0,000 mm 0,0 UV-I 49 W/m² -0,1 °C 4,8 km/h (1 Bft)
09.11.2016 15:35 1,7 °C 1,7 °C 89 % 1005,6 hPa 0,0 mm 2,4 km/h (1 Bft) S 172 ° 0 min 0,000 mm 0,0 UV-I 47 W/m² 0,1 °C 4,8 km/h (1 Bft)
09.11.2016 15:36 1,7 °C 1,7 °C 89 % 1005,6 hPa 0,0 mm 1,6 km/h (1 Bft) S 172 ° 0 min 0,000 mm 0,0 UV-I 46 W/m² 0,1 °C 3,2 km/h (1 Bft)
09.11.2016 15:37 1,6 °C 1,7 °C 89 % 1005,6 hPa 0,0 mm 3,4 km/h (1 Bft) S 172 ° 0 min 0,000 mm 0,0 UV-I 46 W/m² -0,0 °C 4,8 km/h (1 Bft)
09.11.2016 15:38 1,6 °C 1,6 °C 89 % 1005,5 hPa 0,0 mm 4,6 km/h (1 Bft) S 171 ° 0 min 0,000 mm 0,0 UV-I 44 W/m² -0,0 °C 6,4 km/h (2 Bft)
09.11.2016 15:39 1,6 °C 1,6 °C 89 % 1005,5 hPa 0,0 mm 3,1 km/h (1 Bft) S 171 ° 0 min 0,000 mm 0,0 UV-I 44 W/m² -0,0 °C 6,4 km/h (2 Bft)
09.11.2016 15:40 1,6 °C 1,6 °C 89 % 1005,5 hPa 0,0 mm 1,7 km/h (1 Bft) S 171 ° 0 min 0,000 mm 0,0 UV-I 42 W/m² -0,0 °C 3,2 km/h (1 Bft)
09.11.2016 15:41 1,5 °C 1,6 °C 89 % 1005,6 hPa 0,0 mm 1,2 km/h (1 Bft) S 171 ° 0 min 0,000 mm 0,0 UV-I 42 W/m² -0,1 °C 3,2 km/h (1 Bft)
09.11.2016 15:42 1,5 °C 1,6 °C 89 % 1005,6 hPa 0,0 mm 2,1 km/h (1 Bft) S 171 ° 0 min 0,000 mm 0,0 UV-I 40 W/m² -0,1 °C 3,2 km/h (1 Bft)
09.11.2016 15:43 1,5 °C 1,5 °C 89 % 1005,5 hPa 0,0 mm 4,3 km/h (1 Bft) S 171 ° 0 min 0,000 mm 0,0 UV-I 39 W/m² -0,1 °C 6,4 km/h (2 Bft)
09.11.2016 15:44 1,4 °C 1,5 °C 89 % 1005,5 hPa 0,0 mm 2,3 km/h (1 Bft) S 171 ° 0 min 0,000 mm 0,0 UV-I 37 W/m² -0,2 °C 6,4 km/h (2 Bft)
09.11.2016 15:45 1,4 °C 1,5 °C 89 % 1005,5 hPa 0,0 mm 3,1 km/h (1 Bft) S 172 ° 0 min 0,000 mm 0,0 UV-I 37 W/m² -0,2 °C 6,4 km/h (2 Bft)
09.11.2016 15:46 1,4 °C 1,4 °C 88 % 1005,5 hPa 0,0 mm 3,7 km/h (1 Bft) S 173 ° 0 min 0,000 mm 0,0 UV-I 37 W/m² -0,4 °C 4,8 km/h (1 Bft)
09.11.2016 15:47 1,4 °C 1,4 °C 88 % 1005,6 hPa 0,0 mm 5,0 km/h (1 Bft) S 182 ° 0 min 0,000 mm 0,0 UV-I 37 W/m² -0,4 °C 6,4 km/h (2 Bft)
09.11.2016 15:48 1,3 °C 1,4 °C 89 % 1005,6 hPa 0,0 mm 3,5 km/h (1 Bft) S 180 ° 0 min 0,000 mm 0,0 UV-I 37 W/m² -0,3 °C 6,4 km/h (2 Bft)
09.11.2016 15:49 1,3 °C 1,3 °C 89 % 1005,6 hPa 0,0 mm 3,2 km/h (1 Bft) S 180 ° 0 min 0,000 mm 0,0 UV-I 37 W/m² -0,3 °C 4,8 km/h (1 Bft)
09.11.2016 15:50 1,2 °C 1,3 °C 89 % 1005,7 hPa 0,0 mm 2,4 km/h (1 Bft) S 180 ° 0 min 0,000 mm 0,0 UV-I 37 W/m² -0,4 °C 3,2 km/h (1 Bft)
09.11.2016 15:51 1,2 °C 1,2 °C 90 % 1005,8 hPa 0,0 mm 5,1 km/h (1 Bft) S-SW 193 ° 0 min 0,000 mm 0,0 UV-I 37 W/m² -0,3 °C 8,0 km/h (2 Bft)
09.11.2016 15:52 1,1 °C 1,2 °C 90 % 1005,8 hPa 0,0 mm 5,5 km/h (1 Bft) S 174 ° 0 min 0,000 mm 0,0 UV-I 37 W/m² -0,4 °C 6,4 km/h (2 Bft)
09.11.2016 15:53 1,0 °C 1,1 °C 90 % 1005,8 hPa 0,0 mm 3,8 km/h (1 Bft) S 173 ° 0 min 0,000 mm 0,0 UV-I 37 W/m² -0,5 °C 4,8 km/h (1 Bft)
09.11.2016 15:54 0,9 °C 1,0 °C 90 % 1005,8 hPa 0,0 mm 4,3 km/h (1 Bft) S 173 ° 0 min 0,000 mm 0,0 UV-I 35 W/m² -0,6 °C 4,8 km/h (1 Bft)
09.11.2016 15:55 0,8 °C 0,9 °C 90 % 1005,8 hPa 0,0 mm 3,6 km/h (1 Bft) S 173 ° 0 min 0,000 mm 0,0 UV-I 33 W/m² -0,6 °C 4,8 km/h (1 Bft)
09.11.2016 15:56 0,8 °C 0,8 °C 90 % 1005,7 hPa 0,0 mm 3,0 km/h (1 Bft) S 178 ° 0 min 0,000 mm 0,0 UV-I 33 W/m² -0,6 °C 4,8 km/h (1 Bft)
09.11.2016 15:57 0,7 °C 0,8 °C 91 % 1005,7 hPa 0,0 mm 3,1 km/h (1 Bft) S 178 ° 0 min 0,000 mm 0,0 UV-I 33 W/m² -0,6 °C 3,2 km/h (1 Bft)
09.11.2016 15:58 0,7 °C 0,7 °C 91 % 1005,7 hPa 0,0 mm 3,8 km/h (1 Bft) S 178 ° 0 min 0,000 mm 0,0 UV-I 32 W/m² -0,6 °C 4,8 km/h (1 Bft)
09.11.2016 15:59 0,7 °C 0,7 °C 91 % 1005,7 hPa 0,0 mm 3,7 km/h (1 Bft) S 178 ° 0 min 0,000 mm 0,0 UV-I 32 W/m² -0,6 °C 4,8 km/h (1 Bft)
09.11.2016 16:00 0,7 °C 0,7 °C 91 % 1005,7 hPa 0,0 mm 3,9 km/h (1 Bft) S 178 ° 0 min 0,000 mm 0,0 UV-I 30 W/m² -0,6 °C 4,8 km/h (1 Bft)
09.11.2016 16:01 0,6 °C 0,7 °C 91 % 1005,7 hPa 0,0 mm 3,7 km/h (1 Bft) S 175 ° 0 min 0,025 mm 0,0 UV-I 28 W/m² -0,7 °C 4,8 km/h (1 Bft)
09.11.2016 16:02 0,6 °C 0,7 °C 91 % 1005,7 hPa 0,0 mm 4,0 km/h (1 Bft) S 175 ° 0 min 0,000 mm 0,0 UV-I 28 W/m² -0,7 °C 4,8 km/h (1 Bft)
09.11.2016 16:03 0,6 °C 0,7 °C 91 % 1005,7 hPa 0,0 mm 3,1 km/h (1 Bft) S 175 ° 0 min 0,000 mm 0,0 UV-I 28 W/m² -0,7 °C 4,8 km/h (1 Bft)
09.11.2016 16:04 0,6 °C 0,7 °C 91 % 1005,7 hPa 0,0 mm 1,9 km/h (1 Bft) S 175 ° 0 min 0,000 mm 0,0 UV-I 26 W/m² -0,7 °C 3,2 km/h (1 Bft)
09.11.2016 16:05 0,7 °C 0,7 °C 91 % 1005,7 hPa 0,0 mm 0,9 km/h (0 Bft) S 175 ° 0 min 0,000 mm 0,0 UV-I 26 W/m² -0,6 °C 1,6 km/h (1 Bft)
09.11.2016 16:06 0,7 °C 0,7 °C 91 % 1005,7 hPa 0,0 mm 0,9 km/h (0 Bft) S 175 ° 0 min 0,000 mm 0,0 UV-I 25 W/m² -0,6 °C 1,6 km/h (1 Bft)
09.11.2016 16:07 0,7 °C 0,7 °C 90 % 1005,7 hPa 0,0 mm 3,2 km/h (1 Bft) S 184 ° 0 min 0,000 mm 0,0 UV-I 25 W/m² -0,7 °C 4,8 km/h (1 Bft)
09.11.2016 16:08 0,7 °C 0,7 °C 90 % 1005,6 hPa 0,0 mm 2,4 km/h (1 Bft) S 184 ° 0 min 0,000 mm 0,0 UV-I 25 W/m² -0,7 °C 3,2 km/h (1 Bft)
09.11.2016 16:09 0,7 °C 0,7 °C 91 % 1005,7 hPa 0,0 mm 2,9 km/h (1 Bft) S 184 ° 0 min 0,000 mm 0,0 UV-I 23 W/m² -0,6 °C 3,2 km/h (1 Bft)
09.11.2016 16:10 0,8 °C 0,8 °C 90 % 1005,7 hPa 0,0 mm 1,9 km/h (1 Bft) S 184 ° 0 min 0,000 mm 0,0 UV-I 23 W/m² -0,6 °C 3,2 km/h (1 Bft)
09.11.2016 16:11 0,8 °C 0,8 °C 90 % 1005,7 hPa 0,0 mm 1,9 km/h (1 Bft) S 184 ° 0 min 0,000 mm 0,0 UV-I 21 W/m² -0,6 °C 3,2 km/h (1 Bft)
09.11.2016 16:12 0,8 °C 0,8 °C 90 % 1005,7 hPa 0,0 mm 2,2 km/h (1 Bft) S 184 ° 0 min 0,000 mm 0,0 UV-I 21 W/m² -0,6 °C 3,2 km/h (1 Bft)
09.11.2016 16:13 0,8 °C 0,8 °C 90 % 1005,7 hPa 0,0 mm 3,2 km/h (1 Bft) S 184 ° 0 min 0,000 mm 0,0 UV-I 21 W/m² -0,6 °C 3,2 km/h (1 Bft)
09.11.2016 16:14 0,8 °C 0,8 °C 91 % 1005,8 hPa 0,0 mm 2,6 km/h (1 Bft) S 184 ° 0 min 0,000 mm 0,0 UV-I 19 W/m² -0,5 °C 3,2 km/h (1 Bft)
09.11.2016 16:15 0,8 °C 0,8 °C 91 % 1005,7 hPa 0,0 mm 3,7 km/h (1 Bft) S 183 ° 0 min 0,000 mm 0,0 UV-I 19 W/m² -0,5 °C 4,8 km/h (1 Bft)
09.11.2016 16:16 0,8 °C 0,8 °C 91 % 1005,7 hPa 0,0 mm 4,8 km/h (1 Bft) S 175 ° 0 min 0,000 mm 0,0 UV-I 19 W/m² -0,5 °C 6,4 km/h (2 Bft)
09.11.2016 16:17 0,8 °C 0,8 °C 91 % 1005,7 hPa 0,0 mm 4,1 km/h (1 Bft) S 174 ° 0 min 0,000 mm 0,0 UV-I 19 W/m² -0,5 °C 4,8 km/h (1 Bft)
09.11.2016 16:18 0,8 °C 0,8 °C 91 % 1005,7 hPa 0,0 mm 3,2 km/h (1 Bft) S 175 ° 0 min 0,000 mm 0,0 UV-I 18 W/m² -0,5 °C 4,8 km/h (1 Bft)
09.11.2016 16:19 0,8 °C 0,8 °C 91 % 1005,7 hPa 0,0 mm 3,2 km/h (1 Bft) S 174 ° 0 min 0,000 mm 0,0 UV-I 18 W/m² -0,5 °C 3,2 km/h (1 Bft)
09.11.2016 16:20 0,8 °C 0,8 °C 91 % 1005,7 hPa 0,0 mm 3,0 km/h (1 Bft) S 175 ° 0 min 0,000 mm 0,0 UV-I 16 W/m² -0,5 °C 3,2 km/h (1 Bft)
09.11.2016 16:21 0,8 °C 0,8 °C 91 % 1005,8 hPa 0,0 mm 3,0 km/h (1 Bft) S 174 ° 0 min 0,000 mm 0,0 UV-I 16 W/m² -0,5 °C 3,2 km/h (1 Bft)
09.11.2016 16:22 0,8 °C 0,8 °C 92 % 1005,8 hPa 0,0 mm 2,7 km/h (1 Bft) S 174 ° 0 min 0,000 mm 0,0 UV-I 16 W/m² -0,3 °C 3,2 km/h (1 Bft)
09.11.2016 16:23 0,8 °C 0,8 °C 92 % 1005,8 hPa 0,0 mm 2,2 km/h (1 Bft) S 175 ° 0 min 0,000 mm 0,0 UV-I 14 W/m² -0,3 °C 3,2 km/h (1 Bft)
09.11.2016 16:24 0,8 °C 0,8 °C 91 % 1005,8 hPa 0,0 mm 2,7 km/h (1 Bft) S 175 ° 0 min 0,000 mm 0,0 UV-I 14 W/m² -0,5 °C 3,2 km/h (1 Bft)
09.11.2016 16:25 0,8 °C 0,8 °C 91 % 1005,7 hPa 0,0 mm 2,4 km/h (1 Bft) S 175 ° 0 min 0,000 mm 0,0 UV-I 12 W/m² -0,5 °C 3,2 km/h (1 Bft)
09.11.2016 16:26 0,8 °C 0,8 °C 91 % 1005,7 hPa 0,0 mm 3,2 km/h (1 Bft) S 174 ° 0 min 0,000 mm 0,0 UV-I 12 W/m² -0,5 °C 4,8 km/h (1 Bft)
09.11.2016 16:27 0,8 °C 0,8 °C 91 % 1005,7 hPa 0,0 mm 3,2 km/h (1 Bft) S 175 ° 0 min 0,000 mm 0,0 UV-I 12 W/m² -0,5 °C 4,8 km/h (1 Bft)
09.11.2016 16:28 0,8 °C 0,8 °C 91 % 1005,7 hPa 0,0 mm 3,1 km/h (1 Bft) S 174 ° 0 min 0,000 mm 0,0 UV-I 11 W/m² -0,5 °C 4,8 km/h (1 Bft)
09.11.2016 16:29 0,7 °C 0,8 °C 91 % 1005,6 hPa 0,0 mm 2,4 km/h (1 Bft) S 175 ° 0 min 0,000 mm 0,0 UV-I 11 W/m² -0,6 °C 3,2 km/h (1 Bft)
09.11.2016 16:30 0,7 °C 0,7 °C 91 % 1005,6 hPa 0,0 mm 1,8 km/h (1 Bft) S 174 ° 0 min 0,000 mm 0,0 UV-I 9 W/m² -0,6 °C 3,2 km/h (1 Bft)
09.11.2016 16:31 0,7 °C 0,7 °C 91 % 1005,6 hPa 0,0 mm 2,0 km/h (1 Bft) S 174 ° 0 min 0,000 mm 0,0 UV-I 9 W/m² -0,6 °C 3,2 km/h (1 Bft)
09.11.2016 16:32 0,7 °C 0,7 °C 91 % 1005,6 hPa 0,0 mm 2,1 km/h (1 Bft) S 174 ° 0 min 0,000 mm 0,0 UV-I 9 W/m² -0,6 °C 3,2 km/h (1 Bft)
09.11.2016 16:33 0,7 °C 0,7 °C 91 % 1005,6 hPa 0,0 mm 2,1 km/h (1 Bft) S 174 ° 0 min 0,000 mm 0,0 UV-I 7 W/m² -0,6 °C 3,2 km/h (1 Bft)
09.11.2016 16:34 0,7 °C 0,7 °C 91 % 1005,5 hPa 0,0 mm 1,6 km/h (1 Bft) S 174 ° 0 min 0,000 mm 0,0 UV-I 7 W/m² -0,6 °C 3,2 km/h (1 Bft)
09.11.2016 16:35 0,7 °C 0,7 °C 91 % 1005,5 hPa 0,0 mm 2,0 km/h (1 Bft) S 174 ° 0 min 0,000 mm 0,0 UV-I 7 W/m² -0,6 °C 3,2 km/h (1 Bft)
09.11.2016 16:36 0,6 °C 0,7 °C 91 % 1005,5 hPa 0,0 mm 2,0 km/h (1 Bft) S 175 ° 0 min 0,000 mm 0,0 UV-I 5 W/m² -0,7 °C 3,2 km/h (1 Bft)
09.11.2016 16:37 0,6 °C 0,6 °C 92 % 1005,5 hPa 0,0 mm 1,9 km/h (1 Bft) S 174 ° 0 min 0,000 mm 0,0 UV-I 5 W/m² -0,5 °C 3,2 km/h (1 Bft)
09.11.2016 16:38 0,6 °C 0,6 °C 92 % 1005,5 hPa 0,0 mm 1,1 km/h (1 Bft) S 175 ° 0 min 0,000 mm 0,0 UV-I 5 W/m² -0,5 °C 1,6 km/h (1 Bft)
09.11.2016 16:39 0,6 °C 0,6 °C 92 % 1005,5 hPa 0,0 mm 0,5 km/h (0 Bft) S 174 ° 0 min 0,000 mm 0,0 UV-I 5 W/m² -0,5 °C 1,6 km/h (1 Bft)
09.11.2016 16:40 0,4 °C 0,6 °C 91 % 1005,5 hPa 0,0 mm 1,2 km/h (1 Bft) S 174 ° 0 min 0,000 mm 0,0 UV-I 5 W/m² -0,9 °C 1,6 km/h (1 Bft)
09.11.2016 16:41 0,3 °C 0,4 °C 91 % 1005,4 hPa 0,0 mm 0,9 km/h (0 Bft) S 174 ° 0 min 0,000 mm 0,0 UV-I 0 W/m² -1,0 °C 1,6 km/h (1 Bft)
09.11.2016 16:42 0,3 °C 0,3 °C 91 % 1005,5 hPa 0,0 mm 0,1 km/h (0 Bft) S 174 ° 0 min 0,000 mm 0,0 UV-I 0 W/m² -1,0 °C 1,6 km/h (1 Bft)
09.11.2016 16:43 0,2 °C 0,3 °C 91 % 1005,5 hPa 0,0 mm 0,0 km/h (0 Bft) S 174 ° 0 min 0,000 mm 0,0 UV-I 0 W/m² -1,1 °C 0,0 km/h (0 Bft)
09.11.2016 16:44 0,1 °C 0,2 °C 91 % 1005,5 hPa 0,0 mm 0,0 km/h (0 Bft) S 174 ° 0 min 0,000 mm 0,0 UV-I 0 W/m² -1,2 °C 0,0 km/h (0 Bft)
09.11.2016 16:45 0,1 °C 0,1 °C 92 % 1005,5 hPa 0,0 mm 0,0 km/h (0 Bft) S 175 ° 0 min 0,000 mm 0,0 UV-I 0 W/m² -1,0 °C 0,0 km/h (0 Bft)
09.11.2016 16:46 0,2 °C 0,2 °C 92 % 1005,5 hPa 0,0 mm 0,8 km/h (0 Bft) S 175 ° 0 min 0,000 mm 0,0 UV-I 0 W/m² -0,9 °C 1,6 km/h (1 Bft)
09.11.2016 16:47 0,2 °C 0,2 °C 92 % 1005,4 hPa 0,0 mm 1,5 km/h (1 Bft) S 174 ° 0 min 0,000 mm 0,0 UV-I 0 W/m² -0,9 °C 1,6 km/h (1 Bft)
09.11.2016 16:48 0,2 °C 0,2 °C 92 % 1005,4 hPa 0,0 mm 1,3 km/h (1 Bft) S 174 ° 0 min 0,000 mm 0,0 UV-I 0 W/m² -0,9 °C 1,6 km/h (1 Bft)
09.11.2016 16:49 0,2 °C 0,2 °C 92 % 1005,4 hPa 0,0 mm 0,6 km/h (0 Bft) S 174 ° 0 min 0,000 mm 0,0 UV-I 0 W/m² -0,9 °C 1,6 km/h (1 Bft)
09.11.2016 16:50 0,2 °C 0,2 °C 92 % 1005,4 hPa 0,0 mm 0,1 km/h (0 Bft) S 174 ° 0 min 0,000 mm 0,0 UV-I 0 W/m² -0,9 °C 1,6 km/h (1 Bft)
09.11.2016 16:51 0,3 °C 0,3 °C 92 % 1005,4 hPa 0,0 mm 0,1 km/h (0 Bft) S 174 ° 0 min 0,000 mm 0,0 UV-I 0 W/m² -0,8 °C 1,6 km/h (1 Bft)
09.11.2016 16:52 0,3 °C 0,3 °C 92 % 1005,4 hPa 0,0 mm 0,6 km/h (0 Bft) S 175 ° 0 min 0,000 mm 0,0 UV-I 0 W/m² -0,8 °C 1,6 km/h (1 Bft)
09.11.2016 16:53 0,3 °C 0,3 °C 92 % 1005,4 hPa 0,0 mm 0,1 km/h (0 Bft) S 175 ° 0 min 0,000 mm 0,0 UV-I 0 W/m² -0,8 °C 1,6 km/h (1 Bft)
09.11.2016 16:54 0,4 °C 0,4 °C 92 % 1005,4 hPa 0,0 mm 0,1 km/h (0 Bft) S 174 ° 0 min 0,000 mm 0,0 UV-I 0 W/m² -0,7 °C 1,6 km/h (1 Bft)
09.11.2016 16:55 0,4 °C 0,4 °C 91 % 1005,4 hPa 0,0 mm 0,0 km/h (0 Bft) S 175 ° 0 min 0,000 mm 0,0 UV-I 0 W/m² -0,9 °C 0,0 km/h (0 Bft)
09.11.2016 16:56 0,4 °C 0,4 °C 91 % 1005,4 hPa 0,0 mm 0,2 km/h (0 Bft) S 175 ° 0 min 0,000 mm 0,0 UV-I 0 W/m² -0,9 °C 1,6 km/h (1 Bft)
09.11.2016 16:57 0,4 °C 0,4 °C 91 % 1005,4 hPa 0,0 mm 0,8 km/h (0 Bft) S 175 ° 0 min 0,000 mm 0,0 UV-I 0 W/m² -0,9 °C 1,6 km/h (1 Bft)
09.11.2016 16:58 0,3 °C 0,4 °C 92 % 1005,4 hPa 0,0 mm 0,1 km/h (0 Bft) S 174 ° 0 min 0,000 mm 0,0 UV-I 0 W/m² -0,8 °C 1,6 km/h (1 Bft)
09.11.2016 16:59 0,3 °C 0,3 °C 92 % 1005,4 hPa 0,0 mm 0,9 km/h (0 Bft) S 175 ° 0 min 0,000 mm 0,0 UV-I 0 W/m² -0,8 °C 1,6 km/h (1 Bft)
09.11.2016 17:00 0,3 °C 0,3 °C 92 % 1005,4 hPa 0,0 mm 0,5 km/h (0 Bft) S 174 ° 0 min 0,000 mm 0,0 UV-I 0 W/m² -0,8 °C 1,6 km/h (1 Bft)
09.11.2016 17:01 0,3 °C 0,3 °C 92 % 1005,4 hPa 0,0 mm 1,3 km/h (1 Bft) S 175 ° 0 min 0,000 mm 0,0 UV-I 0 W/m² -0,8 °C 3,2 km/h (1 Bft)
09.11.2016 17:02 0,4 °C 0,4 °C 92 % 1005,4 hPa 0,0 mm 0,0 km/h (0 Bft) S 175 ° 0 min 0,000 mm 0,0 UV-I 0 W/m² -0,7 °C 0,0 km/h (0 Bft)
09.11.2016 17:03 0,4 °C 0,4 °C 92 % 1005,3 hPa 0,0 mm 0,0 km/h (0 Bft) S 174 ° 0 min 0,000 mm 0,0 UV-I 0 W/m² -0,7 °C 0,0 km/h (0 Bft)
09.11.2016 17:04 0,4 °C 0,4 °C 92 % 1005,3 hPa 0,0 mm 0,0 km/h (0 Bft) S 174 ° 0 min 0,000 mm 0,0 UV-I 0 W/m² -0,7 °C 0,0 km/h (0 Bft)
09.11.2016 17:05 0,4 °C 0,4 °C 92 % 1005,4 hPa 0,0 mm 0,0 km/h (0 Bft) S 174 ° 0 min 0,000 mm 0,0 UV-I 0 W/m² -0,7 °C 0,0 km/h (0 Bft)
09.11.2016 17:06 0,4 °C 0,4 °C 92 % 1005,4 hPa 0,0 mm 0,0 km/h (0 Bft) S 175 ° 0 min 0,000 mm 0,0 UV-I 0 W/m² -0,7 °C 0,0 km/h (0 Bft)
09.11.2016 17:07 0,4 °C 0,4 °C 92 % 1005,3 hPa 0,0 mm 0,0 km/h (0 Bft) S 175 ° 0 min 0,000 mm 0,0 UV-I 0 W/m² -0,7 °C 0,0 km/h (0 Bft)
09.11.2016 17:08 0,5 °C 0,5 °C 92 % 1005,4 hPa 0,0 mm 0,0 km/h (0 Bft) S 174 ° 0 min 0,000 mm 0,0 UV-I 0 W/m² -0,6 °C 0,0 km/h (0 Bft)
09.11.2016 17:09 0,4 °C 0,5 °C 92 % 1005,4 hPa 0,0 mm 0,0 km/h (0 Bft) S 174 ° 0 min 0,000 mm 0,0 UV-I 0 W/m² -0,7 °C 0,0 km/h (0 Bft)
09.11.2016 17:10 0,4 °C 0,4 °C 92 % 1005,3 hPa 0,0 mm 0,0 km/h (0 Bft) S 175 ° 0 min 0,000 mm 0,0 UV-I 0 W/m² -0,7 °C 0,0 km/h (0 Bft)
09.11.2016 17:11 0,5 °C 0,5 °C 92 % 1005,4 hPa 0,0 mm 0,1 km/h (0 Bft) S 174 ° 0 min 0,000 mm 0,0 UV-I 0 W/m² -0,6 °C 1,6 km/h (1 Bft)
09.11.2016 17:12 0,5 °C 0,5 °C 92 % 1005,4 hPa 0,0 mm 0,0 km/h (0 Bft) S 175 ° 0 min 0,000 mm 0,0 UV-I 0 W/m² -0,6 °C 0,0 km/h (0 Bft)
09.11.2016 17:13 0,5 °C 0,5 °C 91 % 1005,4 hPa 0,0 mm 0,0 km/h (0 Bft) S 174 ° 0 min 0,000 mm 0,0 UV-I 0 W/m² -0,8 °C 0,0 km/h (0 Bft)
09.11.2016 17:14 0,5 °C 0,5 °C 91 % 1005,4 hPa 0,0 mm 0,0 km/h (0 Bft) S 174 ° 0 min 0,000 mm 0,0 UV-I 0 W/m² -0,8 °C 0,0 km/h (0 Bft)
09.11.2016 17:15 0,5 °C 0,5 °C 91 % 1005,4 hPa 0,0 mm 0,0 km/h (0 Bft) S 174 ° 0 min 0,000 mm 0,0 UV-I 0 W/m² -0,8 °C 0,0 km/h (0 Bft)
09.11.2016 17:16 0,5 °C 0,6 °C 91 % 1005,4 hPa 0,0 mm 0,0 km/h (0 Bft) S 175 ° 0 min 0,000 mm 0,0 UV-I 0 W/m² -0,8 °C 0,0 km/h (0 Bft)
09.11.2016 17:17 0,6 °C 0,6 °C 91 % 1005,5 hPa 0,0 mm 0,0 km/h (0 Bft) S 174 ° 0 min 0,000 mm 0,0 UV-I 0 W/m² -0,7 °C 0,0 km/h (0 Bft)
09.11.2016 17:18 0,6 °C 0,6 °C 91 % 1005,5 hPa 0,0 mm 0,0 km/h (0 Bft) S 175 ° 0 min 0,000 mm 0,0 UV-I 0 W/m² -0,7 °C 0,0 km/h (0 Bft)
09.11.2016 17:19 0,5 °C 0,6 °C 91 % 1005,5 hPa 0,0 mm 0,0 km/h (0 Bft) S 175 ° 0 min 0,000 mm 0,0 UV-I 0 W/m² -0,8 °C 0,0 km/h (0 Bft)
09.11.2016 17:20 0,6 °C 0,6 °C 91 % 1005,4 hPa 0,0 mm 0,0 km/h (0 Bft) S 175 ° 0 min 0,000 mm 0,0 UV-I 0 W/m² -0,7 °C 0,0 km/h (0 Bft)
09.11.2016 17:21 0,5 °C 0,6 °C 91 % 1005,5 hPa 0,0 mm 0,0 km/h (0 Bft) S 174 ° 0 min 0,000 mm 0,0 UV-I 0 W/m² -0,8 °C 0,0 km/h (0 Bft)
09.11.2016 17:22 0,6 °C 0,6 °C 91 % 1005,4 hPa 0,0 mm 0,0 km/h (0 Bft) S 175 ° 0 min 0,000 mm 0,0 UV-I 0 W/m² -0,7 °C 0,0 km/h (0 Bft)
09.11.2016 17:23 0,6 °C 0,6 °C 91 % 1005,4 hPa 0,0 mm 0,8 km/h (0 Bft) S 175 ° 0 min 0,000 mm 0,0 UV-I 0 W/m² -0,7 °C 3,2 km/h (1 Bft)
09.11.2016 17:24 0,5 °C 0,6 °C 91 % 1005,4 hPa 0,0 mm 1,0 km/h (0 Bft) S 175 ° 0 min 0,000 mm 0,0 UV-I 0 W/m² -0,8 °C 1,6 km/h (1 Bft)
09.11.2016 17:25 0,5 °C 0,6 °C 91 % 1005,4 hPa 0,0 mm 0,9 km/h (0 Bft) S 175 ° 0 min 0,000 mm 0,0 UV-I 0 W/m² -0,8 °C 1,6 km/h (1 Bft)
09.11.2016 17:26 0,6 °C 0,6 °C 91 % 1005,4 hPa 0,0 mm 0,1 km/h (0 Bft) S 175 ° 0 min 0,000 mm 0,0 UV-I 0 W/m² -0,7 °C 1,6 km/h (1 Bft)
09.11.2016 17:27 0,5 °C 0,6 °C 91 % 1005,4 hPa 0,0 mm 0,3 km/h (0 Bft) S 175 ° 0 min 0,000 mm 0,0 UV-I 0 W/m² -0,8 °C 1,6 km/h (1 Bft)
09.11.2016 17:28 0,6 °C 0,6 °C 91 % 1005,4 hPa 0,0 mm 0,0 km/h (0 Bft) S 175 ° 0 min 0,000 mm 0,0 UV-I 0 W/m² -0,7 °C 0,0 km/h (0 Bft)
09.11.2016 17:29 0,6 °C 0,6 °C 91 % 1005,4 hPa 0,0 mm 0,0 km/h (0 Bft) S 175 ° 0 min 0,000 mm 0,0 UV-I 0 W/m² -0,7 °C 0,0 km/h (0 Bft)
09.11.2016 17:30 0,6 °C 0,6 °C 91 % 1005,4 hPa 0,0 mm 0,0 km/h (0 Bft) S 175 ° 0 min 0,000 mm 0,0 UV-I 0 W/m² -0,7 °C 0,0 km/h (0 Bft)
09.11.2016 17:31 0,6 °C 0,6 °C 92 % 1005,4 hPa 0,0 mm 0,0 km/h (0 Bft) S 175 ° 0 min 0,000 mm 0,0 UV-I 0 W/m² -0,5 °C 0,0 km/h (0 Bft)
09.11.2016 17:32 0,6 °C 0,6 °C 91 % 1005,4 hPa 0,0 mm 0,0 km/h (0 Bft) S 175 ° 0 min 0,000 mm 0,0 UV-I 0 W/m² -0,7 °C 0,0 km/h (0 Bft)
09.11.2016 17:33 0,6 °C 0,6 °C 91 % 1005,4 hPa 0,0 mm 0,0 km/h (0 Bft) S 175 ° 0 min 0,000 mm 0,0 UV-I 0 W/m² -0,7 °C 0,0 km/h (0 Bft)
09.11.2016 17:34 0,6 °C 0,6 °C 91 % 1005,4 hPa 0,0 mm 0,0 km/h (0 Bft) S 175 ° 0 min 0,000 mm 0,0 UV-I 0 W/m² -0,7 °C 0,0 km/h (0 Bft)
09.11.2016 17:35 0,5 °C 0,6 °C 91 % 1005,5 hPa 0,0 mm 0,0 km/h (0 Bft) S 175 ° 0 min 0,000 mm 0,0 UV-I 0 W/m² -0,8 °C 0,0 km/h (0 Bft)
09.11.2016 17:36 0,6 °C 0,6 °C 91 % 1005,4 hPa 0,0 mm 0,0 km/h (0 Bft) S 175 ° 0 min 0,000 mm 0,0 UV-I 0 W/m² -0,7 °C 0,0 km/h (0 Bft)
09.11.2016 17:37 0,6 °C 0,6 °C 91 % 1005,4 hPa 0,0 mm 0,0 km/h (0 Bft) S 175 ° 0 min 0,000 mm 0,0 UV-I 0 W/m² -0,7 °C 0,0 km/h (0 Bft)
09.11.2016 17:38 0,6 °C 0,6 °C 91 % 1005,4 hPa 0,0 mm 0,0 km/h (0 Bft) S 175 ° 0 min 0,000 mm 0,0 UV-I 0 W/m² -0,7 °C 0,0 km/h (0 Bft)
09.11.2016 17:39 0,6 °C 0,6 °C 91 % 1005,4 hPa 0,0 mm 0,0 km/h (0 Bft) S 175 ° 0 min 0,000 mm 0,0 UV-I 0 W/m² -0,7 °C 0,0 km/h (0 Bft)
09.11.2016 17:40 0,6 °C 0,6 °C 91 % 1005,4 hPa 0,0 mm 0,0 km/h (0 Bft) S 175 ° 0 min 0,000 mm 0,0 UV-I 0 W/m² -0,7 °C 0,0 km/h (0 Bft)
09.11.2016 17:41 0,6 °C 0,6 °C 91 % 1005,4 hPa 0,0 mm 0,0 km/h (0 Bft) S 175 ° 0 min 0,000 mm 0,0 UV-I 0 W/m² -0,7 °C 0,0 km/h (0 Bft)
09.11.2016 17:42 0,6 °C 0,6 °C 91 % 1005,4 hPa 0,0 mm 0,0 km/h (0 Bft) S 175 ° 0 min 0,000 mm 0,0 UV-I 0 W/m² -0,7 °C 0,0 km/h (0 Bft)
09.11.2016 17:43 0,6 °C 0,6 °C 91 % 1005,4 hPa 0,0 mm 0,0 km/h (0 Bft) S 175 ° 0 min 0,000 mm 0,0 UV-I 0 W/m² -0,7 °C 0,0 km/h (0 Bft)
09.11.2016 17:44 0,6 °C 0,6 °C 91 % 1005,4 hPa 0,0 mm 0,0 km/h (0 Bft) S 175 ° 0 min 0,000 mm 0,0 UV-I 0 W/m² -0,7 °C 0,0 km/h (0 Bft)
09.11.2016 17:45 0,6 °C 0,6 °C 91 % 1005,4 hPa 0,0 mm 0,0 km/h (0 Bft) S 175 ° 0 min 0,000 mm 0,0 UV-I 0 W/m² -0,7 °C 0,0 km/h (0 Bft)
09.11.2016 17:46 0,6 °C 0,6 °C 91 % 1005,4 hPa 0,0 mm 0,0 km/h (0 Bft) S 175 ° 0 min 0,000 mm 0,0 UV-I 0 W/m² -0,7 °C 0,0 km/h (0 Bft)
09.11.2016 17:47 0,6 °C 0,6 °C 91 % 1005,4 hPa 0,0 mm 0,0 km/h (0 Bft) S 175 ° 0 min 0,000 mm 0,0 UV-I 0 W/m² -0,7 °C 0,0 km/h (0 Bft)
09.11.2016 17:48 0,6 °C 0,6 °C 91 % 1005,4 hPa 0,0 mm 0,9 km/h (0 Bft) S 186 ° 0 min 0,000 mm 0,0 UV-I 0 W/m² -0,7 °C 1,6 km/h (1 Bft)
09.11.2016 17:49 0,6 °C 0,6 °C 91 % 1005,4 hPa 0,0 mm 0,4 km/h (0 Bft) S 186 ° 0 min 0,000 mm 0,0 UV-I 0 W/m² -0,7 °C 1,6 km/h (1 Bft)
09.11.2016 17:50 0,6 °C 0,6 °C 91 % 1005,4 hPa 0,0 mm 0,0 km/h (0 Bft) S 186 ° 0 min 0,000 mm 0,0 UV-I 0 W/m² -0,7 °C 0,0 km/h (0 Bft)
09.11.2016 17:51 0,6 °C 0,6 °C 91 % 1005,4 hPa 0,0 mm 0,0 km/h (0 Bft) S 186 ° 0 min 0,000 mm 0,0 UV-I 0 W/m² -0,7 °C 0,0 km/h (0 Bft)
09.11.2016 17:52 0,6 °C 0,6 °C 91 % 1005,5 hPa 0,0 mm 0,0 km/h (0 Bft) S 186 ° 0 min 0,000 mm 0,0 UV-I 0 W/m² -0,7 °C 0,0 km/h (0 Bft)
09.11.2016 17:53 0,6 °C 0,6 °C 91 % 1005,4 hPa 0,0 mm 0,0 km/h (0 Bft) S 186 ° 0 min 0,000 mm 0,0 UV-I 0 W/m² -0,7 °C 0,0 km/h (0 Bft)
09.11.2016 17:54 0,6 °C 0,6 °C 91 % 1005,5 hPa 0,0 mm 0,0 km/h (0 Bft) S 186 ° 0 min 0,000 mm 0,0 UV-I 0 W/m² -0,7 °C 0,0 km/h (0 Bft)
09.11.2016 17:55 0,6 °C 0,6 °C 91 % 1005,5 hPa 0,0 mm 0,0 km/h (0 Bft) S 186 ° 0 min 0,000 mm 0,0 UV-I 0 W/m² -0,7 °C 0,0 km/h (0 Bft)
09.11.2016 17:56 0,6 °C 0,6 °C 91 % 1005,5 hPa 0,0 mm 0,0 km/h (0 Bft) S 186 ° 0 min 0,000 mm 0,0 UV-I 0 W/m² -0,7 °C 0,0 km/h (0 Bft)
09.11.2016 17:57 0,6 °C 0,6 °C 91 % 1005,5 hPa 0,0 mm 0,0 km/h (0 Bft) S 186 ° 0 min 0,000 mm 0,0 UV-I 0 W/m² -0,7 °C 0,0 km/h (0 Bft)
09.11.2016 17:58 0,5 °C 0,6 °C 91 % 1005,5 hPa 0,0 mm 0,0 km/h (0 Bft) S 186 ° 0 min 0,000 mm 0,0 UV-I 0 W/m² -0,8 °C 0,0 km/h (0 Bft)
09.11.2016 17:59 0,5 °C 0,6 °C 91 % 1005,5 hPa 0,0 mm 0,0 km/h (0 Bft) S 186 ° 0 min 0,000 mm 0,0 UV-I 0 W/m² -0,8 °C 0,0 km/h (0 Bft)
09.11.2016 18:00 0,6 °C 0,6 °C 91 % 1005,5 hPa 0,0 mm 0,0 km/h (0 Bft) S 186 ° 0 min 0,000 mm 0,0 UV-I 0 W/m² -0,7 °C 0,0 km/h (0 Bft)
09.11.2016 18:01 0,6 °C 0,6 °C 91 % 1005,5 hPa 0,0 mm 0,0 km/h (0 Bft) S 186 ° 0 min 0,000 mm 0,0 UV-I 0 W/m² -0,7 °C 0,0 km/h (0 Bft)
09.11.2016 18:02 0,6 °C 0,6 °C 91 % 1005,5 hPa 0,0 mm 0,0 km/h (0 Bft) S 186 ° 0 min 0,000 mm 0,0 UV-I 0 W/m² -0,7 °C 0,0 km/h (0 Bft)
09.11.2016 18:03 0,6 °C 0,6 °C 91 % 1005,6 hPa 0,0 mm 0,0 km/h (0 Bft) S 186 ° 0 min 0,000 mm 0,0 UV-I 0 W/m² -0,7 °C 0,0 km/h (0 Bft)
09.11.2016 18:04 0,6 °C 0,6 °C 91 % 1005,5 hPa 0,0 mm 0,0 km/h (0 Bft) S 186 ° 0 min 0,000 mm 0,0 UV-I 0 W/m² -0,7 °C 0,0 km/h (0 Bft)
09.11.2016 18:05 0,6 °C 0,6 °C 91 % 1005,5 hPa 0,0 mm 0,0 km/h (0 Bft) S 186 ° 0 min 0,000 mm 0,0 UV-I 0 W/m² -0,7 °C 0,0 km/h (0 Bft)
09.11.2016 18:06 0,6 °C 0,6 °C 91 % 1005,5 hPa 0,0 mm 0,0 km/h (0 Bft) S 186 ° 0 min 0,000 mm 0,0 UV-I 0 W/m² -0,7 °C 0,0 km/h (0 Bft)
09.11.2016 18:07 0,5 °C 0,6 °C 91 % 1005,5 hPa 0,0 mm 0,0 km/h (0 Bft) S 186 ° 0 min 0,000 mm 0,0 UV-I 0 W/m² -0,8 °C 0,0 km/h (0 Bft)
09.11.2016 18:08 0,5 °C 0,6 °C 91 % 1005,6 hPa 0,0 mm 0,0 km/h (0 Bft) S 186 ° 0 min 0,000 mm 0,0 UV-I 0 W/m² -0,8 °C 0,0 km/h (0 Bft)
09.11.2016 18:09 0,6 °C 0,6 °C 91 % 1005,6 hPa 0,0 mm 0,0 km/h (0 Bft) S 186 ° 0 min 0,000 mm 0,0 UV-I 0 W/m² -0,7 °C 0,0 km/h (0 Bft)
09.11.2016 18:10 0,6 °C 0,6 °C 91 % 1005,6 hPa 0,0 mm 0,0 km/h (0 Bft) S 186 ° 0 min 0,000 mm 0,0 UV-I 0 W/m² -0,7 °C 0,0 km/h (0 Bft)
09.11.2016 18:11 0,5 °C 0,6 °C 91 % 1005,6 hPa 0,0 mm 0,0 km/h (0 Bft) S 186 ° 0 min 0,000 mm 0,0 UV-I 0 W/m² -0,8 °C 0,0 km/h (0 Bft)
09.11.2016 18:12 0,5 °C 0,6 °C 91 % 1005,7 hPa 0,0 mm 0,0 km/h (0 Bft) S 186 ° 0 min 0,000 mm 0,0 UV-I 0 W/m² -0,8 °C 0,0 km/h (0 Bft)
09.11.2016 18:13 0,5 °C 0,6 °C 91 % 1005,6 hPa 0,0 mm 0,0 km/h (0 Bft) S 186 ° 0 min 0,000 mm 0,0 UV-I 0 W/m² -0,8 °C 0,0 km/h (0 Bft)
09.11.2016 18:14 0,5 °C 0,6 °C 91 % 1005,7 hPa 0,0 mm 0,0 km/h (0 Bft) S 186 ° 0 min 0,000 mm 0,0 UV-I 0 W/m² -0,8 °C 0,0 km/h (0 Bft)
09.11.2016 18:15 0,6 °C 0,6 °C 91 % 1005,6 hPa 0,0 mm 0,0 km/h (0 Bft) S 186 ° 0 min 0,000 mm 0,0 UV-I 0 W/m² -0,7 °C 0,0 km/h (0 Bft)
09.11.2016 18:16 0,5 °C 0,6 °C 91 % 1005,6 hPa 0,0 mm 0,0 km/h (0 Bft) S 186 ° 0 min 0,000 mm 0,0 UV-I 0 W/m² -0,8 °C 0,0 km/h (0 Bft)
09.11.2016 18:17 0,5 °C 0,5 °C 91 % 1005,7 hPa 0,0 mm 0,0 km/h (0 Bft) S 186 ° 0 min 0,000 mm 0,0 UV-I 0 W/m² -0,8 °C 0,0 km/h (0 Bft)
09.11.2016 18:18 0,5 °C 0,6 °C 91 % 1005,7 hPa 0,0 mm 0,6 km/h (0 Bft) S 186 ° 0 min 0,000 mm 0,0 UV-I 0 W/m² -0,8 °C 1,6 km/h (1 Bft)
09.11.2016 18:19 0,5 °C 0,6 °C 91 % 1005,7 hPa 0,0 mm 0,0 km/h (0 Bft) S 186 ° 0 min 0,000 mm 0,0 UV-I 0 W/m² -0,8 °C 0,0 km/h (0 Bft)
09.11.2016 18:20 0,6 °C 0,6 °C 91 % 1005,7 hPa 0,0 mm 0,0 km/h (0 Bft) S 186 ° 0 min 0,000 mm 0,0 UV-I 0 W/m² -0,7 °C 0,0 km/h (0 Bft)
09.11.2016 18:21 0,5 °C 0,6 °C 91 % 1005,7 hPa 0,0 mm 0,0 km/h (0 Bft) S 186 ° 0 min 0,000 mm 0,0 UV-I 0 W/m² -0,8 °C 0,0 km/h (0 Bft)
09.11.2016 18:22 0,5 °C 0,6 °C 91 % 1005,7 hPa 0,0 mm 0,0 km/h (0 Bft) S 186 ° 0 min 0,000 mm 0,0 UV-I 0 W/m² -0,8 °C 0,0 km/h (0 Bft)
09.11.2016 18:23 0,5 °C 0,5 °C 91 % 1005,7 hPa 0,0 mm 0,0 km/h (0 Bft) S 186 ° 0 min 0,000 mm 0,0 UV-I 0 W/m² -0,8 °C 0,0 km/h (0 Bft)
09.11.2016 18:24 0,5 °C 0,6 °C 91 % 1005,7 hPa 0,0 mm 0,0 km/h (0 Bft) S 186 ° 0 min 0,000 mm 0,0 UV-I 0 W/m² -0,8 °C 0,0 km/h (0 Bft)
09.11.2016 18:25 0,6 °C 0,6 °C 91 % 1005,7 hPa 0,0 mm 0,0 km/h (0 Bft) S 186 ° 0 min 0,000 mm 0,0 UV-I 0 W/m² -0,7 °C 0,0 km/h (0 Bft)
09.11.2016 18:26 0,6 °C 0,6 °C 91 % 1005,7 hPa 0,0 mm 0,0 km/h (0 Bft) S 186 ° 0 min 0,000 mm 0,0 UV-I 0 W/m² -0,7 °C 0,0 km/h (0 Bft)
09.11.2016 18:27 0,5 °C 0,6 °C 91 % 1005,7 hPa 0,0 mm 0,0 km/h (0 Bft) S 186 ° 0 min 0,000 mm 0,0 UV-I 0 W/m² -0,8 °C 0,0 km/h (0 Bft)
09.11.2016 18:28 0,5 °C 0,6 °C 91 % 1005,8 hPa 0,0 mm 0,0 km/h (0 Bft) S 186 ° 0 min 0,000 mm 0,0 UV-I 0 W/m² -0,8 °C 0,0 km/h (0 Bft)
09.11.2016 18:29 0,5 °C 0,6 °C 91 % 1005,7 hPa 0,0 mm 0,0 km/h (0 Bft) S 186 ° 0 min 0,000 mm 0,0 UV-I 0 W/m² -0,8 °C 0,0 km/h (0 Bft)
09.11.2016 18:30 0,5 °C 0,6 °C 91 % 1005,8 hPa 0,0 mm 0,0 km/h (0 Bft) S 186 ° 0 min 0,000 mm 0,0 UV-I 0 W/m² -0,8 °C 0,0 km/h (0 Bft)
09.11.2016 18:31 0,5 °C 0,6 °C 91 % 1005,8 hPa 0,0 mm 0,4 km/h (0 Bft) S 186 ° 0 min 0,000 mm 0,0 UV-I 0 W/m² -0,8 °C 1,6 km/h (1 Bft)
09.11.2016 18:32 0,5 °C 0,6 °C 91 % 1005,8 hPa 0,0 mm 1,0 km/h (0 Bft) S 186 ° 0 min 0,000 mm 0,0 UV-I 0 W/m² -0,8 °C 1,6 km/h (1 Bft)
09.11.2016 18:33 0,6 °C 0,6 °C 91 % 1005,8 hPa 0,0 mm 1,2 km/h (1 Bft) S 186 ° 0 min 0,000 mm 0,0 UV-I 0 W/m² -0,7 °C 1,6 km/h (1 Bft)
09.11.2016 18:34 0,5 °C 0,6 °C 91 % 1005,8 hPa 0,0 mm 1,3 km/h (1 Bft) S 186 ° 0 min 0,000 mm 0,0 UV-I 0 W/m² -0,8 °C 1,6 km/h (1 Bft)
09.11.2016 18:35 0,6 °C 0,6 °C 91 % 1005,9 hPa 0,0 mm 0,3 km/h (0 Bft) S 186 ° 0 min 0,000 mm 0,0 UV-I 0 W/m² -0,7 °C 1,6 km/h (1 Bft)
09.11.2016 18:36 0,6 °C 0,6 °C 91 % 1005,8 hPa 0,0 mm 0,0 km/h (0 Bft) S 186 ° 0 min 0,000 mm 0,0 UV-I 0 W/m² -0,7 °C 0,0 km/h (0 Bft)
09.11.2016 18:37 0,6 °C 0,6 °C 91 % 1005,9 hPa 0,0 mm 1,0 km/h (0 Bft) S 186 ° 0 min 0,000 mm 0,0 UV-I 0 W/m² -0,7 °C 1,6 km/h (1 Bft)
09.11.2016 18:38 0,5 °C 0,6 °C 91 % 1005,9 hPa 0,0 mm 2,0 km/h (1 Bft) S 186 ° 0 min 0,000 mm 0,0 UV-I 0 W/m² -0,8 °C 3,2 km/h (1 Bft)
09.11.2016 18:39 0,5 °C 0,6 °C 91 % 1005,9 hPa 0,0 mm 1,9 km/h (1 Bft) S 186 ° 0 min 0,000 mm 0,0 UV-I 0 W/m² -0,8 °C 3,2 km/h (1 Bft)
09.11.2016 18:40 0,6 °C 0,6 °C 91 % 1006,0 hPa 0,0 mm 1,7 km/h (1 Bft) S 186 ° 0 min 0,000 mm 0,0 UV-I 0 W/m² -0,7 °C 3,2 km/h (1 Bft)
09.11.2016 18:41 0,6 °C 0,6 °C 91 % 1006,0 hPa 0,0 mm 1,2 km/h (1 Bft) S 186 ° 0 min 0,000 mm 0,0 UV-I 0 W/m² -0,7 °C 1,6 km/h (1 Bft)
09.11.2016 18:42 0,6 °C 0,6 °C 91 % 1006,0 hPa 0,0 mm 0,7 km/h (0 Bft) S 186 ° 0 min 0,000 mm 0,0 UV-I 0 W/m² -0,7 °C 1,6 km/h (1 Bft)
09.11.2016 18:43 0,6 °C 0,6 °C 91 % 1006,1 hPa 0,0 mm 0,0 km/h (0 Bft) S 186 ° 0 min 0,000 mm 0,0 UV-I 0 W/m² -0,7 °C 0,0 km/h (0 Bft)
09.11.2016 18:44 0,6 °C 0,6 °C 91 % 1006,0 hPa 0,0 mm 0,0 km/h (0 Bft) S 186 ° 0 min 0,000 mm 0,0 UV-I 0 W/m² -0,7 °C 0,0 km/h (0 Bft)
09.11.2016 18:45 0,6 °C 0,6 °C 91 % 1006,1 hPa 0,0 mm 0,0 km/h (0 Bft) S 186 ° 0 min 0,000 mm 0,0 UV-I 0 W/m² -0,7 °C 0,0 km/h (0 Bft)
09.11.2016 18:46 0,6 °C 0,6 °C 91 % 1006,1 hPa 0,0 mm 0,0 km/h (0 Bft) S 186 ° 0 min 0,000 mm 0,0 UV-I 0 W/m² -0,7 °C 0,0 km/h (0 Bft)
09.11.2016 18:47 0,6 °C 0,6 °C 91 % 1006,1 hPa 0,0 mm 0,0 km/h (0 Bft) S 186 ° 0 min 0,000 mm 0,0 UV-I 0 W/m² -0,7 °C 0,0 km/h (0 Bft)
09.11.2016 18:48 0,6 °C 0,6 °C 91 % 1006,2 hPa 0,0 mm 0,5 km/h (0 Bft) S 186 ° 0 min 0,000 mm 0,0 UV-I 0 W/m² -0,7 °C 1,6 km/h (1 Bft)
09.11.2016 18:49 0,6 °C 0,6 °C 91 % 1006,1 hPa 0,0 mm 0,1 km/h (0 Bft) S 186 ° 0 min 0,000 mm 0,0 UV-I 0 W/m² -0,7 °C 1,6 km/h (1 Bft)
09.11.2016 18:50 0,6 °C 0,6 °C 91 % 1006,2 hPa 0,0 mm 0,0 km/h (0 Bft) S 186 ° 0 min 0,000 mm 0,0 UV-I 0 W/m² -0,7 °C 0,0 km/h (0 Bft)
09.11.2016 18:51 0,6 °C 0,6 °C 91 % 1006,2 hPa 0,0 mm 0,3 km/h (0 Bft) S 186 ° 0 min 0,000 mm 0,0 UV-I 0 W/m² -0,7 °C 1,6 km/h (1 Bft)
09.11.2016 18:52 0,6 °C 0,6 °C 91 % 1006,2 hPa 0,0 mm 0,7 km/h (0 Bft) S 186 ° 0 min 0,000 mm 0,0 UV-I 0 W/m² -0,7 °C 1,6 km/h (1 Bft)
09.11.2016 18:53 0,6 °C 0,6 °C 91 % 1006,3 hPa 0,0 mm 0,3 km/h (0 Bft) S 186 ° 0 min 0,000 mm 0,0 UV-I 0 W/m² -0,7 °C 1,6 km/h (1 Bft)
09.11.2016 18:54 0,6 °C 0,6 °C 91 % 1006,3 hPa 0,0 mm 0,5 km/h (0 Bft) S 186 ° 0 min 0,000 mm 0,0 UV-I 0 W/m² -0,7 °C 1,6 km/h (1 Bft)
09.11.2016 18:55 0,6 °C 0,6 °C 91 % 1006,3 hPa 0,0 mm 1,9 km/h (1 Bft) S 186 ° 0 min 0,000 mm 0,0 UV-I 0 W/m² -0,7 °C 3,2 km/h (1 Bft)
09.11.2016 18:56 0,6 °C 0,6 °C 91 % 1006,3 hPa 0,0 mm 2,7 km/h (1 Bft) S 186 ° 0 min 0,000 mm 0,0 UV-I 0 W/m² -0,7 °C 3,2 km/h (1 Bft)
09.11.2016 18:57 0,6 °C 0,6 °C 91 % 1006,3 hPa 0,0 mm 1,5 km/h (1 Bft) S 186 ° 0 min 0,000 mm 0,0 UV-I 0 W/m² -0,7 °C 1,6 km/h (1 Bft)
09.11.2016 18:58 0,6 °C 0,6 °C 91 % 1006,3 hPa 0,0 mm 2,0 km/h (1 Bft) S 186 ° 0 min 0,000 mm 0,0 UV-I 0 W/m² -0,7 °C 3,2 km/h (1 Bft)
09.11.2016 18:59 0,6 °C 0,6 °C 91 % 1006,3 hPa 0,0 mm 2,0 km/h (1 Bft) S 186 ° 0 min 0,000 mm 0,0 UV-I 0 W/m² -0,7 °C 3,2 km/h (1 Bft)
09.11.2016 19:00 0,6 °C 0,6 °C 91 % 1006,4 hPa 0,0 mm 0,5 km/h (0 Bft) S 186 ° 0 min 0,000 mm 0,0 UV-I 0 W/m² -0,7 °C 1,6 km/h (1 Bft)
09.11.2016 19:01 0,6 °C 0,6 °C 91 % 1006,4 hPa 0,0 mm 1,2 km/h (1 Bft) S 186 ° 0 min 0,000 mm 0,0 UV-I 0 W/m² -0,7 °C 1,6 km/h (1 Bft)
09.11.2016 19:02 0,6 °C 0,6 °C 91 % 1006,4 hPa 0,0 mm 1,0 km/h (0 Bft) S 186 ° 0 min 0,000 mm 0,0 UV-I 0 W/m² -0,7 °C 1,6 km/h (1 Bft)
09.11.2016 19:03 0,6 °C 0,6 °C 91 % 1006,3 hPa 0,0 mm 1,8 km/h (1 Bft) S 186 ° 0 min 0,000 mm 0,0 UV-I 0 W/m² -0,7 °C 3,2 km/h (1 Bft)
09.11.2016 19:04 0,6 °C 0,6 °C 91 % 1006,4 hPa 0,0 mm 0,8 km/h (0 Bft) S 186 ° 0 min 0,000 mm 0,0 UV-I 0 W/m² -0,7 °C 1,6 km/h (1 Bft)
09.11.2016 19:05 0,6 °C 0,6 °C 91 % 1006,4 hPa 0,0 mm 1,8 km/h (1 Bft) S 186 ° 0 min 0,000 mm 0,0 UV-I 0 W/m² -0,7 °C 3,2 km/h (1 Bft)
09.11.2016 19:06 0,6 °C 0,6 °C 92 % 1006,5 hPa 0,0 mm 2,7 km/h (1 Bft) S 186 ° 0 min 0,000 mm 0,0 UV-I 0 W/m² -0,5 °C 4,8 km/h (1 Bft)
09.11.2016 19:07 0,6 °C 0,6 °C 91 % 1006,5 hPa 0,0 mm 1,5 km/h (1 Bft) S 186 ° 0 min 0,000 mm 0,0 UV-I 0 W/m² -0,7 °C 3,2 km/h (1 Bft)
09.11.2016 19:08 0,6 °C 0,6 °C 91 % 1006,6 hPa 0,0 mm 1,5 km/h (1 Bft) S 186 ° 0 min 0,000 mm 0,0 UV-I 0 W/m² -0,7 °C 1,6 km/h (1 Bft)
09.11.2016 19:09 0,6 °C 0,6 °C 91 % 1006,6 hPa 0,0 mm 2,7 km/h (1 Bft) S 186 ° 0 min 0,000 mm 0,0 UV-I 0 W/m² -0,7 °C 4,8 km/h (1 Bft)
09.11.2016 19:10 0,6 °C 0,6 °C 91 % 1006,6 hPa 0,0 mm 2,6 km/h (1 Bft) S 186 ° 0 min 0,000 mm 0,0 UV-I 0 W/m² -0,7 °C 3,2 km/h (1 Bft)
09.11.2016 19:11 0,6 °C 0,6 °C 91 % 1006,6 hPa 0,0 mm 1,3 km/h (1 Bft) S 186 ° 0 min 0,000 mm 0,0 UV-I 0 W/m² -0,7 °C 3,2 km/h (1 Bft)
09.11.2016 19:12 0,6 °C 0,6 °C 91 % 1006,5 hPa 0,0 mm 1,1 km/h (1 Bft) S 186 ° 0 min 0,000 mm 0,0 UV-I 0 W/m² -0,7 °C 1,6 km/h (1 Bft)
09.11.2016 19:13 0,6 °C 0,6 °C 91 % 1006,5 hPa 0,0 mm 0,3 km/h (0 Bft) S 186 ° 0 min 0,000 mm 0,0 UV-I 0 W/m² -0,7 °C 1,6 km/h (1 Bft)
09.11.2016 19:14 0,6 °C 0,6 °C 91 % 1006,5 hPa 0,0 mm 0,0 km/h (0 Bft) S 186 ° 0 min 0,000 mm 0,0 UV-I 0 W/m² -0,7 °C 0,0 km/h (0 Bft)
09.11.2016 19:15 0,6 °C 0,6 °C 91 % 1006,5 hPa 0,0 mm 0,0 km/h (0 Bft) S 186 ° 0 min 0,000 mm 0,0 UV-I 0 W/m² -0,7 °C 0,0 km/h (0 Bft)
09.11.2016 19:16 0,6 °C 0,6 °C 91 % 1006,5 hPa 0,0 mm 0,1 km/h (0 Bft) S 186 ° 0 min 0,000 mm 0,0 UV-I 0 W/m² -0,7 °C 1,6 km/h (1 Bft)
09.11.2016 19:17 0,6 °C 0,6 °C 91 % 1006,5 hPa 0,0 mm 1,5 km/h (1 Bft) S 186 ° 0 min 0,000 mm 0,0 UV-I 0 W/m² -0,7 °C 1,6 km/h (1 Bft)
09.11.2016 19:18 0,6 °C 0,6 °C 91 % 1006,5 hPa 0,0 mm 1,0 km/h (0 Bft) S 186 ° 0 min 0,000 mm 0,0 UV-I 0 W/m² -0,7 °C 1,6 km/h (1 Bft)
09.11.2016 19:19 0,6 °C 0,6 °C 91 % 1006,4 hPa 0,0 mm 1,1 km/h (1 Bft) S 186 ° 0 min 0,000 mm 0,0 UV-I 0 W/m² -0,7 °C 1,6 km/h (1 Bft)
09.11.2016 19:20 0,6 °C 0,6 °C 91 % 1006,5 hPa 0,0 mm 1,4 km/h (1 Bft) S 186 ° 0 min 0,000 mm 0,0 UV-I 0 W/m² -0,7 °C 3,2 km/h (1 Bft)
09.11.2016 19:21 0,6 °C 0,6 °C 91 % 1006,5 hPa 0,0 mm 1,3 km/h (1 Bft) S 186 ° 0 min 0,000 mm 0,0 UV-I 0 W/m² -0,7 °C 3,2 km/h (1 Bft)
09.11.2016 19:22 0,6 °C 0,6 °C 91 % 1006,4 hPa 0,0 mm 2,0 km/h (1 Bft) S 186 ° 0 min 0,000 mm 0,0 UV-I 0 W/m² -0,7 °C 3,2 km/h (1 Bft)
09.11.2016 19:23 0,6 °C 0,6 °C 91 % 1006,5 hPa 0,0 mm 2,3 km/h (1 Bft) S 186 ° 0 min 0,000 mm 0,0 UV-I 0 W/m² -0,7 °C 3,2 km/h (1 Bft)
09.11.2016 19:24 0,6 °C 0,6 °C 91 % 1006,5 hPa 0,0 mm 1,7 km/h (1 Bft) S 186 ° 0 min 0,000 mm 0,0 UV-I 0 W/m² -0,7 °C 3,2 km/h (1 Bft)
09.11.2016 19:25 0,6 °C 0,6 °C 91 % 1006,5 hPa 0,0 mm 1,5 km/h (1 Bft) S 186 ° 0 min 0,000 mm 0,0 UV-I 0 W/m² -0,7 °C 3,2 km/h (1 Bft)
09.11.2016 19:26 0,6 °C 0,6 °C 91 % 1006,5 hPa 0,0 mm 1,8 km/h (1 Bft) S 186 ° 0 min 0,000 mm 0,0 UV-I 0 W/m² -0,7 °C 3,2 km/h (1 Bft)
09.11.2016 19:27 0,6 °C 0,6 °C 91 % 1006,5 hPa 0,0 mm 1,3 km/h (1 Bft) S 186 ° 0 min 0,000 mm 0,0 UV-I 0 W/m² -0,7 °C 3,2 km/h (1 Bft)
09.11.2016 19:28 0,6 °C 0,6 °C 91 % 1006,5 hPa 0,0 mm 2,4 km/h (1 Bft) S 186 ° 0 min 0,000 mm 0,0 UV-I 0 W/m² -0,7 °C 3,2 km/h (1 Bft)
09.11.2016 19:29 0,6 °C 0,6 °C 92 % 1006,5 hPa 0,0 mm 1,5 km/h (1 Bft) S 186 ° 0 min 0,000 mm 0,0 UV-I 0 W/m² -0,5 °C 1,6 km/h (1 Bft)
09.11.2016 19:30 0,6 °C 0,6 °C 92 % 1006,5 hPa 0,0 mm 0,9 km/h (0 Bft) S 186 ° 0 min 0,000 mm 0,0 UV-I 0 W/m² -0,5 °C 3,2 km/h (1 Bft)
09.11.2016 19:31 0,6 °C 0,6 °C 92 % 1006,4 hPa 0,0 mm 0,4 km/h (0 Bft) S 186 ° 0 min 0,000 mm 0,0 UV-I 0 W/m² -0,5 °C 1,6 km/h (1 Bft)
09.11.2016 19:32 0,6 °C 0,6 °C 92 % 1006,5 hPa 0,0 mm 1,0 km/h (0 Bft) W-SW 246 ° 0 min 0,000 mm 0,0 UV-I 0 W/m² -0,5 °C 4,8 km/h (1 Bft)
09.11.2016 19:33 0,6 °C 0,6 °C 92 % 1006,5 hPa 0,0 mm 1,4 km/h (1 Bft) W-SW 246 ° 0 min 0,000 mm 0,0 UV-I 0 W/m² -0,5 °C 3,2 km/h (1 Bft)
09.11.2016 19:34 0,6 °C 0,6 °C 92 % 1006,5 hPa 0,0 mm 0,0 km/h (0 Bft) W-SW 246 ° 0 min 0,000 mm 0,0 UV-I 0 W/m² -0,5 °C 0,0 km/h (0 Bft)
09.11.2016 19:35 0,6 °C 0,6 °C 92 % 1006,4 hPa 0,0 mm 0,1 km/h (0 Bft) W-SW 246 ° 0 min 0,000 mm 0,0 UV-I 0 W/m² -0,5 °C 1,6 km/h (1 Bft)
09.11.2016 19:36 0,6 °C 0,6 °C 92 % 1006,4 hPa 0,0 mm 1,1 km/h (1 Bft) W-SW 246 ° 0 min 0,000 mm 0,0 UV-I 0 W/m² -0,5 °C 1,6 km/h (1 Bft)
09.11.2016 19:37 0,6 °C 0,6 °C 92 % 1006,4 hPa 0,0 mm 0,3 km/h (0 Bft) W-SW 246 ° 0 min 0,000 mm 0,0 UV-I 0 W/m² -0,5 °C 1,6 km/h (1 Bft)
09.11.2016 19:38 0,6 °C 0,6 °C 92 % 1006,4 hPa 0,0 mm 1,3 km/h (1 Bft) W-SW 246 ° 0 min 0,000 mm 0,0 UV-I 0 W/m² -0,5 °C 1,6 km/h (1 Bft)
09.11.2016 19:39 0,6 °C 0,6 °C 92 % 1006,3 hPa 0,0 mm 1,3 km/h (1 Bft) W-SW 245 ° 0 min 0,000 mm 0,0 UV-I 0 W/m² -0,5 °C 1,6 km/h (1 Bft)
09.11.2016 19:40 0,6 °C 0,6 °C 92 % 1006,3 hPa 0,0 mm 0,6 km/h (0 Bft) W-SW 245 ° 0 min 0,000 mm 0,0 UV-I 0 W/m² -0,5 °C 1,6 km/h (1 Bft)
09.11.2016 19:41 0,6 °C 0,6 °C 91 % 1006,3 hPa 0,0 mm 0,7 km/h (0 Bft) W-SW 246 ° 0 min 0,000 mm 0,0 UV-I 0 W/m² -0,7 °C 1,6 km/h (1 Bft)
09.11.2016 19:42 0,6 °C 0,6 °C 92 % 1006,3 hPa 0,0 mm 0,9 km/h (0 Bft) W-SW 245 ° 0 min 0,000 mm 0,0 UV-I 0 W/m² -0,5 °C 1,6 km/h (1 Bft)
09.11.2016 19:43 0,6 °C 0,6 °C 92 % 1006,3 hPa 0,0 mm 2,8 km/h (1 Bft) W-SW 245 ° 0 min 0,000 mm 0,0 UV-I 0 W/m² -0,5 °C 3,2 km/h (1 Bft)
09.11.2016 19:44 0,6 °C 0,6 °C 92 % 1006,1 hPa 0,0 mm 2,5 km/h (1 Bft) W-SW 245 ° 0 min 0,000 mm 0,0 UV-I 0 W/m² -0,5 °C 4,8 km/h (1 Bft)
09.11.2016 19:45 0,6 °C 0,6 °C 92 % 1006,1 hPa 0,0 mm 1,9 km/h (1 Bft) N-NW 341 ° 0 min 0,000 mm 0,0 UV-I 0 W/m² -0,5 °C 3,2 km/h (1 Bft)
09.11.2016 19:46 0,6 °C 0,6 °C 92 % 1006,1 hPa 0,0 mm 1,0 km/h (0 Bft) N-NW 341 ° 0 min 0,000 mm 0,0 UV-I 0 W/m² -0,5 °C 1,6 km/h (1 Bft)
09.11.2016 19:47 0,6 °C 0,6 °C 92 % 1006,1 hPa 0,0 mm 1,0 km/h (0 Bft) N-NW 341 ° 0 min 0,000 mm 0,0 UV-I 0 W/m² -0,5 °C 1,6 km/h (1 Bft)
09.11.2016 19:48 0,6 °C 0,6 °C 92 % 1006,1 hPa 0,0 mm 0,0 km/h (0 Bft) N-NW 341 ° 0 min 0,000 mm 0,0 UV-I 0 W/m² -0,5 °C 0,0 km/h (0 Bft)
09.11.2016 19:49 0,6 °C 0,6 °C 92 % 1006,1 hPa 0,0 mm 0,0 km/h (0 Bft) N-NW 341 ° 0 min 0,000 mm 0,0 UV-I 0 W/m² -0,5 °C 0,0 km/h (0 Bft)
09.11.2016 19:50 0,6 °C 0,6 °C 92 % 1006,1 hPa 0,0 mm 0,9 km/h (0 Bft) N-NW 341 ° 0 min 0,000 mm 0,0 UV-I 0 W/m² -0,5 °C 3,2 km/h (1 Bft)
09.11.2016 19:51 0,6 °C 0,6 °C 92 % 1006,1 hPa 0,0 mm 1,1 km/h (1 Bft) N-NW 341 ° 0 min 0,000 mm 0,0 UV-I 0 W/m² -0,5 °C 3,2 km/h (1 Bft)
09.11.2016 19:52 0,6 °C 0,6 °C 92 % 1006,2 hPa 0,0 mm 1,0 km/h (0 Bft) N-NW 341 ° 0 min 0,000 mm 0,0 UV-I 0 W/m² -0,5 °C 3,2 km/h (1 Bft)
09.11.2016 19:53 0,6 °C 0,6 °C 92 % 1006,3 hPa 0,0 mm 0,2 km/h (0 Bft) N-NW 341 ° 0 min 0,000 mm 0,0 UV-I 0 W/m² -0,5 °C 1,6 km/h (1 Bft)
09.11.2016 19:54 0,6 °C 0,6 °C 92 % 1006,2 hPa 0,0 mm 1,9 km/h (1 Bft) N-NW 342 ° 0 min 0,000 mm 0,0 UV-I 0 W/m² -0,5 °C 3,2 km/h (1 Bft)
09.11.2016 19:55 0,6 °C 0,6 °C 92 % 1006,2 hPa 0,0 mm 1,5 km/h (1 Bft) N-NW 342 ° 0 min 0,000 mm 0,0 UV-I 0 W/m² -0,5 °C 3,2 km/h (1 Bft)
09.11.2016 19:56 0,6 °C 0,6 °C 92 % 1006,1 hPa 0,0 mm 1,8 km/h (1 Bft) N-NW 342 ° 0 min 0,000 mm 0,0 UV-I 0 W/m² -0,5 °C 3,2 km/h (1 Bft)
09.11.2016 19:57 0,6 °C 0,6 °C 92 % 1006,2 hPa 0,0 mm 1,0 km/h (0 Bft) N-NW 342 ° 0 min 0,000 mm 0,0 UV-I 0 W/m² -0,5 °C 3,2 km/h (1 Bft)
09.11.2016 19:58 0,6 °C 0,6 °C 92 % 1006,3 hPa 0,0 mm 3,6 km/h (1 Bft) W 272 ° 0 min 0,000 mm 0,0 UV-I 0 W/m² -0,5 °C 4,8 km/h (1 Bft)
09.11.2016 19:59 0,6 °C 0,6 °C 92 % 1006,4 hPa 0,0 mm 4,1 km/h (1 Bft) W 273 ° 0 min 0,000 mm 0,0 UV-I 0 W/m² -0,5 °C 4,8 km/h (1 Bft)
09.11.2016 20:00 0,6 °C 0,6 °C 92 % 1006,3 hPa 0,0 mm 2,8 km/h (1 Bft) W 273 ° 0 min 0,000 mm 0,0 UV-I 0 W/m² -0,5 °C 4,8 km/h (1 Bft)
09.11.2016 20:01 0,6 °C 0,6 °C 92 % 1006,3 hPa 0,0 mm 0,1 km/h (0 Bft) W 273 ° 0 min 0,000 mm 0,0 UV-I 0 W/m² -0,5 °C 1,6 km/h (1 Bft)
09.11.2016 20:02 0,6 °C 0,6 °C 92 % 1006,3 hPa 0,0 mm 1,5 km/h (1 Bft) W 273 ° 0 min 0,000 mm 0,0 UV-I 0 W/m² -0,5 °C 3,2 km/h (1 Bft)
09.11.2016 20:03 0,6 °C 0,6 °C 92 % 1006,3 hPa 0,0 mm 0,1 km/h (0 Bft) W 273 ° 0 min 0,000 mm 0,0 UV-I 0 W/m² -0,5 °C 1,6 km/h (1 Bft)
09.11.2016 20:04 0,6 °C 0,6 °C 92 % 1006,4 hPa 0,0 mm 1,0 km/h (0 Bft) W 273 ° 0 min 0,000 mm 0,0 UV-I 0 W/m² -0,5 °C 3,2 km/h (1 Bft)
09.11.2016 20:05 0,6 °C 0,6 °C 92 % 1006,4 hPa 0,0 mm 1,8 km/h (1 Bft) W 273 ° 0 min 0,000 mm 0,0 UV-I 0 W/m² -0,5 °C 3,2 km/h (1 Bft)
09.11.2016 20:06 0,6 °C 0,6 °C 92 % 1006,4 hPa 0,0 mm 1,4 km/h (1 Bft) W 273 ° 0 min 0,000 mm 0,0 UV-I 0 W/m² -0,5 °C 3,2 km/h (1 Bft)
09.11.2016 20:07 0,6 °C 0,6 °C 92 % 1006,4 hPa 0,0 mm 0,8 km/h (0 Bft) W 273 ° 0 min 0,000 mm 0,0 UV-I 0 W/m² -0,5 °C 3,2 km/h (1 Bft)
09.11.2016 20:08 0,6 °C 0,6 °C 92 % 1006,4 hPa 0,0 mm 2,8 km/h (1 Bft) W 269 ° 0 min 0,000 mm 0,0 UV-I 0 W/m² -0,5 °C 3,2 km/h (1 Bft)
09.11.2016 20:09 0,6 °C 0,6 °C 92 % 1006,4 hPa 0,0 mm 2,8 km/h (1 Bft) W 269 ° 0 min 0,000 mm 0,0 UV-I 0 W/m² -0,5 °C 4,8 km/h (1 Bft)
09.11.2016 20:10 0,6 °C 0,6 °C 92 % 1006,4 hPa 0,0 mm 3,3 km/h (1 Bft) O-NO 77 ° 0 min 0,000 mm 0,0 UV-I 0 W/m² -0,5 °C 4,8 km/h (1 Bft)
09.11.2016 20:11 0,6 °C 0,6 °C 92 % 1006,4 hPa 0,0 mm 1,7 km/h (1 Bft) W-SW 246 ° 0 min 0,000 mm 0,0 UV-I 0 W/m² -0,5 °C 3,2 km/h (1 Bft)
09.11.2016 20:12 0,6 °C 0,6 °C 92 % 1006,3 hPa 0,0 mm 0,0 km/h (0 Bft) W-SW 246 ° 0 min 0,000 mm 0,0 UV-I 0 W/m² -0,5 °C 0,0 km/h (0 Bft)
09.11.2016 20:13 0,6 °C 0,6 °C 92 % 1006,4 hPa 0,0 mm 0,6 km/h (0 Bft) SW 223 ° 0 min 0,000 mm 0,0 UV-I 0 W/m² -0,5 °C 3,2 km/h (1 Bft)
09.11.2016 20:14 0,6 °C 0,6 °C 92 % 1006,4 hPa 0,0 mm 1,6 km/h (1 Bft) N 360 ° 0 min 0,000 mm 0,0 UV-I 0 W/m² -0,5 °C 3,2 km/h (1 Bft)
09.11.2016 20:15 0,6 °C 0,6 °C 92 % 1006,4 hPa 0,0 mm 1,2 km/h (1 Bft) N 360 ° 0 min 0,000 mm 0,0 UV-I 0 W/m² -0,5 °C 3,2 km/h (1 Bft)
09.11.2016 20:16 0,6 °C 0,6 °C 92 % 1006,3 hPa 0,0 mm 0,3 km/h (0 Bft) N 360 ° 0 min 0,000 mm 0,0 UV-I 0 W/m² -0,5 °C 1,6 km/h (1 Bft)
09.11.2016 20:17 0,6 °C 0,6 °C 92 % 1006,3 hPa 0,0 mm 2,3 km/h (1 Bft) N 360 ° 0 min 0,000 mm 0,0 UV-I 0 W/m² -0,5 °C 3,2 km/h (1 Bft)
09.11.2016 20:18 0,6 °C 0,6 °C 92 % 1006,4 hPa 0,0 mm 0,6 km/h (0 Bft) N 360 ° 0 min 0,000 mm 0,0 UV-I 0 W/m² -0,5 °C 1,6 km/h (1 Bft)
09.11.2016 20:19 0,6 °C 0,6 °C 92 % 1006,4 hPa 0,0 mm 0,9 km/h (0 Bft) N 360 ° 0 min 0,000 mm 0,0 UV-I 0 W/m² -0,5 °C 1,6 km/h (1 Bft)
09.11.2016 20:20 0,6 °C 0,6 °C 92 % 1006,4 hPa 0,0 mm 2,1 km/h (1 Bft) N 360 ° 0 min 0,000 mm 0,0 UV-I 0 W/m² -0,5 °C 3,2 km/h (1 Bft)
09.11.2016 20:21 0,6 °C 0,6 °C 92 % 1006,4 hPa 0,0 mm 0,8 km/h (0 Bft) N 360 ° 0 min 0,000 mm 0,0 UV-I 0 W/m² -0,5 °C 1,6 km/h (1 Bft)
09.11.2016 20:22 0,6 °C 0,6 °C 92 % 1006,4 hPa 0,0 mm 2,1 km/h (1 Bft) N 360 ° 0 min 0,000 mm 0,0 UV-I 0 W/m² -0,5 °C 3,2 km/h (1 Bft)
09.11.2016 20:23 0,6 °C 0,6 °C 92 % 1006,4 hPa 0,0 mm 0,4 km/h (0 Bft) N 360 ° 0 min 0,000 mm 0,0 UV-I 0 W/m² -0,5 °C 1,6 km/h (1 Bft)
09.11.2016 20:24 0,6 °C 0,6 °C 92 % 1006,4 hPa 0,0 mm 1,5 km/h (1 Bft) N 360 ° 0 min 0,000 mm 0,0 UV-I 0 W/m² -0,5 °C 3,2 km/h (1 Bft)
09.11.2016 20:25 0,6 °C 0,6 °C 92 % 1006,4 hPa 0,0 mm 0,3 km/h (0 Bft) N 360 ° 0 min 0,000 mm 0,0 UV-I 0 W/m² -0,5 °C 1,6 km/h (1 Bft)
09.11.2016 20:26 0,7 °C 0,7 °C 92 % 1006,5 hPa 0,0 mm 2,4 km/h (1 Bft) N 360 ° 0 min 0,000 mm 0,0 UV-I 0 W/m² -0,4 °C 3,2 km/h (1 Bft)
09.11.2016 20:27 0,6 °C 0,7 °C 92 % 1006,5 hPa 0,0 mm 1,0 km/h (0 Bft) N 360 ° 0 min 0,000 mm 0,0 UV-I 0 W/m² -0,5 °C 3,2 km/h (1 Bft)
09.11.2016 20:28 0,6 °C 0,6 °C 92 % 1006,5 hPa 0,0 mm 2,3 km/h (1 Bft) SW 218 ° 0 min 0,000 mm 0,0 UV-I 0 W/m² -0,5 °C 4,8 km/h (1 Bft)
09.11.2016 20:29 0,6 °C 0,6 °C 92 % 1006,5 hPa 0,0 mm 1,4 km/h (1 Bft) SW 218 ° 0 min 0,000 mm 0,0 UV-I 0 W/m² -0,5 °C 3,2 km/h (1 Bft)
09.11.2016 20:30 0,7 °C 0,7 °C 92 % 1006,5 hPa 0,0 mm 1,3 km/h (1 Bft) SW 218 ° 0 min 0,000 mm 0,0 UV-I 0 W/m² -0,4 °C 1,6 km/h (1 Bft)
09.11.2016 20:31 0,7 °C 0,7 °C 92 % 1006,5 hPa 0,0 mm 1,3 km/h (1 Bft) SW 218 ° 0 min 0,000 mm 0,0 UV-I 0 W/m² -0,4 °C 1,6 km/h (1 Bft)
09.11.2016 20:32 0,7 °C 0,7 °C 92 % 1006,5 hPa 0,0 mm 4,5 km/h (1 Bft) S 186 ° 0 min 0,000 mm 0,0 UV-I 0 W/m² -0,4 °C 4,8 km/h (1 Bft)
09.11.2016 20:33 0,7 °C 0,7 °C 92 % 1006,5 hPa 0,0 mm 3,1 km/h (1 Bft) S 173 ° 0 min 0,000 mm 0,0 UV-I 0 W/m² -0,4 °C 4,8 km/h (1 Bft)
09.11.2016 20:34 0,7 °C 0,7 °C 92 % 1006,5 hPa 0,0 mm 0,4 km/h (0 Bft) S 173 ° 0 min 0,000 mm 0,0 UV-I 0 W/m² -0,4 °C 1,6 km/h (1 Bft)
09.11.2016 20:35 0,7 °C 0,7 °C 91 % 1006,5 hPa 0,0 mm 0,0 km/h (0 Bft) S 173 ° 0 min 0,000 mm 0,0 UV-I 0 W/m² -0,6 °C 0,0 km/h (0 Bft)
09.11.2016 20:36 0,7 °C 0,7 °C 91 % 1006,5 hPa 0,0 mm 0,5 km/h (0 Bft) S 173 ° 0 min 0,000 mm 0,0 UV-I 0 W/m² -0,6 °C 1,6 km/h (1 Bft)
09.11.2016 20:37 0,7 °C 0,7 °C 91 % 1006,5 hPa 0,0 mm 0,9 km/h (0 Bft) S 173 ° 0 min 0,000 mm 0,0 UV-I 0 W/m² -0,6 °C 1,6 km/h (1 Bft)
09.11.2016 20:38 0,7 °C 0,7 °C 91 % 1006,5 hPa 0,0 mm 1,7 km/h (1 Bft) S 173 ° 0 min 0,000 mm 0,0 UV-I 0 W/m² -0,6 °C 3,2 km/h (1 Bft)
09.11.2016 20:39 0,7 °C 0,7 °C 91 % 1006,6 hPa 0,0 mm 2,1 km/h (1 Bft) S 173 ° 0 min 0,000 mm 0,0 UV-I 0 W/m² -0,6 °C 3,2 km/h (1 Bft)
09.11.2016 20:40 0,7 °C 0,7 °C 91 % 1006,5 hPa 0,0 mm 1,5 km/h (1 Bft) S 173 ° 0 min 0,000 mm 0,0 UV-I 0 W/m² -0,6 °C 3,2 km/h (1 Bft)
09.11.2016 20:41 0,7 °C 0,7 °C 91 % 1006,5 hPa 0,0 mm 1,5 km/h (1 Bft) S 173 ° 0 min 0,000 mm 0,0 UV-I 0 W/m² -0,6 °C 1,6 km/h (1 Bft)
09.11.2016 20:42 0,7 °C 0,7 °C 91 % 1006,5 hPa 0,0 mm 0,0 km/h (0 Bft) S 173 ° 0 min 0,000 mm 0,0 UV-I 0 W/m² -0,6 °C 0,0 km/h (0 Bft)
09.11.2016 20:43 0,7 °C 0,7 °C 92 % 1006,5 hPa 0,0 mm 1,0 km/h (0 Bft) S 173 ° 0 min 0,000 mm 0,0 UV-I 0 W/m² -0,4 °C 3,2 km/h (1 Bft)
09.11.2016 20:44 0,7 °C 0,7 °C 92 % 1006,5 hPa 0,0 mm 1,0 km/h (0 Bft) S-SO 163 ° 0 min 0,000 mm 0,0 UV-I 0 W/m² -0,4 °C 3,2 km/h (1 Bft)
09.11.2016 20:45 0,7 °C 0,7 °C 92 % 1006,5 hPa 0,0 mm 0,1 km/h (0 Bft) S-SO 163 ° 0 min 0,000 mm 0,0 UV-I 0 W/m² -0,4 °C 1,6 km/h (1 Bft)
09.11.2016 20:46 0,7 °C 0,7 °C 92 % 1006,5 hPa 0,0 mm 1,1 km/h (1 Bft) S-SO 163 ° 0 min 0,000 mm 0,0 UV-I 0 W/m² -0,4 °C 1,6 km/h (1 Bft)
09.11.2016 20:47 0,7 °C 0,7 °C 92 % 1006,5 hPa 0,0 mm 0,5 km/h (0 Bft) S-SO 163 ° 0 min 0,000 mm 0,0 UV-I 0 W/m² -0,4 °C 1,6 km/h (1 Bft)
09.11.2016 20:48 0,7 °C 0,7 °C 92 % 1006,5 hPa 0,0 mm 1,0 km/h (0 Bft) S-SO 163 ° 0 min 0,000 mm 0,0 UV-I 0 W/m² -0,4 °C 1,6 km/h (1 Bft)
09.11.2016 20:49 0,7 °C 0,7 °C 92 % 1006,5 hPa 0,0 mm 0,0 km/h (0 Bft) S-SO 163 ° 0 min 0,000 mm 0,0 UV-I 0 W/m² -0,4 °C 0,0 km/h (0 Bft)
09.11.2016 20:50 0,7 °C 0,7 °C 92 % 1006,5 hPa 0,0 mm 1,4 km/h (1 Bft) S-SO 163 ° 0 min 0,000 mm 0,0 UV-I 0 W/m² -0,4 °C 1,6 km/h (1 Bft)
09.11.2016 20:51 0,7 °C 0,7 °C 92 % 1006,5 hPa 0,0 mm 0,9 km/h (0 Bft) S-SO 163 ° 0 min 0,000 mm 0,0 UV-I 0 W/m² -0,4 °C 1,6 km/h (1 Bft)
09.11.2016 20:52 0,7 °C 0,7 °C 92 % 1006,5 hPa 0,0 mm 0,1 km/h (0 Bft) S-SO 163 ° 0 min 0,000 mm 0,0 UV-I 0 W/m² -0,4 °C 1,6 km/h (1 Bft)
09.11.2016 20:53 0,7 °C 0,7 °C 92 % 1006,5 hPa 0,0 mm 0,0 km/h (0 Bft) S-SO 163 ° 0 min 0,000 mm 0,0 UV-I 0 W/m² -0,4 °C 0,0 km/h (0 Bft)
09.11.2016 20:54 0,7 °C 0,7 °C 92 % 1006,5 hPa 0,0 mm 0,5 km/h (0 Bft) S-SO 163 ° 0 min 0,000 mm 0,0 UV-I 0 W/m² -0,4 °C 1,6 km/h (1 Bft)
09.11.2016 20:55 0,7 °C 0,7 °C 92 % 1006,5 hPa 0,0 mm 0,0 km/h (0 Bft) S-SO 163 ° 0 min 0,000 mm 0,0 UV-I 0 W/m² -0,4 °C 0,0 km/h (0 Bft)
09.11.2016 20:56 0,7 °C 0,7 °C 92 % 1006,5 hPa 0,0 mm 0,0 km/h (0 Bft) S-SO 163 ° 0 min 0,000 mm 0,0 UV-I 0 W/m² -0,4 °C 0,0 km/h (0 Bft)
09.11.2016 20:57 0,7 °C 0,7 °C 92 % 1006,5 hPa 0,0 mm 0,0 km/h (0 Bft) S-SO 163 ° 0 min 0,000 mm 0,0 UV-I 0 W/m² -0,4 °C 0,0 km/h (0 Bft)
09.11.2016 20:58 0,7 °C 0,7 °C 92 % 1006,5 hPa 0,0 mm 0,3 km/h (0 Bft) S-SO 163 ° 0 min 0,000 mm 0,0 UV-I 0 W/m² -0,4 °C 1,6 km/h (1 Bft)
09.11.2016 20:59 0,7 °C 0,7 °C 92 % 1006,5 hPa 0,0 mm 2,3 km/h (1 Bft) O-SO 121 ° 0 min 0,000 mm 0,0 UV-I 0 W/m² -0,4 °C 3,2 km/h (1 Bft)
09.11.2016 21:00 0,7 °C 0,7 °C 92 % 1006,5 hPa 0,0 mm 2,3 km/h (1 Bft) O 91 ° 0 min 0,000 mm 0,0 UV-I 0 W/m² -0,4 °C 3,2 km/h (1 Bft)
09.11.2016 21:01 0,7 °C 0,7 °C 92 % 1006,5 hPa 0,0 mm 1,1 km/h (1 Bft) O 91 ° 0 min 0,000 mm 0,0 UV-I 0 W/m² -0,4 °C 3,2 km/h (1 Bft)
09.11.2016 21:02 0,7 °C 0,7 °C 92 % 1006,5 hPa 0,0 mm 1,9 km/h (1 Bft) O 91 ° 0 min 0,000 mm 0,0 UV-I 0 W/m² -0,4 °C 3,2 km/h (1 Bft)
09.11.2016 21:03 0,7 °C 0,7 °C 92 % 1006,5 hPa 0,0 mm 0,9 km/h (0 Bft) O 91 ° 0 min 0,000 mm 0,0 UV-I 0 W/m² -0,4 °C 3,2 km/h (1 Bft)
09.11.2016 21:04 0,7 °C 0,7 °C 92 % 1006,5 hPa 0,0 mm 0,0 km/h (0 Bft) O 91 ° 0 min 0,000 mm 0,0 UV-I 0 W/m² -0,4 °C 0,0 km/h (0 Bft)
09.11.2016 21:05 0,7 °C 0,7 °C 92 % 1006,5 hPa 0,0 mm 0,5 km/h (0 Bft) O 91 ° 0 min 0,000 mm 0,0 UV-I 0 W/m² -0,4 °C 1,6 km/h (1 Bft)
09.11.2016 21:06 0,7 °C 0,7 °C 92 % 1006,5 hPa 0,0 mm 0,3 km/h (0 Bft) O 91 ° 0 min 0,000 mm 0,0 UV-I 0 W/m² -0,4 °C 1,6 km/h (1 Bft)
09.11.2016 21:07 0,7 °C 0,7 °C 92 % 1006,5 hPa 0,0 mm 0,0 km/h (0 Bft) O 91 ° 0 min 0,000 mm 0,0 UV-I 0 W/m² -0,4 °C 0,0 km/h (0 Bft)
09.11.2016 21:08 0,7 °C 0,7 °C 92 % 1006,5 hPa 0,0 mm 0,6 km/h (0 Bft) O 91 ° 0 min 0,000 mm 0,0 UV-I 0 W/m² -0,4 °C 1,6 km/h (1 Bft)
09.11.2016 21:09 0,7 °C 0,7 °C 92 % 1006,5 hPa 0,0 mm 0,1 km/h (0 Bft) O 91 ° 0 min 0,000 mm 0,0 UV-I 0 W/m² -0,4 °C 1,6 km/h (1 Bft)
09.11.2016 21:10 0,7 °C 0,7 °C 92 % 1006,5 hPa 0,0 mm 0,0 km/h (0 Bft) O 91 ° 0 min 0,000 mm 0,0 UV-I 0 W/m² -0,4 °C 0,0 km/h (0 Bft)
09.11.2016 21:11 0,6 °C 0,7 °C 92 % 1006,5 hPa 0,0 mm 0,0 km/h (0 Bft) O 91 ° 0 min 0,000 mm 0,0 UV-I 0 W/m² -0,5 °C 0,0 km/h (0 Bft)
09.11.2016 21:12 0,7 °C 0,7 °C 92 % 1006,5 hPa 0,0 mm 0,2 km/h (0 Bft) O 91 ° 0 min 0,000 mm 0,0 UV-I 0 W/m² -0,4 °C 1,6 km/h (1 Bft)
09.11.2016 21:13 0,7 °C 0,7 °C 92 % 1006,4 hPa 0,0 mm 0,3 km/h (0 Bft) O 91 ° 0 min 0,000 mm 0,0 UV-I 0 W/m² -0,4 °C 1,6 km/h (1 Bft)
09.11.2016 21:14 0,6 °C 0,7 °C 92 % 1006,4 hPa 0,0 mm 0,5 km/h (0 Bft) O 91 ° 0 min 0,000 mm 0,0 UV-I 0 W/m² -0,5 °C 1,6 km/h (1 Bft)
09.11.2016 21:15 0,7 °C 0,7 °C 92 % 1006,4 hPa 0,0 mm 0,6 km/h (0 Bft) O 91 ° 0 min 0,000 mm 0,0 UV-I 0 W/m² -0,4 °C 1,6 km/h (1 Bft)
09.11.2016 21:16 0,6 °C 0,7 °C 92 % 1006,4 hPa 0,0 mm 0,5 km/h (0 Bft) O 91 ° 0 min 0,000 mm 0,0 UV-I 0 W/m² -0,5 °C 1,6 km/h (1 Bft)
09.11.2016 21:17 0,6 °C 0,6 °C 92 % 1006,4 hPa 0,0 mm 1,0 km/h (0 Bft) O 91 ° 0 min 0,000 mm 0,0 UV-I 0 W/m² -0,5 °C 1,6 km/h (1 Bft)
09.11.2016 21:18 0,6 °C 0,6 °C 92 % 1006,5 hPa 0,0 mm 1,9 km/h (1 Bft) SW 221 ° 0 min 0,000 mm 0,0 UV-I 0 W/m² -0,5 °C 3,2 km/h (1 Bft)
09.11.2016 21:19 0,6 °C 0,7 °C 92 % 1006,4 hPa 0,0 mm 1,6 km/h (1 Bft) S-SW 209 ° 0 min 0,000 mm 0,0 UV-I 0 W/m² -0,5 °C 3,2 km/h (1 Bft)
09.11.2016 21:20 0,6 °C 0,6 °C 92 % 1006,5 hPa 0,0 mm 0,0 km/h (0 Bft) S-SW 209 ° 0 min 0,000 mm 0,0 UV-I 0 W/m² -0,5 °C 0,0 km/h (0 Bft)
09.11.2016 21:21 0,6 °C 0,6 °C 93 % 1006,4 hPa 0,0 mm 0,1 km/h (0 Bft) S-SW 209 ° 0 min 0,000 mm 0,0 UV-I 0 W/m² -0,4 °C 1,6 km/h (1 Bft)
09.11.2016 21:22 0,6 °C 0,6 °C 93 % 1006,4 hPa 0,0 mm 1,5 km/h (1 Bft) S-SW 209 ° 0 min 0,000 mm 0,0 UV-I 0 W/m² -0,4 °C 3,2 km/h (1 Bft)
09.11.2016 21:23 0,6 °C 0,6 °C 93 % 1006,4 hPa 0,0 mm 2,9 km/h (1 Bft) W-SW 252 ° 0 min 0,000 mm 0,0 UV-I 0 W/m² -0,4 °C 6,4 km/h (2 Bft)
09.11.2016 21:24 0,6 °C 0,6 °C 93 % 1006,4 hPa 0,0 mm 3,3 km/h (1 Bft) W 264 ° 0 min 0,000 mm 0,0 UV-I 0 W/m² -0,4 °C 6,4 km/h (2 Bft)
09.11.2016 21:25 0,6 °C 0,6 °C 93 % 1006,4 hPa 0,0 mm 2,4 km/h (1 Bft) W 263 ° 0 min 0,000 mm 0,0 UV-I 0 W/m² -0,4 °C 4,8 km/h (1 Bft)
09.11.2016 21:26 0,6 °C 0,6 °C 93 % 1006,4 hPa 0,0 mm 3,4 km/h (1 Bft) W 263 ° 0 min 0,000 mm 0,0 UV-I 0 W/m² -0,4 °C 4,8 km/h (1 Bft)
09.11.2016 21:27 0,6 °C 0,6 °C 93 % 1006,4 hPa 0,0 mm 4,1 km/h (1 Bft) W-SW 255 ° 0 min 0,000 mm 0,0 UV-I 0 W/m² -0,4 °C 6,4 km/h (2 Bft)
09.11.2016 21:28 0,6 °C 0,6 °C 93 % 1006,3 hPa 0,0 mm 1,5 km/h (1 Bft) W-SW 250 ° 0 min 0,000 mm 0,0 UV-I 0 W/m² -0,4 °C 3,2 km/h (1 Bft)
09.11.2016 21:29 0,7 °C 0,7 °C 93 % 1006,4 hPa 0,0 mm 3,6 km/h (1 Bft) SW 215 ° 0 min 0,000 mm 0,0 UV-I 0 W/m² -0,3 °C 6,4 km/h (2 Bft)
09.11.2016 21:30 0,7 °C 0,7 °C 93 % 1006,3 hPa 0,0 mm 4,2 km/h (1 Bft) W-SW 253 ° 0 min 0,000 mm 0,0 UV-I 0 W/m² -0,3 °C 6,4 km/h (2 Bft)
09.11.2016 21:31 0,7 °C 0,7 °C 93 % 1006,3 hPa 0,0 mm 3,6 km/h (1 Bft) W-SW 254 ° 0 min 0,000 mm 0,0 UV-I 0 W/m² -0,3 °C 4,8 km/h (1 Bft)
09.11.2016 21:32 0,7 °C 0,8 °C 93 % 1006,3 hPa 0,0 mm 4,3 km/h (1 Bft) SW 221 ° 0 min 0,000 mm 0,0 UV-I 0 W/m² -0,3 °C 6,4 km/h (2 Bft)
09.11.2016 21:33 0,8 °C 0,8 °C 93 % 1006,3 hPa 0,0 mm 4,2 km/h (1 Bft) W-SW 254 ° 0 min 0,000 mm 0,0 UV-I 0 W/m² -0,2 °C 4,8 km/h (1 Bft)
09.11.2016 21:34 0,8 °C 0,8 °C 93 % 1006,4 hPa 0,0 mm 4,1 km/h (1 Bft) W-SW 237 ° 0 min 0,000 mm 0,0 UV-I 0 W/m² -0,2 °C 6,4 km/h (2 Bft)
09.11.2016 21:35 0,8 °C 0,8 °C 93 % 1006,3 hPa 0,0 mm 5,6 km/h (1 Bft) SW 232 ° 0 min 0,000 mm 0,0 UV-I 0 W/m² -0,2 °C 9,7 km/h (2 Bft)
09.11.2016 21:36 0,8 °C 0,8 °C 93 % 1006,4 hPa 0,0 mm 6,5 km/h (2 Bft) W-SW 239 ° 0 min 0,000 mm 0,0 UV-I 0 W/m² -0,2 °C 9,7 km/h (2 Bft)
09.11.2016 21:37 0,9 °C 0,9 °C 93 % 1006,4 hPa 0,0 mm 6,0 km/h (2 Bft) W-SW 255 ° 0 min 0,000 mm 0,0 UV-I 0 W/m² -0,1 °C 9,7 km/h (2 Bft)
09.11.2016 21:38 0,9 °C 0,9 °C 93 % 1006,4 hPa 0,0 mm 5,4 km/h (1 Bft) W-SW 243 ° 0 min 0,000 mm 0,0 UV-I 0 W/m² -0,1 °C 8,0 km/h (2 Bft)
09.11.2016 21:39 1,0 °C 1,0 °C 93 % 1006,4 hPa 0,0 mm 2,5 km/h (1 Bft) SW 219 ° 0 min 0,000 mm 0,0 UV-I 0 W/m² -0,0 °C 4,8 km/h (1 Bft)
09.11.2016 21:40 1,0 °C 1,0 °C 93 % 1006,4 hPa 0,0 mm 5,1 km/h (1 Bft) W-SW 257 ° 0 min 0,000 mm 0,0 UV-I 0 W/m² -0,0 °C 6,4 km/h (2 Bft)
09.11.2016 21:41 1,1 °C 1,1 °C 93 % 1006,4 hPa 0,0 mm 11,0 km/h (2 Bft) W-SW 252 ° 0 min 0,000 mm 0,0 UV-I 0 W/m² 0,1 °C 16,1 km/h (3 Bft)
09.11.2016 21:42 1,1 °C 1,1 °C 93 % 1006,4 hPa 0,0 mm 6,6 km/h (2 Bft) SW 236 ° 0 min 0,000 mm 0,0 UV-I 0 W/m² 0,1 °C 11,3 km/h (2 Bft)
09.11.2016 21:43 1,1 °C 1,1 °C 93 % 1006,5 hPa 0,0 mm 6,6 km/h (2 Bft) W-SW 257 ° 0 min 0,000 mm 0,0 UV-I 0 W/m² 0,1 °C 11,3 km/h (2 Bft)
09.11.2016 21:44 1,1 °C 1,1 °C 93 % 1006,4 hPa 0,0 mm 6,3 km/h (2 Bft) W 261 ° 0 min 0,000 mm 0,0 UV-I 0 W/m² 0,1 °C 11,3 km/h (2 Bft)
09.11.2016 21:45 1,2 °C 1,2 °C 92 % 1006,4 hPa 0,0 mm 7,0 km/h (2 Bft) W-SW 247 ° 0 min 0,000 mm 0,0 UV-I 0 W/m² 0,0 °C 11,3 km/h (2 Bft)
09.11.2016 21:46 1,3 °C 1,3 °C 92 % 1006,5 hPa 0,2 mm 7,4 km/h (2 Bft) W 265 ° 0 min 0,000 mm 0,0 UV-I 0 W/m² 0,1 °C 11,3 km/h (2 Bft)
09.11.2016 21:47 1,2 °C 1,3 °C 92 % 1006,5 hPa 0,0 mm 7,5 km/h (2 Bft) W 264 ° 0 min 0,000 mm 0,0 UV-I 0 W/m² 0,0 °C 11,3 km/h (2 Bft)
09.11.2016 21:48 1,3 °C 1,3 °C 92 % 1006,5 hPa 0,0 mm 6,8 km/h (2 Bft) SW 233 ° 0 min 0,000 mm 0,0 UV-I 0 W/m² 0,1 °C 11,3 km/h (2 Bft)
09.11.2016 21:49 1,3 °C 1,3 °C 92 % 1006,5 hPa 0,0 mm 6,2 km/h (2 Bft) SW 233 ° 0 min 0,000 mm 0,0 UV-I 0 W/m² 0,1 °C 12,9 km/h (3 Bft)
09.11.2016 21:50 1,3 °C 1,3 °C 92 % 1006,5 hPa 0,0 mm 5,2 km/h (1 Bft) W-SW 249 ° 0 min 0,000 mm 0,0 UV-I 0 W/m² 0,1 °C 8,0 km/h (2 Bft)
09.11.2016 21:51 1,3 °C 1,4 °C 92 % 1006,5 hPa 0,0 mm 4,3 km/h (1 Bft) SW 236 ° 0 min 0,000 mm 0,0 UV-I 0 W/m² 0,1 °C 6,4 km/h (2 Bft)
09.11.2016 21:52 1,4 °C 1,4 °C 92 % 1006,6 hPa 0,0 mm 9,4 km/h (2 Bft) W-SW 246 ° 0 min 0,000 mm 0,0 UV-I 0 W/m² 0,2 °C 17,7 km/h (3 Bft)
09.11.2016 21:53 1,4 °C 1,4 °C 92 % 1006,5 hPa 0,0 mm 5,0 km/h (1 Bft) W-SW 242 ° 0 min 0,000 mm 0,0 UV-I 0 W/m² 0,2 °C 6,4 km/h (2 Bft)
09.11.2016 21:54 1,4 °C 1,4 °C 92 % 1006,5 hPa 0,0 mm 5,0 km/h (1 Bft) W-SW 250 ° 0 min 0,000 mm 0,0 UV-I 0 W/m² 0,2 °C 12,9 km/h (3 Bft)
09.11.2016 21:55 1,4 °C 1,4 °C 92 % 1006,6 hPa 0,0 mm 9,7 km/h (2 Bft) W-SW 250 ° 0 min 0,000 mm 0,0 UV-I 0 W/m² 0,2 °C 12,9 km/h (3 Bft)
09.11.2016 21:56 1,5 °C 1,5 °C 92 % 1006,5 hPa 0,0 mm 8,3 km/h (2 Bft) W-SW 257 ° 0 min 0,000 mm 0,0 UV-I 0 W/m² 0,3 °C 11,3 km/h (2 Bft)
09.11.2016 21:57 1,6 °C 1,6 °C 92 % 1006,5 hPa 0,0 mm 7,1 km/h (2 Bft) SW 223 ° 0 min 0,000 mm 0,0 UV-I 0 W/m² 0,4 °C 11,3 km/h (2 Bft)
09.11.2016 21:58 1,6 °C 1,6 °C 92 % 1006,5 hPa 0,0 mm 8,6 km/h (2 Bft) W-SW 243 ° 0 min 0,000 mm 0,0 UV-I 0 W/m² 0,4 °C 12,9 km/h (3 Bft)
09.11.2016 21:59 1,6 °C 1,6 °C 92 % 1006,5 hPa 0,0 mm 7,4 km/h (2 Bft) W-SW 250 ° 0 min 0,000 mm 0,0 UV-I 0 W/m² 0,4 °C 16,1 km/h (3 Bft)
09.11.2016 22:00 1,7 °C 1,7 °C 92 % 1006,4 hPa 0,0 mm 4,1 km/h (1 Bft) W 269 ° 0 min 0,000 mm 0,0 UV-I 0 W/m² 0,5 °C 4,8 km/h (1 Bft)
09.11.2016 22:01 1,7 °C 1,7 °C 91 % 1006,4 hPa 0,0 mm 5,1 km/h (1 Bft) W-SW 244 ° 0 min 0,000 mm 0,0 UV-I 0 W/m² 0,4 °C 9,7 km/h (2 Bft)
09.11.2016 22:02 1,7 °C 1,7 °C 91 % 1006,5 hPa 0,0 mm 8,4 km/h (2 Bft) W-SW 242 ° 0 min 0,000 mm 0,0 UV-I 0 W/m² 0,4 °C 12,9 km/h (3 Bft)
09.11.2016 22:03 1,8 °C 1,8 °C 91 % 1006,5 hPa 0,0 mm 10,3 km/h (2 Bft) W-SW 251 ° 0 min 0,000 mm 0,0 UV-I 0 W/m² 0,5 °C 16,1 km/h (3 Bft)
09.11.2016 22:04 1,8 °C 1,8 °C 91 % 1006,5 hPa 0,0 mm 6,4 km/h (2 Bft) W-SW 257 ° 0 min 0,000 mm 0,0 UV-I 0 W/m² 0,5 °C 8,0 km/h (2 Bft)
09.11.2016 22:05 1,8 °C 1,8 °C 91 % 1006,4 hPa 0,0 mm 7,6 km/h (2 Bft) W-SW 244 ° 0 min 0,000 mm 0,0 UV-I 0 W/m² 0,5 °C 12,9 km/h (3 Bft)
09.11.2016 22:06 1,8 °C 1,8 °C 91 % 1006,6 hPa 0,0 mm 6,1 km/h (2 Bft) SW 222 ° 0 min 0,000 mm 0,0 UV-I 0 W/m² 0,5 °C 11,3 km/h (2 Bft)
09.11.2016 22:07 1,8 °C 1,8 °C 91 % 1006,5 hPa 0,0 mm 10,8 km/h (2 Bft) W-SW 245 ° 0 min 0,000 mm 0,0 UV-I 0 W/m² 0,5 °C 16,1 km/h (3 Bft)
09.11.2016 22:08 1,9 °C 1,9 °C 91 % 1006,6 hPa 0,0 mm 4,3 km/h (1 Bft) W 270 ° 0 min 0,000 mm 0,0 UV-I 0 W/m² 0,6 °C 8,0 km/h (2 Bft)
09.11.2016 22:09 1,9 °C 1,9 °C 91 % 1006,5 hPa 0,0 mm 6,1 km/h (2 Bft) W-SW 238 ° 0 min 0,000 mm 0,0 UV-I 0 W/m² 0,6 °C 11,3 km/h (2 Bft)
09.11.2016 22:10 1,9 °C 1,9 °C 91 % 1006,6 hPa 0,0 mm 5,9 km/h (2 Bft) W 262 ° 0 min 0,000 mm 0,0 UV-I 0 W/m² 0,6 °C 9,7 km/h (2 Bft)
09.11.2016 22:11 1,9 °C 2,0 °C 91 % 1006,6 hPa 0,0 mm 4,8 km/h (1 Bft) W 267 ° 0 min 0,000 mm 0,0 UV-I 0 W/m² 0,6 °C 11,3 km/h (2 Bft)
09.11.2016 22:12 2,0 °C 2,0 °C 91 % 1006,5 hPa 0,0 mm 5,3 km/h (1 Bft) SW 225 ° 0 min 0,000 mm 0,0 UV-I 0 W/m² 0,7 °C 8,0 km/h (2 Bft)
09.11.2016 22:13 2,0 °C 2,1 °C 91 % 1006,6 hPa 0,0 mm 9,1 km/h (2 Bft) W-SW 257 ° 0 min 0,000 mm 0,0 UV-I 0 W/m² 0,7 °C 14,5 km/h (3 Bft)
09.11.2016 22:14 2,1 °C 2,1 °C 91 % 1006,6 hPa 0,0 mm 6,6 km/h (2 Bft) S-SW 201 ° 0 min 0,000 mm 0,0 UV-I 0 W/m² 0,8 °C 12,9 km/h (3 Bft)
09.11.2016 22:15 2,1 °C 2,1 °C 91 % 1006,5 hPa 0,0 mm 5,0 km/h (1 Bft) S-SW 194 ° 0 min 0,000 mm 0,0 UV-I 0 W/m² 0,8 °C 6,4 km/h (2 Bft)
09.11.2016 22:16 2,1 °C 2,1 °C 90 % 1006,5 hPa 0,0 mm 10,6 km/h (2 Bft) SW 225 ° 0 min 0,000 mm 0,0 UV-I 0 W/m² 0,6 °C 16,1 km/h (3 Bft)
09.11.2016 22:17 2,2 °C 2,2 °C 90 % 1006,5 hPa 0,0 mm 5,2 km/h (1 Bft) S-SW 198 ° 0 min 0,000 mm 0,0 UV-I 0 W/m² 0,7 °C 8,0 km/h (2 Bft)
09.11.2016 22:18 2,2 °C 2,2 °C 90 % 1006,5 hPa 0,0 mm 10,4 km/h (2 Bft) W-SW 242 ° 0 min 0,000 mm 0,0 UV-I 0 W/m² 0,7 °C 16,1 km/h (3 Bft)
09.11.2016 22:19 2,2 °C 2,2 °C 90 % 1006,6 hPa 0,0 mm 10,4 km/h (2 Bft) W-SW 258 ° 0 min 0,000 mm 0,0 UV-I 0 W/m² 0,7 °C 16,1 km/h (3 Bft)
09.11.2016 22:20 2,2 °C 2,2 °C 90 % 1006,6 hPa 0,0 mm 9,2 km/h (2 Bft) SW 224 ° 0 min 0,000 mm 0,0 UV-I 0 W/m² 0,7 °C 14,5 km/h (3 Bft)
09.11.2016 22:21 2,3 °C 2,3 °C 90 % 1006,6 hPa 0,0 mm 7,2 km/h (2 Bft) W-SW 252 ° 0 min 0,000 mm 0,0 UV-I 0 W/m² 0,8 °C 11,3 km/h (2 Bft)
09.11.2016 22:22 2,3 °C 2,3 °C 90 % 1006,6 hPa 0,0 mm 6,4 km/h (2 Bft) W-SW 254 ° 0 min 0,000 mm 0,0 UV-I 0 W/m² 0,8 °C 8,0 km/h (2 Bft)
09.11.2016 22:23 2,3 °C 2,3 °C 90 % 1006,6 hPa 0,0 mm 7,2 km/h (2 Bft) W 259 ° 0 min 0,000 mm 0,0 UV-I 0 W/m² 0,8 °C 11,3 km/h (2 Bft)
09.11.2016 22:24 2,3 °C 2,3 °C 90 % 1006,6 hPa 0,0 mm 8,3 km/h (2 Bft) SW 231 ° 0 min 0,000 mm 0,0 UV-I 0 W/m² 0,8 °C 12,9 km/h (3 Bft)
09.11.2016 22:25 2,4 °C 2,4 °C 90 % 1006,6 hPa 0,0 mm 4,4 km/h (1 Bft) W-SW 240 ° 0 min 0,000 mm 0,0 UV-I 0 W/m² 0,9 °C 6,4 km/h (2 Bft)
09.11.2016 22:26 2,3 °C 2,4 °C 90 % 1006,6 hPa 0,0 mm 10,0 km/h (2 Bft) W-SW 248 ° 0 min 0,000 mm 0,0 UV-I 0 W/m² 0,8 °C 16,1 km/h (3 Bft)
09.11.2016 22:27 2,4 °C 2,4 °C 90 % 1006,7 hPa 0,0 mm 8,3 km/h (2 Bft) W-SW 247 ° 0 min 0,000 mm 0,0 UV-I 0 W/m² 0,9 °C 14,5 km/h (3 Bft)
09.11.2016 22:28 2,4 °C 2,4 °C 90 % 1006,7 hPa 0,0 mm 5,8 km/h (2 Bft) W-SW 248 ° 0 min 0,000 mm 0,0 UV-I 0 W/m² 0,9 °C 9,7 km/h (2 Bft)
09.11.2016 22:29 2,4 °C 2,4 °C 90 % 1006,7 hPa 0,0 mm 11,0 km/h (2 Bft) W-SW 248 ° 0 min 0,000 mm 0,0 UV-I 0 W/m² 0,9 °C 14,5 km/h (3 Bft)
09.11.2016 22:30 2,4 °C 2,4 °C 90 % 1006,7 hPa 0,0 mm 11,3 km/h (2 Bft) W-NW 289 ° 0 min 0,000 mm 0,0 UV-I 0 W/m² 0,9 °C 16,1 km/h (3 Bft)
09.11.2016 22:31 2,4 °C 2,4 °C 90 % 1006,8 hPa 0,0 mm 10,1 km/h (2 Bft) SW 235 ° 0 min 0,000 mm 0,0 UV-I 0 W/m² 0,9 °C 14,5 km/h (3 Bft)
09.11.2016 22:32 2,4 °C 2,4 °C 90 % 1006,8 hPa 0,0 mm 7,8 km/h (2 Bft) W-SW 238 ° 0 min 0,000 mm 0,0 UV-I 0 W/m² 0,9 °C 11,3 km/h (2 Bft)
09.11.2016 22:33 2,5 °C 2,5 °C 90 % 1006,7 hPa 0,0 mm 12,0 km/h (2 Bft) W-SW 249 ° 0 min 0,000 mm 0,0 UV-I 0 W/m² 1,0 °C 19,3 km/h (3 Bft)
09.11.2016 22:34 2,5 °C 2,6 °C 89 % 1006,8 hPa 0,0 mm 12,6 km/h (3 Bft) W-SW 242 ° 0 min 0,000 mm 0,0 UV-I 0 W/m² 0,9 °C 20,9 km/h (4 Bft)
09.11.2016 22:35 2,6 °C 2,6 °C 89 % 1006,8 hPa 0,0 mm 6,4 km/h (2 Bft) SW 221 ° 0 min 0,000 mm 0,0 UV-I 0 W/m² 1,0 °C 12,9 km/h (3 Bft)
09.11.2016 22:36 2,6 °C 2,6 °C 89 % 1006,7 hPa 0,0 mm 8,4 km/h (2 Bft) W-SW 242 ° 0 min 0,000 mm 0,0 UV-I 0 W/m² 1,0 °C 12,9 km/h (3 Bft)
09.11.2016 22:37 2,6 °C 2,6 °C 89 % 1006,7 hPa 0,0 mm 11,2 km/h (2 Bft) W-SW 250 ° 0 min 0,000 mm 0,0 UV-I 0 W/m² 1,0 °C 17,7 km/h (3 Bft)
09.11.2016 22:38 2,6 °C 2,6 °C 89 % 1006,7 hPa 0,0 mm 10,1 km/h (2 Bft) W-NW 288 ° 0 min 0,000 mm 0,0 UV-I 0 W/m² 1,0 °C 14,5 km/h (3 Bft)
09.11.2016 22:39 2,6 °C 2,6 °C 89 % 1006,7 hPa 0,0 mm 11,3 km/h (2 Bft) SW 224 ° 0 min 0,000 mm 0,0 UV-I 0 W/m² 1,0 °C 17,7 km/h (3 Bft)
09.11.2016 22:40 2,6 °C 2,7 °C 89 % 1006,7 hPa 0,0 mm 7,7 km/h (2 Bft) W-SW 240 ° 0 min 0,000 mm 0,0 UV-I 0 W/m² 1,0 °C 14,5 km/h (3 Bft)
09.11.2016 22:41 2,7 °C 2,7 °C 89 % 1006,8 hPa 0,0 mm 6,1 km/h (2 Bft) SW 236 ° 0 min 0,000 mm 0,0 UV-I 0 W/m² 1,1 °C 9,7 km/h (2 Bft)
09.11.2016 22:42 2,7 °C 2,7 °C 89 % 1006,7 hPa 0,0 mm 7,2 km/h (2 Bft) SW 226 ° 0 min 0,000 mm 0,0 UV-I 0 W/m² 1,1 °C 12,9 km/h (3 Bft)
09.11.2016 22:43 2,7 °C 2,7 °C 89 % 1006,7 hPa 0,0 mm 9,0 km/h (2 Bft) W-SW 242 ° 0 min 0,000 mm 0,0 UV-I 0 W/m² 1,1 °C 14,5 km/h (3 Bft)
09.11.2016 22:44 2,7 °C 2,7 °C 89 % 1006,7 hPa 0,0 mm 6,7 km/h (2 Bft) W-SW 258 ° 0 min 0,000 mm 0,0 UV-I 0 W/m² 1,1 °C 11,3 km/h (2 Bft)
09.11.2016 22:45 2,7 °C 2,7 °C 89 % 1006,7 hPa 0,0 mm 6,8 km/h (2 Bft) SW 227 ° 0 min 0,000 mm 0,0 UV-I 0 W/m² 1,1 °C 11,3 km/h (2 Bft)
09.11.2016 22:46 2,7 °C 2,7 °C 89 % 1006,7 hPa 0,0 mm 7,7 km/h (2 Bft) W 277 ° 0 min 0,000 mm 0,0 UV-I 0 W/m² 1,1 °C 14,5 km/h (3 Bft)
09.11.2016 22:47 2,7 °C 2,7 °C 89 % 1006,7 hPa 0,0 mm 14,0 km/h (3 Bft) W-SW 242 ° 0 min 0,000 mm 0,0 UV-I 0 W/m² 1,1 °C 20,9 km/h (4 Bft)
09.11.2016 22:48 2,7 °C 2,7 °C 89 % 1006,7 hPa 0,0 mm 13,0 km/h (3 Bft) W-SW 246 ° 0 min 0,000 mm 0,0 UV-I 0 W/m² 1,1 °C 19,3 km/h (3 Bft)
09.11.2016 22:49 2,7 °C 2,7 °C 89 % 1006,7 hPa 0,0 mm 9,9 km/h (2 Bft) W-SW 250 ° 0 min 0,000 mm 0,0 UV-I 0 W/m² 1,1 °C 14,5 km/h (3 Bft)
09.11.2016 22:50 2,7 °C 2,7 °C 89 % 1006,7 hPa 0,2 mm 9,8 km/h (2 Bft) W-SW 250 ° 0 min 0,000 mm 0,0 UV-I 0 W/m² 1,1 °C 12,9 km/h (3 Bft)
09.11.2016 22:51 2,7 °C 2,7 °C 89 % 1006,7 hPa 0,0 mm 6,9 km/h (2 Bft) W-SW 252 ° 0 min 0,000 mm 0,0 UV-I 0 W/m² 1,1 °C 12,9 km/h (3 Bft)
09.11.2016 22:52 2,7 °C 2,8 °C 89 % 1006,8 hPa 0,0 mm 9,1 km/h (2 Bft) W 263 ° 0 min 0,000 mm 0,0 UV-I 0 W/m² 1,1 °C 12,9 km/h (3 Bft)
09.11.2016 22:53 2,7 °C 2,7 °C 89 % 1006,7 hPa 0,0 mm 6,6 km/h (2 Bft) W-SW 250 ° 0 min 0,000 mm 0,0 UV-I 0 W/m² 1,1 °C 9,7 km/h (2 Bft)
09.11.2016 22:54 2,7 °C 2,7 °C 89 % 1006,7 hPa 0,0 mm 10,2 km/h (2 Bft) W-SW 248 ° 0 min 0,000 mm 0,0 UV-I 0 W/m² 1,1 °C 16,1 km/h (3 Bft)
09.11.2016 22:55 2,7 °C 2,8 °C 89 % 1006,7 hPa 0,0 mm 8,0 km/h (2 Bft) W-SW 244 ° 0 min 0,000 mm 0,0 UV-I 0 W/m² 1,1 °C 16,1 km/h (3 Bft)
09.11.2016 22:56 2,7 °C 2,7 °C 89 % 1006,7 hPa 0,0 mm 11,1 km/h (2 Bft) W-SW 249 ° 0 min 0,000 mm 0,0 UV-I 0 W/m² 1,1 °C 16,1 km/h (3 Bft)
09.11.2016 22:57 2,7 °C 2,7 °C 89 % 1006,7 hPa 0,0 mm 9,0 km/h (2 Bft) S-SW 192 ° 0 min 0,000 mm 0,0 UV-I 0 W/m² 1,1 °C 14,5 km/h (3 Bft)
09.11.2016 22:58 2,7 °C 2,8 °C 89 % 1006,7 hPa 0,0 mm 7,1 km/h (2 Bft) W-SW 257 ° 0 min 0,000 mm 0,0 UV-I 0 W/m² 1,1 °C 14,5 km/h (3 Bft)
09.11.2016 22:59 2,8 °C 2,8 °C 88 % 1006,9 hPa 0,0 mm 12,1 km/h (2 Bft) S-SW 200 ° 0 min 0,000 mm 0,0 UV-I 0 W/m² 1,0 °C 19,3 km/h (3 Bft)
09.11.2016 23:00 2,8 °C 2,8 °C 89 % 1006,9 hPa 0,0 mm 15,4 km/h (3 Bft) W-SW 246 ° 0 min 0,000 mm 0,0 UV-I 0 W/m² 1,2 °C 22,5 km/h (4 Bft)
09.11.2016 23:01 2,8 °C 2,8 °C 88 % 1006,9 hPa 0,0 mm 15,0 km/h (3 Bft) W-SW 244 ° 0 min 0,000 mm 0,0 UV-I 0 W/m² 1,0 °C 20,9 km/h (4 Bft)
09.11.2016 23:02 2,8 °C 2,8 °C 88 % 1006,9 hPa 0,0 mm 15,3 km/h (3 Bft) W-NW 282 ° 0 min 0,000 mm 0,0 UV-I 0 W/m² 1,0 °C 27,4 km/h (4 Bft)
09.11.2016 23:03 2,8 °C 2,8 °C 88 % 1006,9 hPa 0,0 mm 18,2 km/h (3 Bft) W-SW 248 ° 0 min 0,000 mm 0,0 UV-I 0 W/m² 1,0 °C 25,7 km/h (4 Bft)
09.11.2016 23:04 2,8 °C 2,8 °C 88 % 1006,9 hPa 0,0 mm 12,9 km/h (3 Bft) NW 304 ° 0 min 0,000 mm 0,0 UV-I 0 W/m² 1,0 °C 20,9 km/h (4 Bft)
09.11.2016 23:05 2,8 °C 2,8 °C 88 % 1006,9 hPa 0,0 mm 11,1 km/h (2 Bft) W-NW 298 ° 0 min 0,000 mm 0,0 UV-I 0 W/m² 1,0 °C 20,9 km/h (4 Bft)
09.11.2016 23:06 2,8 °C 2,8 °C 88 % 1006,9 hPa 0,0 mm 11,7 km/h (2 Bft) W 263 ° 0 min 0,000 mm 0,0 UV-I 0 W/m² 1,0 °C 20,9 km/h (4 Bft)
09.11.2016 23:07 2,9 °C 2,9 °C 88 % 1007,0 hPa 0,0 mm 13,9 km/h (3 Bft) W 281 ° 0 min 0,000 mm 0,0 UV-I 0 W/m² 1,1 °C 20,9 km/h (4 Bft)
09.11.2016 23:08 2,9 °C 2,9 °C 88 % 1007,0 hPa 0,0 mm 16,9 km/h (3 Bft) W 271 ° 0 min 0,000 mm 0,0 UV-I 0 W/m² 1,1 °C 27,4 km/h (4 Bft)
09.11.2016 23:09 2,9 °C 2,9 °C 88 % 1007,0 hPa 0,0 mm 10,0 km/h (2 Bft) W 263 ° 0 min 0,000 mm 0,0 UV-I 0 W/m² 1,1 °C 12,9 km/h (3 Bft)
09.11.2016 23:10 2,9 °C 2,9 °C 88 % 1007,1 hPa 0,0 mm 8,9 km/h (2 Bft) W-SW 238 ° 0 min 0,000 mm 0,0 UV-I 0 W/m² 1,1 °C 16,1 km/h (3 Bft)
09.11.2016 23:11 2,9 °C 2,9 °C 88 % 1006,9 hPa 0,0 mm 18,1 km/h (3 Bft) W 259 ° 0 min 0,000 mm 0,0 UV-I 0 W/m² 1,1 °C 25,7 km/h (4 Bft)
09.11.2016 23:12 3,0 °C 3,0 °C 88 % 1006,9 hPa 0,0 mm 9,4 km/h (2 Bft) W-SW 249 ° 0 min 0,000 mm 0,0 UV-I 0 W/m² 1,2 °C 17,7 km/h (3 Bft)
09.11.2016 23:13 3,0 °C 3,0 °C 88 % 1007,0 hPa 0,0 mm 10,8 km/h (2 Bft) W-SW 256 ° 0 min 0,000 mm 0,0 UV-I 0 W/m² 1,2 °C 17,7 km/h (3 Bft)
09.11.2016 23:14 2,9 °C 3,0 °C 88 % 1006,9 hPa 0,0 mm 16,0 km/h (3 Bft) W 279 ° 0 min 0,000 mm 0,0 UV-I 0 W/m² 1,1 °C 24,1 km/h (4 Bft)
09.11.2016 23:15 3,0 °C 3,0 °C 88 % 1006,9 hPa 0,0 mm 13,4 km/h (3 Bft) W 281 ° 0 min 0,000 mm 0,0 UV-I 0 W/m² 1,2 °C 20,9 km/h (4 Bft)
09.11.2016 23:16 3,0 °C 3,0 °C 88 % 1007,0 hPa 0,2 mm 16,6 km/h (3 Bft) W 260 ° 0 min 0,000 mm 0,0 UV-I 0 W/m² 1,2 °C 24,1 km/h (4 Bft)
09.11.2016 23:17 3,0 °C 3,0 °C 88 % 1007,0 hPa 0,0 mm 14,3 km/h (3 Bft) W-NW 296 ° 0 min 0,000 mm 0,0 UV-I 0 W/m² 1,2 °C 20,9 km/h (4 Bft)
09.11.2016 23:18 3,0 °C 3,0 °C 88 % 1007,0 hPa 0,0 mm 10,7 km/h (2 Bft) SW 229 ° 0 min 0,000 mm 0,0 UV-I 0 W/m² 1,2 °C 17,7 km/h (3 Bft)
09.11.2016 23:19 3,0 °C 3,0 °C 88 % 1007,0 hPa 0,0 mm 16,5 km/h (3 Bft) W 262 ° 0 min 0,000 mm 0,0 UV-I 0 W/m² 1,2 °C 22,5 km/h (4 Bft)
09.11.2016 23:20 3,1 °C 3,1 °C 88 % 1007,0 hPa 0,0 mm 13,4 km/h (3 Bft) W-SW 245 ° 0 min 0,000 mm 0,0 UV-I 0 W/m² 1,3 °C 19,3 km/h (3 Bft)
09.11.2016 23:21 3,0 °C 3,1 °C 88 % 1007,0 hPa 0,0 mm 10,5 km/h (2 Bft) W 271 ° 0 min 0,000 mm 0,0 UV-I 0 W/m² 1,2 °C 16,1 km/h (3 Bft)
09.11.2016 23:22 3,1 °C 3,1 °C 88 % 1007,0 hPa 0,0 mm 16,2 km/h (3 Bft) W 270 ° 0 min 0,000 mm 0,0 UV-I 0 W/m² 1,3 °C 22,5 km/h (4 Bft)
09.11.2016 23:23 3,1 °C 3,1 °C 88 % 1007,0 hPa 0,0 mm 13,3 km/h (3 Bft) W 267 ° 0 min 0,000 mm 0,0 UV-I 0 W/m² 1,3 °C 19,3 km/h (3 Bft)
09.11.2016 23:24 3,1 °C 3,1 °C 88 % 1007,1 hPa 0,0 mm 17,2 km/h (3 Bft) W-SW 238 ° 0 min 0,000 mm 0,0 UV-I 0 W/m² 1,3 °C 25,7 km/h (4 Bft)
09.11.2016 23:25 3,1 °C 3,1 °C 87 % 1007,1 hPa 0,0 mm 21,0 km/h (4 Bft) SW 233 ° 0 min 0,000 mm 0,0 UV-I 0 W/m² 1,2 °C 30,6 km/h (5 Bft)
09.11.2016 23:26 3,1 °C 3,1 °C 87 % 1007,1 hPa 0,0 mm 17,1 km/h (3 Bft) W 261 ° 0 min 0,000 mm 0,0 UV-I 0 W/m² 1,2 °C 27,4 km/h (4 Bft)
09.11.2016 23:27 3,1 °C 3,1 °C 87 % 1007,1 hPa 0,0 mm 13,6 km/h (3 Bft) SW 226 ° 0 min 0,000 mm 0,0 UV-I 0 W/m² 1,2 °C 24,1 km/h (4 Bft)
09.11.2016 23:28 3,1 °C 3,1 °C 87 % 1007,1 hPa 0,0 mm 16,1 km/h (3 Bft) W 267 ° 0 min 0,000 mm 0,0 UV-I 0 W/m² 1,2 °C 29,0 km/h (5 Bft)
09.11.2016 23:29 3,1 °C 3,1 °C 87 % 1007,1 hPa 0,0 mm 14,6 km/h (3 Bft) W-NW 293 ° 0 min 0,000 mm 0,0 UV-I 0 W/m² 1,2 °C 25,7 km/h (4 Bft)
09.11.2016 23:30 3,1 °C 3,1 °C 87 % 1007,2 hPa 0,0 mm 20,1 km/h (4 Bft) W-SW 252 ° 0 min 0,000 mm 0,0 UV-I 0 W/m² 1,2 °C 30,6 km/h (5 Bft)
09.11.2016 23:31 3,1 °C 3,1 °C 87 % 1007,1 hPa 0,0 mm 14,6 km/h (3 Bft) W-SW 246 ° 0 min 0,000 mm 0,0 UV-I 0 W/m² 1,2 °C 20,9 km/h (4 Bft)
09.11.2016 23:32 3,1 °C 3,1 °C 87 % 1007,1 hPa 0,2 mm 11,3 km/h (2 Bft) W-SW 257 ° 0 min 0,000 mm 0,0 UV-I 0 W/m² 1,2 °C 17,7 km/h (3 Bft)
09.11.2016 23:33 3,1 °C 3,1 °C 87 % 1007,2 hPa 0,0 mm 13,6 km/h (3 Bft) SW 217 ° 0 min 0,000 mm 0,0 UV-I 0 W/m² 1,2 °C 19,3 km/h (3 Bft)
09.11.2016 23:34 3,1 °C 3,1 °C 87 % 1007,3 hPa 0,0 mm 20,7 km/h (4 Bft) W-NW 289 ° 0 min 0,000 mm 0,0 UV-I 0 W/m² 1,2 °C 29,0 km/h (5 Bft)
09.11.2016 23:35 3,1 °C 3,1 °C 87 % 1007,2 hPa 0,0 mm 15,8 km/h (3 Bft) W 271 ° 0 min 0,000 mm 0,0 UV-I 0 W/m² 1,2 °C 20,9 km/h (4 Bft)
09.11.2016 23:36 3,1 °C 3,2 °C 87 % 1007,2 hPa 0,0 mm 15,7 km/h (3 Bft) W 269 ° 0 min 0,000 mm 0,0 UV-I 0 W/m² 1,2 °C 22,5 km/h (4 Bft)
09.11.2016 23:37 3,1 °C 3,1 °C 87 % 1007,2 hPa 0,0 mm 15,5 km/h (3 Bft) W 273 ° 0 min 0,000 mm 0,0 UV-I 0 W/m² 1,2 °C 22,5 km/h (4 Bft)
09.11.2016 23:38 3,1 °C 3,1 °C 87 % 1007,2 hPa 0,0 mm 14,4 km/h (3 Bft) W-NW 284 ° 0 min 0,000 mm 0,0 UV-I 0 W/m² 1,2 °C 17,7 km/h (3 Bft)
09.11.2016 23:39 3,1 °C 3,1 °C 87 % 1007,2 hPa 0,0 mm 12,6 km/h (3 Bft) W 261 ° 0 min 0,000 mm 0,0 UV-I 0 W/m² 1,2 °C 17,7 km/h (3 Bft)
09.11.2016 23:40 3,1 °C 3,1 °C 87 % 1007,3 hPa 0,0 mm 9,1 km/h (2 Bft) W-SW 251 ° 0 min 0,000 mm 0,0 UV-I 0 W/m² 1,2 °C 14,5 km/h (3 Bft)
09.11.2016 23:41 3,1 °C 3,1 °C 88 % 1007,4 hPa 0,0 mm 13,5 km/h (3 Bft) W-SW 257 ° 0 min 0,000 mm 0,0 UV-I 0 W/m² 1,3 °C 17,7 km/h (3 Bft)
09.11.2016 23:42 3,1 °C 3,1 °C 88 % 1007,4 hPa 0,0 mm 14,0 km/h (3 Bft) W 263 ° 0 min 0,000 mm 0,0 UV-I 0 W/m² 1,3 °C 19,3 km/h (3 Bft)
09.11.2016 23:43 3,1 °C 3,1 °C 88 % 1007,5 hPa 0,0 mm 10,4 km/h (2 Bft) W-SW 249 ° 0 min 0,000 mm 0,0 UV-I 0 W/m² 1,3 °C 17,7 km/h (3 Bft)
09.11.2016 23:44 3,1 °C 3,1 °C 88 % 1007,4 hPa 0,0 mm 5,4 km/h (1 Bft) W-SW 248 ° 0 min 0,000 mm 0,0 UV-I 0 W/m² 1,3 °C 9,7 km/h (2 Bft)
09.11.2016 23:45 3,1 °C 3,1 °C 88 % 1007,4 hPa 0,0 mm 9,9 km/h (2 Bft) W 263 ° 0 min 0,000 mm 0,0 UV-I 0 W/m² 1,3 °C 14,5 km/h (3 Bft)
09.11.2016 23:46 3,1 °C 3,1 °C 88 % 1007,5 hPa 0,0 mm 11,1 km/h (2 Bft) W-SW 246 ° 0 min 0,000 mm 0,0 UV-I 0 W/m² 1,3 °C 17,7 km/h (3 Bft)
09.11.2016 23:47 3,1 °C 3,1 °C 88 % 1007,5 hPa 0,0 mm 7,0 km/h (2 Bft) W 262 ° 0 min 0,000 mm 0,0 UV-I 0 W/m² 1,3 °C 9,7 km/h (2 Bft)
09.11.2016 23:48 3,1 °C 3,1 °C 88 % 1007,6 hPa 0,0 mm 10,5 km/h (2 Bft) W-SW 257 ° 0 min 0,000 mm 0,0 UV-I 0 W/m² 1,3 °C 12,9 km/h (3 Bft)
09.11.2016 23:49 3,1 °C 3,1 °C 88 % 1007,5 hPa 0,0 mm 6,2 km/h (2 Bft) W-SW 240 ° 0 min 0,000 mm 0,0 UV-I 0 W/m² 1,3 °C 11,3 km/h (2 Bft)
09.11.2016 23:50 3,1 °C 3,1 °C 88 % 1007,6 hPa 0,0 mm 10,5 km/h (2 Bft) O-SO 119 ° 0 min 0,000 mm 0,0 UV-I 0 W/m² 1,3 °C 19,3 km/h (3 Bft)
09.11.2016 23:51 3,1 °C 3,1 °C 88 % 1007,4 hPa 0,2 mm 8,6 km/h (2 Bft) W-SW 258 ° 0 min 0,000 mm 0,0 UV-I 0 W/m² 1,3 °C 16,1 km/h (3 Bft)
09.11.2016 23:52 3,0 °C 3,1 °C 88 % 1007,5 hPa 0,0 mm 12,5 km/h (3 Bft) W-SW 241 ° 0 min 0,000 mm 0,0 UV-I 0 W/m² 1,2 °C 20,9 km/h (4 Bft)
09.11.2016 23:53 3,0 °C 3,0 °C 88 % 1007,6 hPa 0,0 mm 11,2 km/h (2 Bft) W-SW 256 ° 0 min 0,000 mm 0,0 UV-I 0 W/m² 1,2 °C 19,3 km/h (3 Bft)
09.11.2016 23:54 3,0 °C 3,1 °C 88 % 1007,5 hPa 0,0 mm 16,5 km/h (3 Bft) W 277 ° 0 min 0,000 mm 0,0 UV-I 0 W/m² 1,2 °C 22,5 km/h (4 Bft)
09.11.2016 23:55 2,9 °C 3,0 °C 88 % 1007,6 hPa 0,2 mm 16,7 km/h (3 Bft) W-SW 246 ° 0 min 0,000 mm 0,0 UV-I 0 W/m² 1,1 °C 19,3 km/h (3 Bft)
09.11.2016 23:56 2,9 °C 3,0 °C 88 % 1007,6 hPa 0,0 mm 14,9 km/h (3 Bft) W 259 ° 0 min 0,000 mm 0,0 UV-I 0 W/m² 1,1 °C 19,3 km/h (3 Bft)
09.11.2016 23:57 2,9 °C 2,9 °C 88 % 1007,6 hPa 0,0 mm 12,5 km/h (3 Bft) W-SW 252 ° 0 min 0,000 mm 0,0 UV-I 0 W/m² 1,1 °C 19,3 km/h (3 Bft)
09.11.2016 23:58 2,9 °C 3,0 °C 88 % 1007,6 hPa 0,0 mm 15,1 km/h (3 Bft) W 273 ° 0 min 0,000 mm 0,0 UV-I 0 W/m² 1,1 °C 20,9 km/h (4 Bft)
09.11.2016 23:59 2,9 °C 2,9 °C 89 % 1007,6 hPa 0,0 mm 8,9 km/h (2 Bft) W-SW 248 ° 0 min 0,000 mm 0,0 UV-I 0 W/m² 1,3 °C 16,1 km/h (3 Bft)
_ Min-Zeit 08:04 08:03 14:05 17:10 - 21:20 - - - - - - 07:46 21:20
Minimum _ -5,2 °C -5,2 °C 73 % 1005,3 hPa - 0,0 km/h (0 Bft) - - - - - - -6,3 °C 0,0 km/h (0 Bft)
_ Max-Zeit 23:36 23:36 09:36 00:05 23:55 23:25 - - 13:21 14:01 12:19 13:20 23:51 23:30
Maximum _ 3,2 °C 3,2 °C 95 % 1012,9 hPa 0,2 mm 21,0 km/h
SW (4 Bft)
- - 1 min 0,076 mm 1,5 UV-I 225 W/m² 1,3 °C 30,6 km/h
W-SW (5 Bft)
Durchschnitt _ -0,4 °C -0,4 °C 89 % 1008,2 hPa #3,0 mm 2,3 km/h (1 Bft) W-SW - #3 min. #0,330 mm 1,1 UV-I 37 W/m² -2,0 °C 3,8 km/h (1 Bft)